Date StartTime U_cm/s V_cm/s W_cm/s Ustd_cm/s Vstd_cm/s Wstd_cm/s Uvar_(cm/s)^2 Vvar_(cm/s)^2 Wvar_(cm/s)^2 KE_(m/s)^2 TurbulentKE_(m/s)^2 HorizWindSpeed_cm/s FrictionSpeec_cm/s DragCoef SpeedOfSound_m/s SonicTemperature_C Pressure_mb 
10/14/2014  00:00:00      -84.979        1.788       -9.653       12.285       13.547       10.171      150.919      183.522      103.443        0.388        0.022       84.998        7.241        0.007      340.854       15.162      861.270
10/14/2014  00:01:00      -39.962      -22.839       -4.912       27.383       27.766       14.235      749.829      770.958      202.631        0.193        0.086       46.028       15.666        0.116      340.659       14.833      861.264
10/14/2014  00:02:00      -54.032       -3.809       -9.194        6.754       26.101        5.449       45.622      681.264       29.697        0.189        0.038       54.166        7.599        0.020      341.133       15.634      861.258
10/14/2014  00:03:00      -74.843      -28.927      -13.916       12.634       18.638        9.792      159.606      347.359       95.889        0.362        0.030       80.239        6.707        0.007      340.496       14.559      861.267
10/14/2014  00:04:00      -90.180       -7.671      -10.052       25.854       22.868       11.954      668.425      522.962      142.890        0.481        0.067       90.506       10.631        0.014      340.653       14.823      861.283
10/14/2014  00:05:00      -97.757      -46.703      -16.678       25.372       22.069       14.094      643.722      487.047      198.651        0.667        0.066      108.340       11.465        0.011      340.443       14.467      861.300
10/14/2014  00:06:00      -20.100      -26.268        7.559       29.854       15.647       20.301      891.263      244.821      412.148        0.135        0.077       33.076       16.785        0.258      340.232       14.111      861.317
10/14/2014  00:07:00        5.611      -20.331       -5.279       19.708       19.347       14.307      388.387      374.291      204.686        0.072        0.048       21.091       13.165        0.390      340.515       14.589      861.309
10/14/2014  00:08:00       16.238        1.378       -3.027       12.248       16.198       12.012      150.004      262.385      144.286        0.042        0.028       16.296        4.027        0.061      340.960       15.341      861.282
10/14/2014  00:09:00       13.665      -37.539        4.056       12.467       12.438        9.267      155.433      154.696       85.870        0.100        0.020       39.949        6.536        0.027      340.903       15.246      861.281
10/14/2014  00:10:00       17.901      -22.794       -4.376       11.577       23.002       14.808      134.036      529.079      219.262        0.087        0.044       28.983       13.410        0.214      340.929       15.290      861.294
10/14/2014  00:11:00      -29.326      -30.516        1.170       45.657       32.980       18.565     2084.593     1087.669      344.651        0.265        0.176       42.323       26.610        0.395      340.661       14.835      861.316
10/14/2014  00:12:00      -63.596      -13.347      -14.675       26.827       18.875        5.386      719.697      356.274       29.012        0.277        0.055       64.981        5.755        0.008      340.931       15.295      861.331
10/14/2014  00:13:00      -41.520       37.401       -8.553       17.779       10.616        4.852      316.092      112.696       23.543        0.182        0.023       55.882        8.110        0.021      342.375       17.741      861.304
10/14/2014  00:14:00      -45.691       52.088      -16.146       13.374       13.170        7.052      178.864      173.446       49.735        0.273        0.020       69.288        7.418        0.011      342.075       17.232      861.271
10/14/2014  00:15:00      -52.420       92.095      -23.767        9.534       11.684        9.267       90.896      136.505       85.873        0.605        0.016      105.968        7.177        0.005      341.901       16.936      861.237
10/14/2014  00:16:00      -78.599       68.497      -17.723       11.335       44.745       10.354      128.493     2002.107      107.210        0.671        0.112      104.257       12.856        0.015      341.907       16.946      861.220
10/14/2014  00:17:00      -62.126      -28.408      -13.633        8.646       18.288        7.197       74.752      334.464       51.801        0.266        0.023       68.313        5.369        0.006      341.153       15.669      861.207
10/14/2014  00:18:00      -32.010       -0.439       -8.801       21.915       24.424        7.536      480.272      596.550       56.797        0.112        0.057       32.013        7.446        0.054      342.084       17.248      861.202
10/14/2014  00:19:00      -86.788      -25.958      -10.156       33.339       16.704       12.584     1111.470      279.017      158.351        0.493        0.077       90.587       16.156        0.032      341.088       15.558      861.188
10/14/2014  00:20:00      -48.420        7.312      -11.728       25.449       11.707        9.174      647.629      137.051       84.169        0.170        0.043       48.969        9.225        0.035      340.919       15.272      861.178
10/14/2014  00:21:00       39.342       10.004        0.079       14.048       19.454        6.828      197.338      378.457       46.622        0.114        0.031       40.594        4.867        0.014      342.219       17.475      861.171
10/14/2014  00:22:00      -60.895      -13.087       -1.128       51.545       15.882       15.164     2656.934      252.251      229.934        0.351        0.157       62.285       21.445        0.119      341.025       15.453      861.171
10/14/2014  00:23:00      -45.948      -14.795       -4.267       27.458       13.690        9.857      753.931      187.403       97.158        0.169        0.052       48.271       10.425        0.047      341.256       15.843      861.160
10/14/2014  00:24:00     -105.513       -8.174      -20.462       16.808       12.004       11.709      282.520      144.098      137.108        0.609        0.028      105.829        8.805        0.007      340.611       14.751      861.164
10/14/2014  00:25:00      -54.116       21.453       -2.129       19.355       12.351        8.669      374.608      152.537       75.155        0.200        0.030       58.213        9.865        0.029      341.995       17.095      861.174
10/14/2014  00:26:00      -20.313       -6.109       -4.442       17.651       18.807        6.674      311.558      353.694       44.536        0.059        0.035       21.211        8.317        0.154      342.630       18.175      861.171
10/14/2014  00:27:00      -96.520      -16.495      -13.284       64.953       50.393       24.203     4218.864     2539.467      585.798        0.855        0.367       97.919       31.157        0.101      341.545       16.336      861.166
10/14/2014  00:28:00       -5.757       24.669       -3.517       51.360       18.827       15.823     2637.853      354.474      250.368        0.195        0.162       25.332       23.459        0.858      342.006       17.114      861.171
10/14/2014  00:29:00        7.972      -43.108        3.723       37.132       30.200       24.577     1378.758      912.020      604.053        0.241        0.145       43.839       18.472        0.178      340.798       15.068      861.166
10/14/2014  00:30:00        8.524      -53.437       -2.169       29.279       43.955       19.455      857.232     1932.057      378.508        0.305        0.158       54.113       22.558        0.174      340.755       14.994      861.173
10/14/2014  00:31:00     -131.765      -44.007       -1.314       64.241       32.199       23.391     4126.867     1036.785      547.119        1.250        0.286      138.919       13.451        0.009      340.655       14.825      861.183
10/14/2014  00:32:00      -15.713      -57.418       -7.551       19.588       22.340        9.718      383.698      499.085       94.433        0.229        0.049       59.530        9.959        0.028      341.364       16.027      861.189
10/14/2014  00:33:00      -38.117     -116.901        2.332       20.092       27.535       15.131      403.693      758.181      228.957        0.826        0.070      122.959        9.144        0.006      342.109       17.290      861.179
10/14/2014  00:34:00      -71.945      -79.752       -9.062       32.231       57.013       20.343     1038.807     3250.436      413.826        0.816        0.235      107.408       23.787        0.049      342.094       17.264      861.165
10/14/2014  00:35:00      -26.649      -55.644        1.518       18.485       54.770       10.735      341.692     2999.746      115.244        0.363        0.173       61.696        6.809        0.012      341.735       16.657      861.175
10/14/2014  00:36:00      -41.076     -136.851       -2.126       25.738       30.124       16.918      662.420      907.453      286.221        1.114        0.093      142.883       14.883        0.011      342.385       17.758      861.195
10/14/2014  00:37:00      -27.379      -99.172       -0.599       34.792       45.114       26.244     1210.450     2035.295      688.731        0.726        0.197      102.882       16.987        0.027      342.122       17.312      861.194
10/14/2014  00:38:00      -68.392      -86.075       -3.826       17.901       33.581       16.745      320.447     1127.657      280.383        0.691        0.086      109.938        8.384        0.006      342.048       17.186      861.198
10/14/2014  00:39:00       -1.530      -22.430       12.985       25.144       19.433       16.402      632.220      377.625      269.027        0.098        0.064       22.482       10.764        0.229      341.641       16.495      861.189
10/14/2014  00:40:00       33.096      -35.167        5.137       28.293       38.986       21.869      800.479     1519.912      478.271        0.258        0.140       48.291       22.794        0.223      341.670       16.543      861.203
10/14/2014  00:41:00       54.609      -68.549       -7.817       23.419       36.391       22.520      548.438     1324.289      507.158        0.506        0.119       87.642       20.175        0.053      342.111       17.292      861.195
10/14/2014  00:42:00       -3.311      -51.586       -6.289       53.887       19.894       13.457     2903.815      395.767      181.086        0.310        0.174       51.692       14.231        0.076      342.114       17.297      861.196
10/14/2014  00:43:00      -68.513       10.044       -7.682       15.644       32.888       15.299      244.740     1081.613      234.064        0.321        0.078       69.245       11.740        0.029      341.366       16.029      861.198
10/14/2014  00:44:00      -73.429      -23.602       -7.394       18.304       14.984       10.742      335.043      224.528      115.393        0.334        0.034       77.129        5.972        0.006      341.317       15.945      861.208
10/14/2014  00:45:00      -65.121      -36.113       -5.623       20.908       22.426       11.241      437.159      502.929      126.361        0.332        0.053       74.464       11.114        0.022      341.233       15.804      861.223
10/14/2014  00:46:00      -40.155      -27.521       -1.045       15.457       32.534       14.302      238.926     1058.483      204.541        0.194        0.075       48.681        9.660        0.039      341.787       16.742      861.223
10/14/2014  00:47:00     -106.302      -21.581      -11.587       18.705       13.606        7.763      349.895      185.126       60.260        0.625        0.030      108.470        3.854        0.001      341.579       16.388      861.240
10/14/2014  00:48:00      -84.655      -21.178       -8.963       28.461       14.883       12.394      810.042      221.509      153.615        0.444        0.059       87.264       15.140        0.030      341.196       15.741      861.254
10/14/2014  00:49:00      -94.867      -12.581      -13.739       29.594        9.328        6.874      875.794       87.009       47.247        0.518        0.051       95.698        3.464        0.001      341.396       16.081      861.242
10/14/2014  00:50:00     -104.305      -12.045      -18.457       36.485       13.669        9.897     1331.128      186.854       97.952        0.649        0.081      104.998       11.521        0.012      341.554       16.347      861.224
10/14/2014  00:51:00     -103.625      -31.532       -9.072       22.391       13.353       10.324      501.363      178.312      106.592        0.630        0.039      108.316        8.534        0.006      341.370       16.035      861.233
10/14/2014  00:52:00      -71.031      -18.441       -9.621       29.555       19.793        9.211      873.488      391.772       84.836        0.341        0.068       73.386        5.578        0.006      341.723       16.635      861.243
10/14/2014  00:53:00      -59.229      -18.681      -10.686       16.680        9.429        8.840      278.216       88.908       78.146        0.221        0.022       62.105        7.548        0.015      342.193       17.431      861.227
10/14/2014  00:54:00      -42.123      -24.419       -8.958       18.422       17.866        5.895      339.379      319.202       34.756        0.157        0.035       48.689        4.842        0.010      342.044       17.180      861.208
10/14/2014  00:55:00       29.013      -13.900        9.299       15.121       39.620       11.571      228.634     1569.705      133.880        0.153        0.097       32.171       15.682        0.238      342.560       18.056      861.184
10/14/2014  00:56:00       46.866       44.715       -8.106       14.304       21.035       12.233      204.600      442.452      149.656        0.253        0.040       64.776        5.875        0.008      341.961       17.037      861.181
10/14/2014  00:57:00       52.516       45.715        1.841       11.004       11.114        9.195      121.096      123.512       84.555        0.259        0.016       69.626        5.630        0.007      342.353       17.704      861.173
10/14/2014  00:58:00       43.033       61.729       -5.580       10.732        8.790        8.287      115.174       77.259       68.673        0.298        0.013       75.248        7.786        0.011      342.732       18.348      861.177
10/14/2014  00:59:00      -20.746       67.798      -13.180       28.115       10.648        7.721      790.472      113.384       59.620        0.308        0.048       70.901       10.484        0.022      342.577       18.085      861.190
10/14/2014  01:00:00      -38.148       42.966       -4.339        9.379       32.060       12.990       87.967     1027.832      168.740        0.230        0.064       57.457       16.450        0.082      342.374       17.740      861.211
10/14/2014  01:01:00      -45.322      -56.240      -13.735       19.158       18.041       13.408      367.028      325.481      179.776        0.314        0.044       72.229       11.665        0.026      341.251       15.835      861.239
10/14/2014  01:02:00      -73.257      -21.839      -16.512        8.569        9.101        5.315       73.420       82.822       28.251        0.315        0.009       76.443        2.440        0.001      342.338       17.678      861.248
10/14/2014  01:03:00      -11.472       -2.993       -1.732       18.682       13.977        7.991      349.025      195.370       63.854        0.038        0.030       11.856       12.064        1.035      343.117       19.000      861.229
10/14/2014  01:04:00        0.795       19.049        5.675        8.181       14.060        8.538       66.926      197.671       72.892        0.037        0.017       19.065        5.764        0.091      343.222       19.183      861.193
10/14/2014  01:05:00       -7.227       39.324        6.417       12.339       24.519       10.179      152.262      601.206      103.608        0.125        0.043       39.983        9.681        0.059      342.697       18.290      861.173
10/14/2014  01:06:00        1.546       40.415       -3.746       10.422       13.683        9.770      108.624      187.228       95.455        0.102        0.020       40.445        8.236        0.041      342.836       18.524      861.176
10/14/2014  01:07:00        9.835      -51.254       -8.169       33.251       61.780       19.292     1105.617     3816.791      372.184        0.404        0.265       52.189       23.576        0.204      341.999       17.103      861.207
10/14/2014  01:08:00      -74.865      -61.788       -9.457      110.690       43.980       21.329    12252.182     1934.271      454.943        1.207        0.732       97.070       23.889        0.061      341.162       15.682      861.227
10/14/2014  01:09:00      -70.457      -50.474        3.932       38.188       40.121       23.258     1458.306     1609.718      540.921        0.557        0.180       86.671       15.086        0.030      341.072       15.531      861.232
10/14/2014  01:10:00      -51.439       -9.793        1.928       14.376       15.842        9.217      206.665      250.984       84.962        0.164        0.027       52.363        7.745        0.022      341.287       15.895      861.208
10/14/2014  01:11:00      -24.827       21.218       -1.493       19.207       11.798        7.838      368.898      139.197       61.432        0.082        0.028       32.659        6.221        0.036      342.794       18.453      861.187
10/14/2014  01:12:00       27.038       -1.216        0.672       36.506       23.684       15.829     1332.682      560.916      250.571        0.144        0.107       27.065       16.771        0.384      342.439       17.851      861.191
10/14/2014  01:13:00       66.960      -89.227       -3.393       45.474       84.081       39.041     2067.846     7069.673     1524.190        1.156        0.533      111.558       49.446        0.196      340.772       15.023      861.219
10/14/2014  01:14:00      -48.375        0.222       -1.085       34.286       23.559       17.628     1175.532      555.008      310.761        0.219        0.102       48.376       18.587        0.148      341.058       15.508      861.191
10/14/2014  01:15:00       35.414       33.198        5.488       20.084       19.709       17.743      403.364      388.461      314.820        0.175        0.055       48.541       12.644        0.068      341.146       15.655      861.127
10/14/2014  01:16:00       81.346       26.416        0.214       12.493        9.368        7.484      156.069       87.754       56.015        0.381        0.015       85.528        5.727        0.004      341.470       16.205      861.099
10/14/2014  01:17:00       82.532       31.799        7.685       13.252        7.385        8.680      175.617       54.534       75.339        0.409        0.015       88.446        6.065        0.005      341.442       16.157      861.088
10/14/2014  01:18:00       58.431       31.416       23.363       25.148       31.667       27.325      632.408     1002.794      746.637        0.366        0.119       66.341       24.911        0.141      340.948       15.320      861.087
10/14/2014  01:19:00       32.736       38.877       44.582       24.452       22.376       18.336      597.917      500.670      336.207        0.300        0.072       50.824       16.940        0.111      340.790       15.055      861.095
10/14/2014  01:20:00       34.158        7.127       26.448       26.014       24.167       18.012      676.726      584.060      324.423        0.175        0.079       34.894       17.145        0.241      340.678       14.863      861.085
10/14/2014  01:21:00       -6.584      -26.470        0.243       17.239       24.576       10.892      297.187      603.998      118.641        0.088        0.051       27.277        7.428        0.074      340.966       15.351      861.081
10/14/2014  01:22:00        0.138       -1.107       -5.130        8.308        7.676        5.489       69.027       58.921       30.124        0.009        0.008        1.116        5.126       21.103      341.051       15.496      861.092
10/14/2014  01:23:00       78.081       50.841       19.145       32.188       24.235       13.275     1036.039      587.317      176.224        0.542        0.090       93.175       15.017        0.026      341.266       15.860      861.060
10/14/2014  01:24:00      101.052       63.704       29.390       37.038       35.008       32.452     1371.830     1225.534     1053.112        0.939        0.183      119.456       21.956        0.034      341.180       15.715      861.025
10/14/2014  01:25:00       30.281       88.408       85.245       47.790       42.205       25.119     2283.892     1781.238      630.953        1.035        0.235       93.451       26.324        0.079      340.852       15.158      861.065
10/14/2014  01:26:00        0.489      -17.905       22.940       19.222       45.710       26.874      369.494     2089.397      722.235        0.201        0.159       17.912       29.632        2.737      340.710       14.919      861.112
10/14/2014  01:27:00      -32.074      -22.615       -0.091       12.162       10.913        8.554      147.903      119.098       73.165        0.094        0.017       39.245        5.072        0.017      340.819       15.103      861.126
10/14/2014  01:28:00       17.757        5.170       -1.921       26.766       34.241       13.954      716.415     1172.431      194.712        0.121        0.104       18.494       17.795        0.926      341.101       15.581      861.093
10/14/2014  01:29:00      112.545       73.666       20.765       29.123       17.496       15.582      848.142      306.108      242.795        0.996        0.070      134.511       15.097        0.013      341.719       16.627      861.012
10/14/2014  01:30:00      201.507      103.860       19.440       66.088       42.773       33.694     4367.680     1829.547     1135.279        2.955        0.367      226.698       35.365        0.024      341.130       15.627      860.939
10/14/2014  01:31:00      135.451       70.443        4.373       79.439       46.855       37.317     6310.488     2195.388     1392.586        1.661        0.495      152.673       24.569        0.026      340.742       14.971      860.956
10/14/2014  01:32:00       41.272       68.961       -1.007       48.516       38.586       38.759     2353.822     1488.914     1502.245        0.590        0.267       80.368       31.467        0.153      340.694       14.892      860.972
10/14/2014  01:33:00        5.376      135.880      -12.358       30.497       36.571       24.932      930.061     1337.421      621.621        1.077        0.144      135.986       21.717        0.026      340.595       14.724      860.982
10/14/2014  01:34:00       -0.450       97.597      -12.558       27.565       59.279       22.581      759.850     3513.966      509.906        0.723        0.239       97.598       26.320        0.073      340.585       14.707      860.977
10/14/2014  01:35:00      -10.357      -54.277       -2.989       26.450       30.534       21.301      699.592      932.327      453.715        0.257        0.104       55.256       14.175        0.066      340.519       14.595      861.009
10/14/2014  01:36:00      -44.396       10.646      -10.663       30.678       35.739       14.122      941.111     1277.288      199.420        0.231        0.121       45.655        8.810        0.037      340.695       14.893      861.024
10/14/2014  01:37:00      -17.901       55.203       -9.240       27.331       19.834       15.653      747.010      393.393      245.025        0.242        0.069       58.033        8.747        0.023      341.028       15.458      861.016
10/14/2014  01:38:00       18.439       40.789        0.228       13.898       16.171        9.548      193.154      261.513       91.170        0.127        0.027       44.763        8.233        0.034      340.989       15.390      861.017
10/14/2014  01:39:00       10.509      102.095      -12.817       17.485       37.530       16.326      305.737     1408.477      266.546        0.634        0.099      102.635       21.423        0.044      341.095       15.570      860.995
10/14/2014  01:40:00      -48.093       77.892      -16.057       23.760       54.285       15.750      564.531     2946.907      248.077        0.620        0.188       91.543       21.930        0.057      341.037       15.473      860.978
10/14/2014  01:41:00      -26.571        2.710       -7.503       15.662       25.813       10.362      245.296      666.306      107.361        0.089        0.051       26.709        2.969        0.012      340.921       15.275      860.985
10/14/2014  01:42:00       35.535       15.688        8.405       25.540       22.542       19.764      652.298      508.136      390.610        0.157        0.078       38.844       15.373        0.157      341.097       15.573      860.984
10/14/2014  01:43:00       69.969       49.860       18.281       29.320       41.959       37.775      859.670     1760.589     1426.953        0.588        0.202       85.917       26.565        0.096      341.111       15.597      860.981
10/14/2014  01:44:00       97.441       75.043       11.034       46.416       31.312       25.685     2154.465      980.424      659.730        0.952        0.190      122.989       16.301        0.018      341.146       15.657      860.978
10/14/2014  01:45:00      191.903       89.786       31.491       60.677       42.227       37.173     3681.757     1783.148     1381.814        2.636        0.342      211.869       30.732        0.021      341.166       15.686      860.928
10/14/2014  01:46:00      100.329       43.202       36.082       85.706       56.342       42.474     7345.585     3174.410     1804.022        1.278        0.616      109.235       36.607        0.112      341.111       15.596      860.953
10/14/2014  01:47:00       43.862      -47.210       11.299       41.756       44.682       40.665     1743.575     1996.470     1653.667        0.484        0.270       64.441       37.868        0.345      340.753       14.992      860.996
10/14/2014  01:48:00       23.130      -60.600        3.639       23.585       23.448       19.683      556.262      549.796      387.411        0.286        0.075       64.864       13.942        0.046      340.938       15.304      861.005
10/14/2014  01:49:00      -48.032      -28.968       -9.962       40.431       28.396       12.866     1634.682      806.344      165.527        0.293        0.130       56.091       17.477        0.097      340.977       15.369      861.016
10/14/2014  01:50:00      -90.896      -28.081      -18.976       13.064       23.191        9.471      170.675      537.833       89.705        0.510        0.040       95.135        8.643        0.008      341.090       15.561      861.032
10/14/2014  01:51:00      -77.865       21.452      -12.847       25.297       17.273        8.587      639.952      298.358       73.735        0.385        0.051       80.765        5.204        0.004      341.153       15.668      861.017
10/14/2014  01:52:00       48.117       50.273        6.291       35.693       20.696       21.392     1274.012      428.308      457.613        0.352        0.108       69.589       13.980        0.040      341.265       15.858      860.976
10/14/2014  01:53:00       84.630      104.679        1.737       48.274       44.686       36.179     2330.341     1996.797     1308.946        1.188        0.282      134.611       30.417        0.051      341.368       16.032      860.894
10/14/2014  01:54:00      119.942       89.783       15.684       51.364       33.958       39.203     2638.228     1153.127     1536.851        1.401        0.266      149.823       24.428        0.027      341.407       16.098      860.857
10/14/2014  01:55:00      135.367       57.035       13.332       46.719       45.912       31.616     2182.699     2107.949      999.596        1.352        0.265      146.892       17.638        0.014      341.170       15.697      860.860
10/14/2014  01:56:00      153.011       71.587       13.860       55.034       41.456       33.922     3028.740     1718.640     1150.712        1.731        0.295      168.929       25.655        0.023      341.340       15.984      860.872
10/14/2014  01:57:00      168.945       80.154       11.354       62.682       40.475       33.907     3929.046     1638.187     1149.704        2.091        0.336      186.995       17.046        0.008      341.386       16.062      860.876
10/14/2014  01:58:00      139.268       70.635       20.577       51.639       43.299       32.489     2666.577     1874.810     1055.557        1.520        0.280      156.157       23.308        0.022      341.412       16.106      860.873
10/14/2014  01:59:00      121.408       74.524       37.459       34.371       28.520       28.564     1181.362      813.414      815.906        1.225        0.141      142.456       15.892        0.012      341.405       16.093      860.856
10/14/2014  02:00:00      137.918       78.197       43.392       55.951       36.811       34.692     3130.544     1355.037     1203.521        1.635        0.284      158.544       19.701        0.015      341.252       15.837      860.813
10/14/2014  02:01:00      159.955      121.044       17.233       31.757       29.171       20.924     1008.480      850.975      437.812        2.142        0.115      200.592        6.737        0.001      341.489       16.236      860.772
10/14/2014  02:02:00      147.339       82.909       39.870       70.095       34.618       29.827     4913.353     1198.440      889.674        1.859        0.350      169.064       19.587        0.013      341.818       16.792      860.790
10/14/2014  02:03:00       92.913       48.894       18.278       48.916       27.699       24.994     2392.743      767.257      624.692        0.757        0.189      104.992       24.963        0.057      341.367       16.030      860.821
10/14/2014  02:04:00       48.683       37.581        8.441       42.648       34.181       25.600     1818.815     1168.322      655.380        0.375        0.182       61.501       23.171        0.142      341.305       15.925      860.779
10/14/2014  02:05:00       -2.586       -6.825        1.680       50.495       29.893       17.834     2549.774      893.608      318.068        0.191        0.188        7.299       20.906        8.204      341.254       15.839      860.796
10/14/2014  02:06:00     -111.405      -66.275      -20.781       28.774       44.311       17.853      827.954     1963.434      318.733        1.017        0.156      129.628       16.504        0.016      341.069       15.527      860.833
10/14/2014  02:07:00      -95.639      -87.129       -5.138       76.857       63.431       38.156     5907.000     4023.511     1455.853        1.407        0.569      129.377       44.511        0.118      341.253       15.836      860.849
10/14/2014  02:08:00     -138.858      -67.166       -4.630       59.535       34.171       19.743     3544.472     1167.630      389.779        1.446        0.255      154.249       19.730        0.016      341.619       16.457      860.827
10/14/2014  02:09:00      -39.451        7.260       -0.613       30.281       18.524       13.325      916.968      343.137      177.561        0.152        0.072       40.113       15.565        0.151      341.486       16.231      860.767
10/14/2014  02:10:00      -69.337       41.706      -12.727       24.289       22.794       14.172      589.965      519.566      200.837        0.401        0.066       80.914       13.653        0.028      341.757       16.691      860.724
10/14/2014  02:11:00     -132.035      -27.510      -19.332       21.429       31.230       14.835      459.211      975.301      220.073        1.011        0.083      134.871       15.945        0.014      341.977       17.064      860.713
10/14/2014  02:12:00     -119.296      -63.589       -6.657       37.265       21.991       17.289     1388.700      483.616      298.900        1.024        0.109      135.186       14.417        0.011      341.434       16.143      860.723
10/14/2014  02:13:00     -154.962      -35.859      -12.088       40.666       41.050       23.431     1653.685     1685.124      548.992        1.467        0.194      159.057       23.191        0.021      341.172       15.702      860.735
10/14/2014  02:14:00     -152.823       -4.850      -18.298       40.519       24.382       21.273     1641.780      594.476      452.556        1.320        0.134      152.900       21.754        0.020      341.134       15.637      860.767
10/14/2014  02:15:00     -138.746      -12.458      -16.090       29.975       21.165       16.021      898.476      447.972      256.684        1.063        0.080      139.304       16.112        0.013      341.078       15.542      860.774
10/14/2014  02:16:00     -107.230       -5.288      -11.511       18.859       15.782       10.518      355.666      249.069      110.635        0.619        0.036      107.361        5.209        0.002      341.638       16.490      860.780
10/14/2014  02:17:00     -113.521       34.935      -15.644       16.429       16.818       12.630      269.898      282.862      159.525        0.753        0.036      118.775        7.810        0.004      342.160       17.374      860.758
10/14/2014  02:18:00      -75.745       84.526      -24.245       39.866       23.934       16.442     1589.302      572.845      270.338        0.795        0.122      113.499       14.038        0.015      342.837       18.526      860.701
10/14/2014  02:19:00       25.144       38.226        5.203       44.649       25.114       20.119     1993.535      630.699      404.757        0.257        0.151       45.754       12.182        0.071      342.483       17.924      860.722
10/14/2014  02:20:00       69.047        4.149       32.215       47.408       32.353       35.613     2247.476     1046.710     1268.310        0.519        0.228       69.172       32.017        0.214      341.081       15.545      860.703
10/14/2014  02:21:00       36.332       -9.105       30.314       37.427       34.299       29.374     1400.751     1176.403      862.809        0.288        0.172       37.455       24.273        0.420      340.754       14.992      860.678
10/14/2014  02:22:00       28.685       14.857       25.180       26.205       43.608       28.626      686.689     1901.624      819.457        0.254        0.170       32.304       26.091        0.652      340.847       15.149      860.679
10/14/2014  02:23:00        9.809       17.712       20.605       20.575       16.193       12.855      423.317      262.227      165.244        0.084        0.043       20.246       12.179        0.362      341.101       15.579      860.704
10/14/2014  02:24:00        8.102       15.031       33.220       20.505       25.934       15.328      420.439      672.575      234.949        0.136        0.066       17.076       17.059        0.998      341.068       15.524      860.719
10/14/2014  02:25:00      -12.402       -4.403       15.806       27.273       28.789       25.647      743.815      828.804      657.747        0.133        0.112       13.160       25.446        3.739      341.397       16.082      860.672
10/14/2014  02:26:00        0.605        3.938       -3.797       23.901       30.265       18.742      571.256      915.981      351.267        0.093        0.092        3.984       15.582       15.294      341.355       16.009      860.620
10/14/2014  02:27:00      -49.288        7.685       -5.884       17.570       13.875       13.909      308.701      192.511      193.456        0.161        0.035       49.884       11.890        0.057      341.331       15.970      860.561
10/14/2014  02:28:00      -82.696      -40.212      -10.937       19.011       13.826       10.910      361.434      191.169      119.024        0.462        0.034       91.954        8.850        0.009      341.068       15.525      860.578
10/14/2014  02:29:00     -121.640      -81.483       -6.961       51.116       28.601       23.819     2612.849      818.031      567.367        1.274        0.200      146.410       22.564        0.024      340.800       15.070      860.616
10/14/2014  02:30:00      -99.406      -53.377        0.400       55.543       36.966       29.186     3085.065     1366.467      851.804        0.902        0.265      112.830       31.434        0.078      341.300       15.915      860.654
10/14/2014  02:31:00     -109.342      -32.649       -4.937       38.493       22.235       19.802     1481.695      494.381      392.117        0.771        0.118      114.112       21.762        0.036      341.447       16.166      860.647
10/14/2014  02:32:00      -95.065      -47.169       -2.453       30.292       30.266       12.774      917.612      916.047      163.185        0.663        0.100      106.124       15.988        0.023      341.285       15.893      860.666
10/14/2014  02:33:00      -48.511       11.781       -4.567       23.256       17.305       10.386      540.854      299.448      107.877        0.173        0.047       49.921        7.052        0.020      341.172       15.700      860.628
10/14/2014  02:34:00       10.839       81.169       -8.433       41.890       45.292       24.889     1754.813     2051.338      619.471        0.560        0.221       81.889       21.302        0.068      341.651       16.511      860.546
10/14/2014  02:35:00       51.672       70.702       -0.103       53.108       55.031       33.312     2820.458     3028.457     1109.721        0.731        0.348       87.572       34.037        0.151      341.996       17.099      860.482
10/14/2014  02:36:00      -19.409      -31.255        5.694       15.445       34.288       22.973      238.545     1175.678      527.769        0.166        0.097       36.791       11.582        0.099      341.144       15.653      860.533
10/14/2014  02:37:00       -8.057       -9.603       10.047       16.546       16.199       15.459      273.774      262.423      238.984        0.052        0.039       12.535       12.562        1.004      341.117       15.607      860.537
10/14/2014  02:38:00      -83.423       11.697      -15.222       30.772       17.323       11.505      946.919      300.088      132.364        0.435        0.069       84.239       10.207        0.015      341.265       15.857      860.544
10/14/2014  02:39:00     -113.804      -45.802      -16.998       23.229       25.722       14.009      539.580      661.624      196.243        0.837        0.070      122.675        9.346        0.006      340.940       15.307      860.556
10/14/2014  02:40:00     -176.682      -48.985      -20.736       18.633       19.701       11.106      347.206      388.127      123.345        1.745        0.043      183.346        6.085        0.001      340.766       15.012      860.596
10/14/2014  02:41:00     -157.528      -19.653      -23.734       20.606       24.453       19.791      424.592      597.949      391.670        1.359        0.071      158.750       11.982        0.006      340.719       14.933      860.643
10/14/2014  02:42:00     -149.442      -57.888      -19.444       23.051       21.274       14.735      531.342      452.579      217.127        1.363        0.060      160.262        3.110        0.000      340.704       14.908      860.696
10/14/2014  02:43:00     -166.543      -75.063      -14.384       25.081       19.380       14.650      629.077      375.566      214.635        1.740        0.061      182.678        8.896        0.002      340.663       14.840      860.696
10/14/2014  02:44:00     -172.349      -36.445       -3.815       44.270       36.310       26.504     1959.870     1318.384      702.482        1.751        0.199      176.160       20.556        0.014      340.716       14.927      860.649
10/14/2014  02:45:00     -174.019      -41.376        1.678       50.894       42.042       30.838     2590.238     1767.527      950.965        1.865        0.265      178.870       24.452        0.019      340.846       15.148      860.652
10/14/2014  02:46:00     -133.154      -39.543       -2.136       48.349       40.118       28.097     2337.659     1609.425      789.463        1.202        0.237      138.902       23.984        0.030      340.968       15.353      860.671
10/14/2014  02:47:00      -78.960      -14.289        1.711       30.756       32.038       15.557      945.959     1026.432      242.035        0.433        0.111       80.243       15.431        0.037      340.909       15.254      860.689
10/14/2014  02:48:00        4.484       11.983       17.501       35.828       19.043       21.725     1283.662      362.652      471.962        0.129        0.106       12.795       18.982        2.201      340.392       14.380      860.650
10/14/2014  02:49:00       48.376      -13.934        3.134       47.251       23.968       26.188     2232.656      574.467      685.800        0.302        0.175       50.343       20.398        0.164      340.637       14.795      860.642
10/14/2014  02:50:00     -127.866      -59.606       -7.279       43.619       22.332       12.190     1902.624      498.724      148.604        1.125        0.127      141.076       11.673        0.007      341.145       15.654      860.714
10/14/2014  02:51:00      -32.564      -19.688        0.464       87.966       29.791       14.503     7738.095      887.516      210.336        0.514        0.442       38.052       19.236        0.256      340.677       14.862      860.727
10/14/2014  02:52:00      160.348       86.641        9.120       54.858       40.155       31.693     3009.432     1612.448     1004.466        1.946        0.281      182.258       22.186        0.015      340.675       14.859      860.559
10/14/2014  02:53:00       47.308       38.893       18.638       73.297       47.624       39.880     5372.424     2268.085     1590.412        0.666        0.462       61.243       26.313        0.185      341.151       15.666      860.526
10/14/2014  02:54:00     -136.731      -55.311       -8.255      107.854      130.165       57.729    11632.432    16942.961     3332.625        2.686        1.595      147.494       44.172        0.090      340.895       15.231      860.618
10/14/2014  02:55:00     -132.397     -100.107        4.499       85.981       63.672       43.093     7392.709     4054.101     1856.981        2.043        0.665      165.983       48.292        0.085      341.007       15.420      860.711
10/14/2014  02:56:00      -27.030       19.223       17.116       24.687       27.311       17.871      609.441      745.902      319.371        0.153        0.084       33.168       11.517        0.121      341.145       15.654      860.669
10/14/2014  02:57:00      -34.000       48.253        0.915       33.893       29.115       17.122     1148.718      847.662      293.178        0.289        0.114       59.029       12.876        0.048      341.400       16.086      860.596
10/14/2014  02:58:00       44.662       -0.990        8.927       20.860       43.248       14.998      435.134     1870.391      224.954        0.230        0.127       44.673       19.374        0.188      340.748       14.984      860.588
10/14/2014  02:59:00       29.646      -46.379       -3.802       21.330       14.453       10.587      454.987      208.882      112.077        0.191        0.039       55.045        6.431        0.014      340.672       14.855      860.614
10/14/2014  03:00:00      -47.834      -68.230       -3.647       27.732       22.370       13.054      769.037      500.431      170.398        0.420        0.072       83.327        9.680        0.013      341.573       16.379      860.615
10/14/2014  03:01:00      -32.508       12.553       -2.435       19.942       13.572        7.914      397.673      184.206       62.628        0.093        0.032       34.847        9.321        0.072      342.073       17.228      860.546
10/14/2014  03:02:00     -105.511       35.089       -7.193       28.617       18.688       10.132      818.957      349.256      102.656        0.684        0.064      111.193        6.608        0.004      341.937       16.998      860.499
10/14/2014  03:03:00      -78.515       89.515      -14.246       25.788       31.352       17.180      665.031      982.942      295.144        0.816        0.097      119.070       13.989        0.014      342.219       17.475      860.399
10/14/2014  03:04:00      -94.687       23.904      -11.036       28.821       23.819       16.369      830.635      567.360      267.960        0.566        0.083       97.658       12.455        0.016      341.792       16.751      860.425
10/14/2014  03:05:00     -147.516      -23.912      -17.413       38.690       42.782       12.412     1496.944     1830.276      154.051        1.306        0.174      149.441        6.770        0.002      340.996       15.403      860.456
10/14/2014  03:06:00     -153.207      -35.952       -5.504       58.839       41.987       22.499     3461.971     1762.943      506.186        1.526        0.287      157.369       16.851        0.011      340.615       14.757      860.516
10/14/2014  03:07:00      -83.759       -6.157        0.326       42.058       26.613       18.696     1768.875      708.275      349.533        0.494        0.141       83.985       22.099        0.069      340.633       14.788      860.534
10/14/2014  03:08:00      -98.389       86.341      -15.740       28.834       33.131        9.419      831.426     1097.671       88.717        0.970        0.101      130.901        9.352        0.005      341.376       16.045      860.412
10/14/2014  03:09:00      -16.171      109.947       -8.074       16.068       32.423       14.742      258.191     1051.248      217.316        0.697        0.076      111.130       18.803        0.029      341.353       16.007      860.310
10/14/2014  03:10:00       35.736      -20.962        3.811       33.614       38.259       25.653     1129.910     1463.753      658.098        0.249        0.163       41.430       21.389        0.267      340.589       14.714      860.350
10/14/2014  03:11:00       16.676       14.713       16.608       27.716       13.473       19.645      768.163      181.534      385.916        0.105        0.067       22.239       15.027        0.457      340.271       14.177      860.359
10/14/2014  03:12:00      -58.669        5.147       -7.556       16.415       21.746        7.145      269.466      472.883       51.050        0.216        0.040       58.894        8.702        0.022      340.635       14.792      860.385
10/14/2014  03:13:00      -18.781       38.882        2.471       21.666       20.186       14.731      469.399      407.489      216.996        0.148        0.055       43.180       13.581        0.099      340.697       14.895      860.321
10/14/2014  03:14:00     -111.414      -36.274      -14.266       35.206       48.485       20.311     1239.449     2350.752      412.544        0.897        0.200      117.171       19.036        0.026      340.878       15.203      860.377
10/14/2014  03:15:00     -129.150      -25.954       -3.926       40.487       41.717       18.603     1639.177     1740.279      346.053        1.055        0.186      131.732       17.210        0.017      340.432       14.449      860.405
10/14/2014  03:16:00     -139.064       27.476      -13.952       29.287       26.972       19.131      857.739      727.510      365.997        1.112        0.098      141.752       13.147        0.009      340.502       14.566      860.356
10/14/2014  03:17:00      -80.120        1.140      -12.451       33.205       35.593       20.442     1102.605     1266.860      417.875        0.468        0.139       80.129       11.585        0.021      340.599       14.730      860.340
10/14/2014  03:18:00     -117.073      -31.764      -12.755       27.494       26.488       18.254      755.907      701.601      333.222        0.833        0.090      121.306       10.939        0.008      340.741       14.971      860.327
10/14/2014  03:19:00     -184.270        6.959      -23.033       37.497       31.923       18.141     1406.001     1019.086      329.079        1.864        0.138      184.401       15.419        0.007      340.622       14.768      860.299
10/14/2014  03:20:00     -124.660        7.186      -21.897       40.311       37.502       20.090     1624.985     1406.371      403.606        0.975        0.172      124.866       14.314        0.013      340.494       14.553      860.284
10/14/2014  03:21:00     -121.107      -17.234      -18.720       36.175       32.820       18.624     1308.642     1077.165      346.845        0.902        0.137      122.327       15.958        0.017      340.424       14.433      860.266
10/14/2014  03:22:00     -123.072        2.683      -15.909       55.046       39.254       26.004     3030.100     1540.860      676.230        1.033        0.262      123.101       23.807        0.037      340.602       14.736      860.233
10/14/2014  03:23:00     -210.672       30.914      -28.475       89.393       55.536       31.596     7991.096     3084.201      998.314        2.911        0.604      212.928       32.691        0.024      340.489       14.543      860.259
10/14/2014  03:24:00     -175.157       30.655      -10.563       80.326       53.963       28.238     6452.284     2912.004      797.368        2.094        0.508      177.819       29.828        0.028      340.376       14.353      860.312
10/14/2014  03:25:00     -101.011       39.652        2.697       47.582       31.074       28.617     2264.084      965.614      818.945        0.792        0.202      108.515       19.736        0.033      340.626       14.777      860.334
10/14/2014  03:26:00      -40.049       14.088        9.488       45.780       20.932       17.734     2095.804      438.141      314.511        0.237        0.142       42.455       15.965        0.141      340.554       14.655      860.321
10/14/2014  03:27:00      -98.564      -30.130       -7.333       51.431       34.192       20.716     2645.102     1169.105      429.153        0.746        0.212      103.066       13.928        0.018      340.449       14.475      860.280
10/14/2014  03:28:00      -86.375       -8.406       -4.850       38.547       21.282       21.513     1485.862      452.913      462.801        0.498        0.120       86.783       20.456        0.056      340.320       14.258      860.237
10/14/2014  03:29:00      -94.234        0.443       -3.212       49.340       38.456       22.964     2434.477     1478.849      527.361        0.666        0.222       94.235       24.081        0.065      340.400       14.394      860.219
10/14/2014  03:30:00     -117.631       42.224       -5.586       54.497       39.748       26.993     2969.931     1579.901      728.611        1.046        0.264      124.979       26.449        0.045      340.396       14.387      860.255
10/14/2014  03:31:00      -30.771       57.221        9.022       55.213       47.157       30.194     3048.512     2223.825      911.665        0.524        0.309       64.970       24.028        0.137      340.493       14.551      860.234
10/14/2014  03:32:00       41.261       52.043       -0.801       36.786       21.183       22.465     1353.197      448.723      504.680        0.336        0.115       66.415       15.880        0.057      340.347       14.303      860.166
10/14/2014  03:33:00      -13.189       42.195      -14.537       28.349       20.587        8.703      803.640      423.824       75.734        0.173        0.065       44.208        9.611        0.047      340.326       14.269      860.180
10/14/2014  03:34:00      -31.853       47.422       -2.709       28.325       31.808       13.476      802.287     1011.728      181.604        0.263        0.100       57.127       14.431        0.064      340.544       14.639      860.188
10/14/2014  03:35:00     -112.425      -34.583      -24.943       31.882       26.082       16.634     1016.477      680.249      276.676        0.822        0.099      117.624       13.472        0.013      340.673       14.857      860.210
10/14/2014  03:36:00     -165.234      -45.625      -19.964       27.104       27.487       21.471      734.646      755.512      460.986        1.587        0.098      171.417        4.503        0.001      340.247       14.135      860.231
10/14/2014  03:37:00     -121.287      -48.667       -8.512       32.902       33.123       22.625     1082.526     1097.106      511.897        0.992        0.135      130.687       20.671        0.025      340.053       13.810      860.225
10/14/2014  03:38:00      -76.935       27.152        2.509       55.751       33.939       26.430     3108.150     1151.844      698.570        0.581        0.248       81.586        9.646        0.014      340.889       15.222      860.193
10/14/2014  03:39:00     -109.987       23.209       -9.461       42.072       24.261       15.560     1770.089      588.613      242.123        0.766        0.130      112.409       15.622        0.019      340.810       15.086      860.151
10/14/2014  03:40:00     -138.112       12.613      -16.088       63.197       40.291       31.564     3993.867     1623.353      996.256        1.305        0.331      138.687       29.895        0.046      340.820       15.103      860.145
10/14/2014  03:41:00     -193.563       88.437      -20.178       56.212       42.911       38.886     3159.779     1841.348     1512.145        2.610        0.326      212.809       33.111        0.024      340.849       15.150      860.145
10/14/2014  03:42:00     -135.053      -23.961       -7.475       46.544       46.761       27.874     2166.306     2186.567      776.963        1.200        0.256      137.162       23.619        0.030      340.759       15.001      860.200
10/14/2014  03:43:00     -160.247      -18.537       -5.545       54.740       48.116       32.545     2996.518     2315.148     1059.171        1.621        0.319      161.315       31.813        0.039      340.706       14.910      860.257
10/14/2014  03:44:00     -159.808       34.175      -19.001       42.372       31.674       18.273     1795.345     1003.264      333.914        1.510        0.157      163.421       17.132        0.011      340.576       14.693      860.231
10/14/2014  03:45:00     -116.276        6.122       -4.471       59.220       34.946       22.192     3506.958     1221.195      492.491        0.940        0.261      116.437       26.519        0.052      340.784       15.043      860.256
10/14/2014  03:46:00      -10.431      -23.273        2.670       26.428       25.595       17.783      698.418      655.096      316.238        0.116        0.083       25.504       12.196        0.229      340.676       14.861      860.278
10/14/2014  03:47:00      -15.256       12.163       10.261       26.512       29.073       18.613      702.869      845.236      346.458        0.119        0.095       19.511       11.167        0.328      340.547       14.643      860.231
10/14/2014  03:48:00       41.623       18.784        6.941       13.456       18.203       13.359      181.059      331.339      178.452        0.141        0.035       45.665        9.121        0.040      340.113       13.910      860.163
10/14/2014  03:49:00      -17.555       -8.989        6.180       31.453       18.023       12.649      989.303      324.843      159.988        0.095        0.074       19.722       14.930        0.573      340.396       14.389      860.166
10/14/2014  03:50:00     -112.678       -8.153      -17.508       30.457       28.838       18.929      927.613      831.638      358.298        0.759        0.106      112.972       19.075        0.029      340.669       14.850      860.212
10/14/2014  03:51:00     -151.913       13.300      -24.186       39.228       43.467       20.747     1538.863     1889.354      430.458        1.385        0.193      152.494       15.558        0.010      340.625       14.774      860.154
10/14/2014  03:52:00     -178.386      -26.579      -21.470       48.628       67.035       20.408     2364.702     4493.740      416.478        2.013        0.364      180.355       15.884        0.008      340.468       14.506      860.146
10/14/2014  03:53:00      -44.881       24.540        4.926       69.364       61.276       26.100     4811.422     3754.734      681.223        0.594        0.462       51.152       39.758        0.604      340.449       14.477      860.087
10/14/2014  03:54:00     -111.008       11.684       -9.577       45.895       35.818       25.595     2106.360     1282.954      655.114        0.830        0.202      111.621       23.730        0.045      340.578       14.696      860.086
10/14/2014  03:55:00     -106.671       88.011      -13.488       53.702       48.485       34.309     2883.868     2350.790     1177.117        1.286        0.321      138.292       34.427        0.062      340.656       14.828      860.096
10/14/2014  03:56:00     -115.075       59.715      -16.181       35.145       54.214       26.348     1235.205     2939.170      694.234        1.097        0.243      129.646       22.771        0.031      340.660       14.834      860.149
10/14/2014  03:57:00     -118.273      -44.945       -8.741       41.215       34.143       22.431     1698.713     1165.730      503.151        0.973        0.168      126.525       14.585        0.013      340.391       14.378      860.176
10/14/2014  03:58:00      -74.351        3.727       -4.560       30.521       21.169       18.774      931.535      448.138      352.480        0.365        0.087       74.444       16.593        0.050      340.257       14.151      860.136
10/14/2014  03:59:00      -35.847      -18.997        3.654       29.832       45.070       21.076      889.926     2031.334      444.196        0.251        0.168       40.570       18.125        0.200      340.433       14.450      860.135
10/14/2014  04:00:00      -81.981      -39.448       -9.670       35.716       25.019       20.451     1275.647      625.931      418.227        0.534        0.116       90.979       19.383        0.045      340.412       14.414      860.184
10/14/2014  04:01:00     -101.227      -35.650      -16.165       33.371       33.371       18.481     1113.625     1113.656      341.550        0.717        0.128      107.321       15.058        0.020      340.412       14.415      860.197
10/14/2014  04:02:00      -96.748      -36.352      -17.566       20.527       15.647       10.241      421.377      244.825      104.880        0.588        0.039      103.352        8.408        0.007      340.347       14.305      860.187
10/14/2014  04:03:00     -152.535      -63.055      -23.360       38.017       34.146       19.555     1445.281     1165.950      382.398        1.539        0.150      165.054       11.805        0.005      340.220       14.090      860.190
10/14/2014  04:04:00     -133.649      -11.660      -10.249       54.349       37.584       28.526     2953.810     1412.527      813.741        1.164        0.259      134.157       31.247        0.054      340.299       14.223      860.181
10/14/2014  04:05:00     -208.739       10.188      -17.985       46.843       40.412       29.449     2194.249     1633.103      867.245        2.435        0.235      208.988       25.788        0.015      340.409       14.406      860.150
10/14/2014  04:06:00     -142.742      -15.275       -5.402       64.545       40.664       26.839     4166.120     1653.566      720.316        1.359        0.327      143.557       32.113        0.050      340.317       14.252      860.171
10/14/2014  04:07:00      -87.366       20.688       -5.433       36.850       22.896       20.705     1357.901      524.245      428.701        0.520        0.116       89.782       19.486        0.047      340.423       14.432      860.171
10/14/2014  04:08:00     -151.226      -29.046      -23.022       50.657       38.248       20.591     2566.177     1462.887      424.004        1.435        0.223      153.991       22.253        0.021      340.276       14.184      860.157
10/14/2014  04:09:00     -203.843      -14.760      -19.410       96.988       67.815       41.351     9406.667     4598.928     1709.914        2.893        0.786      204.377       47.385        0.054      340.114       13.909      860.197
10/14/2014  04:10:00     -106.499       81.350      -13.617       47.422       46.020       28.572     2248.815     2117.806      816.353        1.166        0.259      134.014       21.215        0.025      340.606       14.743      860.131
10/14/2014  04:11:00      -96.990        4.187      -15.127       25.478       57.929       13.038      649.110     3355.818      170.001        0.691        0.209       97.080       10.785        0.012      340.493       14.552      860.079
10/14/2014  04:12:00     -113.272      -71.487      -12.092       47.641       39.516       29.332     2269.685     1561.521      860.390        1.139        0.235      133.944       25.003        0.035      340.137       13.950      860.100
10/14/2014  04:13:00      -56.702       -4.232       -7.142       32.342       28.487       22.253     1045.981      811.493      495.212        0.282        0.118       56.860       13.008        0.052      340.013       13.743      860.107
10/14/2014  04:14:00      -75.619      -15.498      -20.670       34.055       17.625       15.662     1159.764      310.636      245.309        0.405        0.086       77.191       14.061        0.033      340.130       13.938      860.110
10/14/2014  04:15:00      -78.291      -41.766       -6.609       44.796       31.050       32.174     2006.670      964.104     1035.139        0.596        0.200       88.735       34.081        0.148      340.050       13.802      860.160
10/14/2014  04:16:00      -69.533      -37.625       -8.024       28.426       23.377       18.673      808.022      546.497      348.673        0.401        0.085       79.060       13.348        0.029      340.027       13.763      860.183
10/14/2014  04:17:00     -109.137      -24.648       -9.920       43.260       29.994       19.047     1871.440      899.647      362.795        0.787        0.157      111.885       14.842        0.018      340.056       13.814      860.158
10/14/2014  04:18:00     -223.010      -14.773      -18.430       99.286       62.955       45.023     9857.703     3963.283     2027.038        3.307        0.792      223.498       49.694        0.049      340.106       13.894      860.148
10/14/2014  04:19:00     -175.434       16.684      -21.116       58.935       67.594       32.106     3473.316     4568.970     1030.789        2.029        0.454      176.225       13.691        0.006      340.178       14.018      860.122
10/14/2014  04:20:00     -111.424       -9.483      -16.000       36.476       48.329       26.975     1330.518     2335.649      727.651        0.858        0.220      111.827       14.180        0.016      340.471       14.513      860.130
10/14/2014  04:21:00      -94.251      -28.827       -5.370       50.826       54.615       26.433     2583.278     2982.763      698.708        0.800        0.313       98.561       22.813        0.054      340.368       14.339      860.162
10/14/2014  04:22:00     -140.877      -49.334       -7.371       57.483       41.490       22.909     3304.310     1721.396      524.834        1.394        0.278      149.266       21.625        0.021      340.106       13.898      860.195
10/14/2014  04:23:00      -23.585       -5.601        6.341       27.874       23.409       16.639      776.960      547.981      276.858        0.111        0.080       24.241       17.465        0.519      339.973       13.673      860.167
10/14/2014  04:24:00       38.786       -0.895       18.866       27.276       21.347       17.113      743.967      455.715      292.859        0.168        0.075       38.797       13.324        0.118      339.871       13.504      860.163
10/14/2014  04:25:00       50.138      -28.569       12.539       41.997       42.984       29.325     1763.790     1847.589      859.938        0.398        0.224       57.706       30.864        0.286      339.622       13.081      860.257
10/14/2014  04:26:00      -19.919       40.754       -3.064       26.112       19.844       24.069      681.857      393.774      579.302        0.186        0.083       45.362        9.393        0.043      339.869       13.498      860.205
10/14/2014  04:27:00      -84.109       44.289      -21.955       10.897       13.640        8.192      118.747      186.052       67.115        0.494        0.019       95.057        4.993        0.003      340.322       14.263      860.076
10/14/2014  04:28:00     -118.024        1.053      -20.752       24.013       41.442       11.468      576.609     1717.419      131.510        0.839        0.121      118.028        8.880        0.006      339.979       13.684      860.113
10/14/2014  04:29:00     -180.356      -97.839      -12.047       64.497       72.525       36.742     4159.851     5259.815     1350.006        2.651        0.538      205.184       28.724        0.020      339.855       13.470      860.264
10/14/2014  04:30:00     -211.456       32.291      -16.794       46.632       34.691       23.664     2174.499     1203.492      559.989        2.499        0.197      213.907       23.051        0.012      340.083       13.855      860.280
10/14/2014  04:31:00      -82.935       -5.084       -3.232       53.129       32.689       20.404     2822.726     1068.603      416.334        0.561        0.215       83.090       21.158        0.065      340.052       13.806      860.250
10/14/2014  04:32:00      -39.849      -36.410       -1.219       13.889       15.946        8.242      192.918      254.285       67.937        0.172        0.026       53.978        5.354        0.010      340.139       13.952      860.229
10/14/2014  04:33:00      -55.839       -0.566       -4.238       35.273       22.529        9.505     1244.192      507.553       90.353        0.249        0.092       55.841       16.499        0.087      340.325       14.267      860.184
10/14/2014  04:34:00      -81.485       27.840      -12.197       16.014       17.221        9.316      256.451      296.547       86.780        0.410        0.032       86.110        5.286        0.004      340.681       14.870      860.126
10/14/2014  04:35:00      -73.328      -24.021      -10.514        8.380       14.151        6.360       70.221      200.256       40.453        0.319        0.016       77.162        2.087        0.001      340.468       14.510      860.158
10/14/2014  04:36:00      -13.088      -12.617        2.266       31.208       13.722       14.118      973.936      188.294      199.315        0.085        0.068       18.180       18.521        1.038      340.327       14.272      860.168
10/14/2014  04:37:00       84.598      -47.355        7.440       30.689       25.474       26.680      941.843      648.904      711.840        0.588        0.115       96.950       17.498        0.033      339.951       13.637      860.214
10/14/2014  04:38:00      -24.024        0.234        6.754       14.254       27.188       25.866      203.164      739.214      669.035        0.112        0.081       24.025       19.719        0.674      340.109       13.903      860.162
10/14/2014  04:39:00      -70.690       -0.021       -6.702       15.964       22.534        8.825      254.865      507.797       77.887        0.294        0.042       70.690       10.933        0.024      340.397       14.390      860.161
10/14/2014  04:40:00     -168.928       55.375      -23.639       86.626       41.134       25.542     7504.003     1692.021      652.369        2.100        0.492      177.772       25.207        0.020      340.157       13.980      860.099
10/14/2014  04:41:00     -220.026      -41.344      -14.726       85.523       58.105       38.362     7314.250     3376.201     1471.627        3.125        0.608      223.877       36.357        0.026      339.798       13.376      860.168
10/14/2014  04:42:00     -204.219        0.730      -17.128       52.856       37.987       24.904     2793.748     1442.989      620.230        2.343        0.243      204.220       25.189        0.015      340.088       13.865      860.132
10/14/2014  04:43:00     -144.504        6.154      -13.631       56.234       39.585       26.106     3162.261     1566.935      681.522        1.326        0.271      144.635       24.253        0.028      340.244       14.131      860.158
10/14/2014  04:44:00     -120.912       64.460      -21.416       46.507       49.645       30.052     2162.913     2464.600      903.099        1.238        0.277      137.021       23.265        0.029      340.577       14.693      860.097
10/14/2014  04:45:00      -98.366       20.189      -15.745       36.667       57.270       22.392     1344.465     3279.873      501.395        0.773        0.256      100.416       13.264        0.017      340.910       15.257      860.078
10/14/2014  04:46:00      -60.315       -4.934        5.365      132.366       82.123       46.275    17520.640     6744.225     2141.384        1.504        1.320       60.516       51.736        0.731      340.496       14.555      860.194
10/14/2014  04:47:00      156.068     -194.758       -2.997      139.770      203.828       98.447    19535.541    41545.730     9691.726        6.652        3.539      249.575      126.243        0.256      340.138       13.948      860.167
10/14/2014  04:48:00      126.538     -137.595      -27.819       76.054      108.643       53.048     5784.282    11803.250     2814.096        2.806        1.020      186.934       56.351        0.091      340.562       14.666      860.221
10/14/2014  04:49:00       31.558       20.070       38.629       41.834       52.751       38.571     1750.103     2782.629     1487.746        0.445        0.301       37.399       36.688        0.962      339.869       13.496      860.162
10/14/2014  04:50:00        2.790       20.902        7.990       35.812       23.727       20.563     1282.495      562.958      422.833        0.139        0.113       21.087       14.130        0.449      340.133       13.943      860.075
10/14/2014  04:51:00     -201.397      -49.050      -13.134       71.380       63.467       33.747     5095.118     4028.065     1138.890        2.670        0.513      207.284       22.538        0.012      340.310       14.241      860.195
10/14/2014  04:52:00     -123.580       42.135      -13.409       87.496       50.564       26.764     7655.537     2556.736      716.338        1.408        0.546      130.565       27.998        0.046      340.392       14.380      860.196
10/14/2014  04:53:00      -38.999       96.003      -16.738       74.747       68.008       34.818     5587.081     4625.098     1212.302        1.122        0.571      103.621       28.528        0.076      341.397       16.080      860.092
10/14/2014  04:54:00      -13.396      -61.033        3.592       85.503       52.323       41.009     7310.752     2737.717     1681.767        0.782        0.587       62.486       36.158        0.335      340.860       15.172      860.223
10/14/2014  04:55:00      -46.577       -9.721      -17.735       63.466       64.994       27.140     4027.983     4224.184      736.580        0.578        0.449       47.581       28.599        0.361      341.054       15.501      860.203
10/14/2014  04:56:00       24.622      -77.103       -7.601       43.517       43.715       36.245     1893.733     1910.988     1313.686        0.586        0.256       80.938       23.508        0.084      340.832       15.124      860.245
10/14/2014  04:57:00      -23.780      -13.430       13.212       30.710       52.493       21.341      943.090     2755.552      455.439        0.254        0.208       27.310       12.353        0.205      340.668       14.846      860.170
10/14/2014  04:58:00      -69.601      -34.770       -1.202       62.393       31.431       17.409     3892.893      987.930      303.057        0.562        0.259       77.803       21.344        0.075      341.098       15.576      860.177
10/14/2014  04:59:00       23.057       84.248        6.211      105.607       71.133       39.424    11152.841     5059.903     1554.271        1.271        0.888       87.346       45.004        0.265      341.123       15.617      860.128
10/14/2014  05:00:00      -70.199      -44.216        4.579      100.708       89.630       49.060    10142.018     8033.562     2406.905        1.374        1.029       82.964       42.612        0.264      340.933       15.296      860.151
10/14/2014  05:01:00      -92.590      -40.197       -5.197       66.068       69.520       31.171     4364.937     4833.048      971.615        1.019        0.508      100.940       24.574        0.059      341.186       15.724      860.279
10/14/2014  05:02:00      -87.482      -17.338       -6.050       35.295       41.904       17.491     1245.723     1755.943      305.940        0.565        0.165       89.184       16.451        0.034      341.213       15.769      860.218
10/14/2014  05:03:00     -120.558       23.002      -11.333       57.992       31.638       12.501     3363.067     1000.932      156.282        0.986        0.226      122.733       12.890        0.011      340.946       15.317      860.197
10/14/2014  05:04:00      -12.772      102.679       -4.002       54.156       75.250       33.610     2932.870     5662.496     1129.625        1.022        0.486      103.470       23.078        0.050      341.018       15.440      860.033
10/14/2014  05:05:00     -141.315      -28.929      -20.187      129.039      105.741       45.688    16650.988    11181.127     2087.431        2.556        1.496      144.246       36.341        0.063      341.053       15.497      859.953
10/14/2014  05:06:00      -99.309      -25.291        2.844       67.029       58.386       34.250     4492.827     3408.959     1173.032        0.979        0.454      102.479       30.110        0.086      341.045       15.486      860.137
10/14/2014  05:07:00       35.485      -12.537       -5.401       39.783       31.405       37.372     1582.703      986.249     1396.656        0.270        0.198       37.635       18.448        0.240      340.843       15.145      860.178
10/14/2014  05:08:00     -170.952      -80.996       -9.425       84.125       38.874       25.245     7076.998     1511.216      637.292        2.255        0.461      189.169       14.817        0.006      340.890       15.221      860.130
10/14/2014  05:09:00     -135.408       15.944      -14.754       59.376       84.517       31.015     3525.543     7143.185      961.917        1.522        0.582      136.343       21.446        0.025      340.784       15.043      860.097
10/14/2014  05:10:00      -82.573      166.832      -12.465       62.507       73.359       33.657     3907.082     5381.475     1132.779        2.261        0.521      186.148       41.255        0.049      341.055       15.501      860.003
10/14/2014  05:11:00      -21.816      -90.268        2.140       74.481       73.230       33.924     5547.487     5362.703     1150.831        1.034        0.603       92.867       22.773        0.060      340.920       15.273      860.028
10/14/2014  05:12:00       15.713      -77.605       -4.138       61.888       70.415       42.514     3830.084     4958.311     1807.477        0.844        0.530       79.179       37.771        0.228      340.704       14.908      860.149
10/14/2014  05:13:00       33.800        3.102       38.846       65.945       75.823       62.874     4348.769     5749.116     3953.193        0.835        0.703       33.942       52.975        2.436      340.456       14.490      860.183
10/14/2014  05:14:00       65.713       -2.929       49.956       70.994       63.516       49.265     5040.149     4034.310     2427.023        0.916        0.575       65.779       53.335        0.657      340.182       14.024      860.202
10/14/2014  05:15:00       35.748        6.140       32.145       45.968       55.293       37.879     2113.096     3057.276     1434.819        0.448        0.330       36.272       30.217        0.694      340.196       14.049      860.205
10/14/2014  05:16:00      121.600       59.529       23.205       38.751       39.345       28.194     1501.635     1547.992      794.899        1.136        0.192      135.390       25.443        0.035      340.561       14.666      860.165
10/14/2014  05:17:00       -0.896      -33.155       -2.463       69.132       32.840       20.032     4779.234     1078.467      401.287        0.368        0.313       33.167       23.733        0.512      340.512       14.583      860.202
10/14/2014  05:18:00      -84.458       12.157      -16.520       29.925       18.837       20.008      895.515      354.824      400.335        0.460        0.083       85.329       20.749        0.059      340.458       14.493      860.244
10/14/2014  05:19:00       42.267      -16.241       -6.073       52.135       27.020       22.126     2718.064      730.072      489.567        0.301        0.197       45.280       14.103        0.097      340.306       14.236      860.251
10/14/2014  05:20:00       51.701        8.671       20.381       30.491       21.893       24.641      929.727      479.325      607.180        0.259        0.101       52.424       20.622        0.155      340.171       14.007      860.247
10/14/2014  05:21:00       39.980        2.798       -2.229       11.716       13.875        6.941      137.267      192.517       48.177        0.099        0.019       40.078        7.807        0.038      341.806       16.774      860.185
10/14/2014  05:22:00       21.178       12.246        1.404       12.564       14.013       12.631      157.843      196.371      159.531        0.056        0.026       24.464        7.156        0.086      341.359       16.019      860.152
10/14/2014  05:23:00       50.554      -30.412       14.016       30.477       20.285       22.910      928.863      411.480      524.855        0.277        0.093       58.997       15.383        0.068      340.821       15.107      860.178
10/14/2014  05:24:00       22.352      -40.186       -7.273       51.343       35.789       16.817     2636.053     1280.840      282.800        0.318        0.210       45.984       17.393        0.143      340.458       14.492      860.258
10/14/2014  05:25:00     -101.626       14.496      -11.130        9.778       11.868        5.519       95.610      140.839       30.457        0.546        0.013      102.655        3.776        0.001      340.726       14.946      860.269
10/14/2014  05:26:00     -102.039       16.409      -17.566       15.325        8.866        7.710      234.860       78.605       59.440        0.568        0.019      103.350        5.835        0.003      340.753       14.992      860.271
10/14/2014  05:27:00      -73.981       24.322      -15.642       21.911       13.302        8.668      480.092      176.952       75.132        0.352        0.037       77.877        5.708        0.005      340.688       14.882      860.271
10/14/2014  05:28:00      -21.831        4.036       -1.298       16.401       13.006        7.289      268.980      169.158       53.130        0.049        0.025       22.201        9.759        0.193      340.708       14.915      860.303
10/14/2014  05:29:00       25.431       29.001        9.004       19.929       23.827       20.734      397.179      567.741      429.897        0.148        0.070       38.572       16.359        0.180      340.471       14.514      860.252
10/14/2014  05:30:00      -20.316       58.182       -4.773       33.418       18.366       10.645     1116.737      337.310      113.319        0.269        0.078       61.627       11.866        0.037      341.410       16.104      860.212
10/14/2014  05:31:00      -31.792       31.764       -0.255       37.071       18.682       25.116     1374.224      349.024      630.837        0.219        0.118       44.941       28.578        0.404      341.106       15.590      860.253
10/14/2014  05:32:00       30.167       -4.285       18.954       20.847       40.630       25.933      434.603     1650.837      672.528        0.202        0.138       30.469       26.014        0.729      340.513       14.586      860.238
10/14/2014  05:33:00       52.290      -25.362        9.298       22.768       35.411       27.977      518.395     1253.931      782.735        0.301        0.128       58.116       27.179        0.219      340.170       14.006      860.283
10/14/2014  05:34:00       43.864      -29.471        0.911       51.642       86.722       32.265     2666.857     7520.729     1041.041        0.701        0.561       52.845       43.055        0.664      340.296       14.218      860.271
10/14/2014  05:35:00      -32.227      -27.754       -6.837       31.427       42.270       17.726      987.683     1786.733      314.207        0.247        0.154       42.531       18.077        0.181      340.542       14.635      860.275
10/14/2014  05:36:00      -76.963       44.916      -11.732       18.550       19.903       10.445      344.087      396.120      109.097        0.446        0.042       89.111        7.121        0.006      340.962       15.346      860.256
10/14/2014  05:37:00      -97.894       46.495      -19.669       13.681       15.196       12.043      187.159      230.914      145.025        0.635        0.028      108.374        6.455        0.004      341.121       15.614      860.187
10/14/2014  05:38:00     -131.266       53.114      -15.987       38.841       18.817       14.334     1508.604      354.067      205.471        1.119        0.103      141.604       11.259        0.006      340.768       15.017      860.178
10/14/2014  05:39:00       47.814        2.364       21.910       47.278       63.704       24.687     2235.197     4058.146      609.452        0.484        0.345       47.873       14.285        0.089      340.680       14.870      860.108
10/14/2014  05:40:00       18.979       20.019       23.381       49.785       61.905       42.053     2478.563     3832.272     1768.457        0.469        0.404       27.586       35.001        1.610      340.212       14.076      860.164
10/14/2014  05:41:00      -46.273       -8.555       -5.116       53.887       32.653       25.164     2903.788     1066.202      633.204        0.342        0.230       47.057       12.866        0.075      340.266       14.168      860.202
10/14/2014  05:42:00     -189.952      -17.111      -13.090       87.354       51.551       39.673     7630.774     2657.456     1573.922        2.420        0.593      190.722       44.022        0.053      340.291       14.205      860.245
10/14/2014  05:43:00      -34.981      -32.245       23.295       76.450       40.783       28.908     5844.548     1663.222      835.668        0.557        0.417       47.575       34.131        0.515      340.381       14.362      860.293
10/14/2014  05:44:00       38.309      -45.776       20.511       53.150       45.106       53.173     2824.904     2034.551     2827.342        0.583        0.384       59.691       40.775        0.467      340.031       13.772      860.252
10/14/2014  05:45:00       26.595       43.535        9.654       37.840       35.486       29.238     1431.876     1259.245      854.884        0.312        0.177       51.016       16.002        0.098      340.475       14.522      860.218
10/14/2014  05:46:00      -52.316       11.957      -10.084       29.395       50.498       21.384      864.047     2550.057      457.255        0.343        0.194       53.665       14.578        0.074      341.261       15.851      860.203
10/14/2014  05:47:00     -125.576     -119.795        5.605       96.528      112.702       58.157     9317.619    12701.837     3382.238        2.777        1.270      173.551       55.983        0.104      340.671       14.850      860.330
10/14/2014  05:48:00     -176.910     -125.813      -15.419      100.264       86.675       54.514    10052.884     7512.537     2971.813        3.395        1.027      217.085       49.867        0.053      341.049       15.490      860.360
10/14/2014  05:49:00      -54.896     -114.757       20.826       92.461      193.727       46.729     8548.992    37530.117     2183.556        3.243        2.413      127.211       30.335        0.057      342.627       18.172      860.238
10/14/2014  05:50:00     -281.234     -189.208       -4.510      149.335      117.394       67.582    22301.051    13781.424     4567.388        7.777        2.032      338.958       63.719        0.035      343.563       19.761      860.092
10/14/2014  05:51:00     -176.074      -85.870        5.401       88.128       83.462       47.875     7766.554     6965.906     2292.046        2.771        0.851      195.898       39.329        0.040      342.780       18.427      860.128
10/14/2014  05:52:00     -147.964     -137.620      -10.488       80.725       73.386       41.420     6516.528     5385.545     1715.617        2.728        0.681      202.071       37.993        0.035      342.209       17.455      860.146
10/14/2014  05:53:00     -143.902     -123.634      -14.004       48.112       79.303       33.335     2314.747     6288.938     1111.209        2.295        0.486      189.719       27.085        0.020      341.955       17.026      860.142
10/14/2014  05:54:00     -126.418      -94.716       -8.718       92.534       61.804       32.226     8562.608     3819.696     1038.501        1.922        0.671      157.964       32.028        0.041      341.757       16.691      860.183
10/14/2014  05:55:00      -43.467     -184.770       -1.956       74.287      143.833       45.217     5518.588    20688.056     2044.560        3.214        1.413      189.814       56.059        0.087      342.030       17.154      860.293
10/14/2014  05:56:00       29.515     -129.696       -4.640       87.737       87.239       55.900     7697.848     7610.605     3124.831        1.807        0.922      133.012       51.227        0.148      341.450       16.170      860.229
10/14/2014  05:57:00       49.800      -75.314        5.139       77.230       78.934       52.403     5964.477     6230.607     2746.062        1.156        0.747       90.290       40.384        0.200      341.379       16.051      860.261
10/14/2014  05:58:00      -36.582        5.683        0.409       38.358       33.031       23.273     1471.328     1091.075      541.641        0.224        0.155       37.021       22.012        0.354      341.350       16.003      860.169
10/14/2014  05:59:00      -10.823      -74.481        5.277       23.827       45.461       23.402      567.703     2066.692      547.667        0.444        0.159       75.264       21.642        0.083      341.485       16.229      860.142
10/14/2014  06:00:00       -3.537     -106.214        4.483       48.540       61.450       27.580     2356.122     3776.150      760.683        0.910        0.345      106.273       27.220        0.066      341.622       16.462      860.225
10/14/2014  06:01:00      -66.899      -27.493       -5.958       63.211       46.673       27.086     3995.652     2178.372      733.678        0.609        0.345       72.328       24.953        0.119      341.695       16.587      860.262
10/14/2014  06:02:00     -158.311      -44.005       -7.059       60.184       56.567       24.824     3622.133     3199.862      616.248        1.724        0.372      164.313       17.508        0.011      341.458       16.182      860.246
10/14/2014  06:03:00     -110.417      -22.884       -1.588       73.104       36.912       25.259     5344.176     1362.469      638.025        1.003        0.367      112.764       30.288        0.072      341.339       15.982      860.301
10/14/2014  06:04:00     -158.116      -21.549        0.686       58.756       67.179       32.628     3452.304     4513.035     1064.575        1.725        0.451      159.578       34.434        0.047      341.407       16.098      860.323
10/14/2014  06:05:00      -81.521      -79.295       14.552       83.170       88.771       36.193     6917.195     7880.273     1309.908        1.462        0.805      113.724       37.666        0.110      341.704       16.602      860.238
10/14/2014  06:06:00     -165.335     -118.290      -19.855      118.864       76.382       44.938    14128.634     5834.199     2019.415        3.185        1.099      203.293       53.922        0.070      342.371       17.732      860.137
10/14/2014  06:07:00      -61.220      -86.250       12.434       59.446      154.818       37.844     3533.878    23968.543     1432.142        2.013        1.447      105.768       45.936        0.189      342.419       17.813      860.101
10/14/2014  06:08:00     -112.649     -107.534       -4.735       84.909       57.995       41.098     7209.590     3363.428     1689.060        1.827        0.613      155.735       30.867        0.039      343.073       18.926      860.085
10/14/2014  06:09:00     -142.046      -90.654       10.913       87.808      103.668       44.857     7710.231    10747.047     2012.184        2.449        1.023      168.509       48.195        0.082      342.960       18.733      860.123
10/14/2014  06:10:00      106.210     -182.245        4.154      120.264       92.952       47.171    14463.415     8640.126     2225.102        3.492        1.266      210.935       48.956        0.054      342.645       18.198      860.179
10/14/2014  06:11:00       29.203      -12.643       44.697       52.164       73.156       47.203     2721.101     5351.811     2228.156        0.665        0.515       31.822       48.606        2.333      342.001       17.107      860.188
10/14/2014  06:12:00      -14.005       10.870       30.389       40.183       42.574       38.549     1614.662     1812.587     1486.038        0.307        0.246       17.729       31.425        3.142      341.595       16.416      860.035
10/14/2014  06:13:00      -12.955      -13.223       11.838       37.419       62.179       28.469     1400.217     3866.204      810.510        0.328        0.304       18.512       33.629        3.300      342.067       17.218      860.033
10/14/2014  06:14:00       68.957     -160.674      -43.809       73.887       83.800       56.242     5459.312     7022.451     3163.145        2.406        0.782      174.846       36.658        0.044      341.965       17.042      860.181
10/14/2014  06:15:00       27.146      -85.166        1.595       69.941       89.708       62.064     4891.779     8047.557     3852.001        1.239        0.840       89.388       63.713        0.508      341.888       16.912      860.210
10/14/2014  06:16:00       58.649      -74.325       51.091       78.418      136.819       90.471     6149.365    18719.478     8185.003        2.231        1.653       94.677       96.103        1.030      341.568       16.369      860.201
10/14/2014  06:17:00       86.394      -72.813       21.412       80.435      150.736       77.663     6469.810    22721.432     6031.537        2.422        1.761      112.985      100.215        0.787      342.117       17.301      860.155
10/14/2014  06:18:00      -73.912       22.834       40.974       89.678       57.708       63.056     8042.120     3330.251     3976.062        1.150        0.767       77.359       68.202        0.777      342.044       17.180      860.075
10/14/2014  06:19:00      112.227     -240.612      -22.805       78.751       86.652       49.220     6201.654     7508.509     2422.655        4.357        0.807      265.498       25.679        0.009      342.135       17.330      860.077
10/14/2014  06:20:00        5.245      -55.334       18.970       76.024       92.200       57.777     5779.680     8500.915     3338.150        1.053        0.881       55.582       59.723        1.155      342.057       17.201      860.047
10/14/2014  06:21:00     -143.556     -104.687        0.986      117.975       71.188       55.669    13918.009     5067.774     3099.031        2.682        1.104      177.673       53.171        0.090      342.289       17.593      860.116
10/14/2014  06:22:00     -126.915      -70.153        4.981      114.745       90.559       49.389    13166.430     8201.003     2439.244        2.243        1.190      145.013       67.214        0.215      342.381       17.750      860.044
10/14/2014  06:23:00      -16.328     -117.386        2.940       48.669       92.866       34.451     2368.641     8624.049     1186.863        1.312        0.609      118.516       32.446        0.075      342.401       17.785      860.039
10/14/2014  06:24:00       -6.327     -125.907        7.838       59.165       94.091       51.645     3500.454     8853.124     2667.186        1.548        0.751      126.066       46.189        0.134      342.303       17.616      860.114
10/14/2014  06:25:00      -78.198      -59.177       -0.862       94.660       65.944       35.197     8960.550     4348.658     1238.797        1.208        0.727       98.065       26.217        0.071      342.101       17.274      860.177
10/14/2014  06:26:00     -129.235     -124.564        1.400       97.279       91.965       50.512     9463.238     8457.511     2551.467        2.634        1.024      179.494       59.245        0.109      341.873       16.886      860.213
10/14/2014  06:27:00     -107.319      -94.226        6.010       63.882       53.243       38.063     4080.929     2834.813     1448.812        1.440        0.418      142.814       29.815        0.044      341.673       16.548      860.276
10/14/2014  06:28:00      -77.436     -152.481        5.995       52.071       60.122       35.333     2711.353     3614.662     1248.391        1.843        0.379      171.017       31.245        0.033      341.828       16.811      860.294
10/14/2014  06:29:00       15.137      -93.783       15.163       71.287      105.017       43.316     5081.842    11028.616     1876.268        1.362        0.899       94.996       56.895        0.359      341.900       16.933      860.251
10/14/2014  06:30:00       29.671      -45.477       28.412       54.470       71.309       56.005     2966.969     5084.995     3136.563        0.747        0.559       54.300       40.470        0.555      341.244       15.821      860.249
10/14/2014  06:31:00       14.858       46.099       51.641       29.397       36.028       29.766      864.192     1298.011      885.997        0.403        0.152       48.435       14.487        0.089      340.772       15.024      860.198
10/14/2014  06:32:00       68.801       14.488       -4.256       37.090       25.476       17.854     1375.645      649.045      318.748        0.365        0.117       70.310       15.337        0.048      341.058       15.508      860.037
10/14/2014  06:33:00      -10.125        8.536       16.691       44.806       22.166       20.565     2007.588      491.336      422.918        0.169        0.146       13.243       20.865        2.482      340.932       15.294      860.028
10/14/2014  06:34:00      -33.124        6.540        1.463       21.519       19.378       13.588      463.086      375.521      184.636        0.108        0.051       33.763        5.440        0.026      341.752       16.684      860.010
10/14/2014  06:35:00      -91.504      -11.887       -8.003       46.179       36.244       16.104     2132.539     1313.641      259.329        0.614        0.185       92.273       18.301        0.039      341.891       16.918      859.954
10/14/2014  06:36:00       45.100      -70.524        2.721       82.721       71.739       76.383     6842.726     5146.505     5834.317        1.242        0.891       83.712       52.909        0.399      341.377       16.046      860.019
10/14/2014  06:37:00       45.330      -40.121       60.193       73.375       98.845       69.630     5383.911     9770.311     4848.320        1.364        1.000       60.535       68.649        1.286      341.021       15.444      860.056
10/14/2014  06:38:00      131.218     -138.506      -17.239       54.737       61.739       35.211     2996.193     3811.758     1239.790        2.237        0.402      190.793       26.719        0.020      341.084       15.549      860.034
10/14/2014  06:39:00       61.554      -88.560       14.809       49.010       67.073       49.449     2401.947     4498.726     2445.156        1.060        0.467      107.851       37.538        0.121      340.933       15.296      860.034
10/14/2014  06:40:00       39.687      -49.421       29.562       48.197       96.595       46.702     2322.946     9330.525     2181.096        0.936        0.692       63.384       60.205        0.902      340.908       15.253      860.105
10/14/2014  06:41:00       64.048      -91.407       28.655       70.981      146.062       62.437     5038.343    21334.164     3898.430        2.177        1.514      111.613       74.006        0.440      340.711       14.918      860.087
10/14/2014  06:42:00       19.927      -27.530       34.164       46.931       86.972       49.843     2202.493     7564.114     2484.316        0.728        0.613       33.986       49.036        2.082      340.638       14.796      860.062
10/14/2014  06:43:00       40.302      -34.058       25.008       60.050       73.206       46.966     3606.009     5359.067     2205.779        0.729        0.559       52.766       52.975        1.008      340.337       14.287      860.013
10/14/2014  06:44:00      -14.159       16.640       10.366       85.191       31.326       25.705     7257.560      981.298      660.743        0.474        0.445       21.849       35.602        2.655      341.278       15.881      859.926
10/14/2014  06:45:00       32.167     -107.255        5.303       52.023       50.582       28.561     2706.358     2558.565      815.736        0.932        0.304      111.975       21.341        0.036      341.395       16.079      859.927
10/14/2014  06:46:00       98.158     -121.019       -7.912       35.559       40.522       30.179     1264.454     1642.012      910.767        1.408        0.191      155.822       25.503        0.027      341.023       15.448      859.990
10/14/2014  06:47:00       39.298      -57.211        2.234       52.808       60.417       36.701     2788.675     3650.185     1346.938        0.630        0.389       69.408       38.953        0.315      340.734       14.958      860.041
10/14/2014  06:48:00       49.420      -14.070       20.855       49.707       83.475       59.724     2470.779     6968.039     3566.909        0.804        0.650       51.384       59.003        1.319      340.403       14.399      860.093
10/14/2014  06:49:00       15.683        2.072       61.740       52.102       69.754       57.329     2714.602     4865.613     3286.648        0.746        0.543       15.820       43.420        7.533      340.151       13.974      860.051
10/14/2014  06:50:00       19.458       20.886       57.399       40.287       59.089       46.677     1623.011     3491.463     2178.776        0.570        0.365       28.546       41.512        2.115      340.152       13.975      859.989
10/14/2014  06:51:00        2.426       67.176       64.369       33.022       43.331       36.548     1090.420     1877.619     1335.733        0.648        0.215       67.220       31.494        0.220      340.015       13.744      859.970
10/14/2014  06:52:00       68.657      -53.922       34.282       51.200       63.750       46.111     2621.409     4064.112     2126.205        0.880        0.441       87.300       39.462        0.204      340.357       14.322      860.039
10/14/2014  06:53:00       14.599      -79.667      -13.831       58.324       52.094       21.738     3401.708     2713.765      472.549        0.667        0.329       80.994       20.018        0.061      340.614       14.756      860.043
10/14/2014  06:54:00        0.549      -33.907       -2.349       28.230       17.091       15.099      796.930      292.106      227.978        0.124        0.066       33.912        3.876        0.013      340.497       14.557      859.991
10/14/2014  06:55:00       14.152      -79.637       -3.909       42.317       36.025       21.934     1790.703     1297.828      481.100        0.506        0.178       80.885       21.925        0.073      340.614       14.756      860.003
10/14/2014  06:56:00      -40.427      -87.369        6.857       47.473       60.653       32.898     2253.639     3678.837     1082.292        0.816        0.351       96.269       34.470        0.128      340.698       14.898      860.124
10/14/2014  06:57:00       -5.218       39.796       66.832       25.853       33.973       22.650      668.396     1154.150      513.009        0.421        0.117       40.136       20.890        0.271      340.049       13.801      860.114
10/14/2014  06:58:00       36.869        4.177       33.170       38.148       40.062       29.243     1455.240     1604.961      855.139        0.320        0.196       37.104       31.717        0.731      339.988       13.698      860.053
10/14/2014  06:59:00       50.151       -0.270       26.712       50.671       31.894       31.391     2567.594     1017.219      985.397        0.390        0.229       50.152       30.576        0.372      339.992       13.704      859.992
10/14/2014  07:00:00       13.635        6.643       31.000       26.574       32.012       25.055      706.179     1024.780      627.759        0.177        0.118       15.167       10.591        0.488      339.893       13.539      859.978
10/14/2014  07:01:00       -5.560      -54.979       15.152       24.090       37.094       27.010      580.327     1375.933      729.522        0.298        0.134       55.260       12.751        0.053      340.208       14.069      860.031
10/14/2014  07:02:00      -45.493      -12.075       -5.255       12.054       21.583       11.646      145.298      465.805      135.639        0.149        0.037       47.069        9.096        0.037      340.352       14.313      860.018
10/14/2014  07:03:00       24.691      -13.193        0.618       42.500       20.736       18.630     1806.244      430.002      347.087        0.168        0.129       27.995       17.088        0.373      340.283       14.196      860.011
10/14/2014  07:04:00       42.005        6.706       -3.649       31.009       28.550       23.428      961.531      815.100      548.851        0.207        0.116       42.537       14.627        0.118      340.058       13.818      859.955
10/14/2014  07:05:00       26.255      -28.855       -0.988       31.201       16.264       13.571      973.487      264.527      184.166        0.147        0.071       39.011       11.566        0.088      340.125       13.930      859.954
10/14/2014  07:06:00       86.814       26.529       32.489       37.098       46.238       27.309     1376.237     2137.984      745.761        0.678        0.213       90.777       14.653        0.026      339.925       13.592      859.946
10/14/2014  07:07:00       14.417       15.106       54.997       36.612       31.701       28.613     1340.407     1004.982      818.724        0.331        0.158       20.882       20.727        0.985      339.941       13.619      859.965
10/14/2014  07:08:00       43.914       -5.215       -1.966       31.741       45.995       27.683     1007.483     2115.575      766.360        0.292        0.194       44.223       21.501        0.236      339.877       13.511      860.018
10/14/2014  07:09:00       54.067        8.748        8.636       15.739       19.342       20.741      247.725      374.099      430.210        0.206        0.053       54.770       14.826        0.073      340.094       13.877      859.951
10/14/2014  07:10:00       50.140      -35.165        0.994       27.983       26.547       19.553      783.034      704.734      382.316        0.281        0.094       61.242       16.919        0.076      339.702       13.217      859.986
10/14/2014  07:11:00       14.706       -8.368       -6.224        9.120       22.278       12.977       83.172      496.311      168.411        0.054        0.037       16.920        9.432        0.311      339.670       13.165      860.019
10/14/2014  07:12:00       41.784      -22.716        2.608       17.516       26.752       18.405      306.798      715.662      338.749        0.181        0.068       47.560       12.085        0.065      339.727       13.258      860.026
10/14/2014  07:13:00       52.786      -26.443        0.091       26.557       20.906       18.838      705.256      437.071      354.889        0.249        0.075       59.039        9.502        0.026      339.750       13.297      860.016
10/14/2014  07:14:00       32.150        7.580       -1.241       16.987       18.389       22.219      288.572      338.170      493.696        0.111        0.056       33.032        4.757        0.021      339.742       13.284      860.004
10/14/2014  07:15:00       33.765        6.933       -8.731       24.286       24.961       19.568      589.795      623.059      382.915        0.143        0.080       34.470       14.260        0.171      339.980       13.685      859.959
10/14/2014  07:16:00       10.811       41.138        2.773       27.181       19.227       13.558      738.826      369.696      183.816        0.155        0.065       42.535       10.253        0.058      340.273       14.180      859.902
10/14/2014  07:17:00       25.493       13.716        9.381       28.406       20.597       16.169      806.893      424.257      261.440        0.121        0.075       28.948        9.184        0.101      339.853       13.472      859.933
10/14/2014  07:18:00      -46.445      -14.922       -7.287       27.991       30.136       17.874      783.477      908.156      319.476        0.222        0.101       48.783       15.807        0.105      339.660       13.146      859.984
10/14/2014  07:19:00     -104.949      -16.298       -6.405       51.287       35.120       25.492     2630.360     1233.436      649.858        0.792        0.226      106.207       25.635        0.058      339.898       13.547      860.031
10/14/2014  07:20:00      -50.406       -2.901        8.621       29.867       34.937       21.808      892.044     1220.608      475.587        0.261        0.129       50.489       22.637        0.201      339.857       13.478      860.034
10/14/2014  07:21:00      -54.712       51.669      -11.755       17.841       29.745       14.369      318.294      884.756      206.470        0.361        0.070       75.253        9.438        0.016      340.123       13.926      859.966
10/14/2014  07:22:00       28.384       61.452       -2.954       23.843       29.394       14.196      568.472      864.034      201.538        0.311        0.082       67.691       13.142        0.038      340.312       14.247      859.921
10/14/2014  07:23:00       24.439       30.361       -1.324       16.578       18.387        9.802      274.815      338.091       96.087        0.111        0.035       38.975        6.202        0.025      340.190       14.039      859.907
10/14/2014  07:24:00      -33.024       23.358       -4.832       40.960       26.017        8.572     1677.687      676.861       73.484        0.204        0.121       40.450        5.967        0.022      340.305       14.234      859.904
10/14/2014  07:25:00     -105.494      -22.941      -10.266       23.589       22.496       15.644      556.427      506.071      244.741        0.653        0.065      107.960       12.589        0.014      339.895       13.542      859.954
10/14/2014  07:26:00      -58.109        6.093        0.526       30.698       23.445       14.703      942.389      549.679      216.174        0.256        0.085       58.427       14.119        0.058      339.820       13.415      859.954
10/14/2014  07:27:00      -43.159        0.103        1.434       35.225       23.752       15.817     1240.794      564.168      250.178        0.196        0.103       43.159       15.968        0.137      339.964       13.659      859.908
10/14/2014  07:28:00       -3.427        0.760        3.213       14.092        9.295        8.095      198.574       86.404       65.537        0.019        0.018        3.510        4.966        2.002      339.986       13.696      859.869
10/14/2014  07:29:00      -37.598       -2.952       -8.074       13.603       15.171        9.773      185.040      230.152       95.520        0.100        0.026       37.713        8.883        0.055      340.167       13.999      859.870
10/14/2014  07:30:00      -48.291      -17.966       -5.172        8.489       14.493        6.634       72.055      210.057       44.012        0.150        0.016       51.525        1.060        0.000      340.077       13.849      859.895
10/14/2014  07:31:00      -51.295      -23.396       -6.330       10.324        7.478        7.487      106.582       55.925       56.057        0.172        0.011       56.378        5.208        0.009      340.048       13.802      859.902
10/14/2014  07:32:00      -43.691      -22.812       -6.606       13.047        9.686        8.866      170.234       93.819       78.600        0.141        0.017       49.288        5.547        0.013      340.010       13.736      859.889
10/14/2014  07:33:00     -110.645       23.495      -15.608       24.128       17.943       11.073      582.142      321.944      122.608        0.703        0.051      113.112        6.732        0.004      340.053       13.809      859.831
10/14/2014  07:34:00      -52.658       -6.299       -3.572       22.504       27.216       17.420      506.432      740.705      303.467        0.219        0.078       53.033       14.503        0.075      339.970       13.669      859.797
10/14/2014  07:35:00      -66.198       -7.888        4.554       30.085       33.747       21.230      905.130     1138.857      450.723        0.348        0.125       66.666       18.835        0.080      339.810       13.399      859.785
10/14/2014  07:36:00      -89.429        5.648      -16.144       43.691       26.054       21.115     1908.928      678.801      445.857        0.566        0.152       89.607       17.724        0.039      339.858       13.480      859.762
10/14/2014  07:37:00     -166.433       10.753      -21.081       51.284       48.516       24.825     2630.009     2353.771      616.263        1.693        0.280      166.780       17.572        0.011      339.834       13.439      859.699
10/14/2014  07:38:00      -99.875       36.042       -6.554       42.080       52.882       25.349     1770.749     2796.515      642.565        0.826        0.260      106.179       22.028        0.043      339.998       13.717      859.686
10/14/2014  07:39:00       -9.492       12.546        8.435       15.708       15.516       13.958      246.752      240.761      194.818        0.050        0.034       15.732       10.445        0.441      339.998       13.715      859.715
10/14/2014  07:40:00       15.100      -36.770       -0.325       17.647       27.383       19.262      311.425      749.845      371.018        0.151        0.072       39.750        9.305        0.055      339.844       13.458      859.742
10/14/2014  07:41:00        4.761      -22.739       18.420       14.362       36.864       18.638      206.268     1358.982      347.374        0.140        0.096       23.232       20.591        0.786      339.856       13.477      859.831
10/14/2014  07:42:00       -9.675      -18.374       -4.627       28.632       18.221       16.938      819.802      332.017      286.885        0.095        0.072       20.765       10.170        0.240      339.743       13.287      859.838
10/14/2014  07:43:00     -110.809      -16.985      -21.651       13.654       15.913       10.342      186.444      253.238      106.960        0.679        0.027      112.104        6.914        0.004      339.823       13.421      859.809
10/14/2014  07:44:00     -106.622       -9.062      -15.495       16.130        9.977       10.235      260.177       99.545      104.753        0.608        0.023      107.007        9.826        0.008      339.773       13.337      859.771
10/14/2014  07:45:00      -92.025       10.125      -13.169       23.028       14.876       12.613      530.270      221.297      159.091        0.483        0.046       92.580        8.288        0.008      339.808       13.395      859.726
10/14/2014  07:46:00      -67.528      -11.621      -12.128       12.664       22.345        9.181      160.369      499.287       84.286        0.279        0.037       68.521        6.432        0.009      339.761       13.316      859.700
10/14/2014  07:47:00      -94.686      -42.358      -14.014       33.492       23.963       22.517     1121.690      574.203      507.023        0.658        0.110      103.729       15.551        0.022      339.706       13.224      859.720
10/14/2014  07:48:00      -74.730      -24.170       -7.354       18.565       19.945       13.855      344.658      397.821      191.949        0.358        0.047       78.541        9.798        0.016      339.655       13.135      859.690
10/14/2014  07:49:00      -95.519      -29.131      -16.514       15.482       22.582       15.772      239.679      509.948      248.763        0.562        0.050       99.862        9.823        0.010      339.672       13.166      859.661
10/14/2014  07:50:00      -80.001      -45.121      -16.058       25.529       19.426       14.517      651.747      377.366      210.748        0.497        0.062       91.848        5.404        0.003      339.683       13.184      859.673
10/14/2014  07:51:00     -102.780      -50.004      -19.006       28.035       28.242       24.663      785.975      797.600      608.267        0.781        0.110      114.299       14.744        0.017      339.664       13.152      859.711
10/14/2014  07:52:00      -75.093      -26.282       -9.697       44.376       33.989       27.873     1969.261     1155.257      776.895        0.516        0.195       79.560       12.400        0.024      339.679       13.178      859.725
10/14/2014  07:53:00     -109.539      -41.563       -7.274       47.395       42.892       28.347     2246.249     1839.714      803.557        0.933        0.244      117.159       24.103        0.042      339.600       13.044      859.702
10/14/2014  07:54:00      -37.647       -2.489       -2.848       41.365       28.668       15.402     1711.046      821.856      237.222        0.210        0.139       37.729       13.359        0.125      339.518       12.907      859.670
10/14/2014  07:55:00      -76.152        2.502      -11.029       14.739       18.692       11.285      217.231      349.375      127.343        0.331        0.035       76.193        9.438        0.015      339.774       13.339      859.678
10/14/2014  07:56:00      -69.083      -12.099       -9.041       21.731       17.670       16.703      472.230      312.239      278.982        0.303        0.053       70.134       11.906        0.029      339.779       13.347      859.683
10/14/2014  07:57:00     -116.764      -78.360      -10.974       27.320       33.199       21.344      746.371     1102.148      455.568        1.110        0.115      140.621       16.487        0.014      339.664       13.153      859.728
10/14/2014  07:58:00     -101.832      -10.846      -12.570       17.828       24.299       11.634      317.824      590.465      135.355        0.584        0.052      102.408        7.655        0.006      339.816       13.410      859.731
10/14/2014  07:59:00      -95.099      -17.257      -21.128       27.791       24.227       15.372      772.344      586.937      236.305        0.569        0.080       96.652       14.783        0.023      339.717       13.242      859.671
10/14/2014  08:00:00     -145.740      -68.351      -18.397       57.467       52.762       27.745     3302.429     2783.800      769.804        1.655        0.343      160.973       21.230        0.017      339.683       13.185      859.687
10/14/2014  08:01:00     -198.900      -25.586      -11.295       66.095       59.174       37.913     4368.563     3501.513     1437.358        2.482        0.465      200.539       33.274        0.028      339.651       13.128      859.716
10/14/2014  08:02:00     -145.408      -14.880       -8.052       52.084       55.421       27.406     2712.746     3071.444      751.108        1.398        0.327      146.168       22.078        0.023      339.596       13.038      859.699
10/14/2014  08:03:00     -157.533       -3.935      -14.243       48.594       33.681       23.835     2361.360     1134.413      568.112        1.455        0.203      157.582       23.611        0.022      339.640       13.113      859.688
10/14/2014  08:04:00      -99.093       44.411        1.896       59.583       37.856       24.991     3550.108     1433.048      624.528        0.870        0.280      108.590       21.574        0.039      339.891       13.534      859.643
10/14/2014  08:05:00     -140.496      -33.902       -6.737       45.285       36.930       25.437     2050.723     1363.805      647.058        1.250        0.203      144.529       22.699        0.025      339.697       13.209      859.633
10/14/2014  08:06:00      -40.108        0.265       18.540       49.081       45.714       34.029     2408.910     2089.732     1157.965        0.380        0.283       40.109       32.400        0.653      339.679       13.177      859.629
10/14/2014  08:07:00      -89.575      -32.126       -4.518       61.139       38.768       19.158     3737.984     1502.922      367.044        0.734        0.280       95.162       27.996        0.087      339.946       13.629      859.652
10/14/2014  08:08:00     -141.620      -32.564      -13.280       23.876       19.254       14.146      570.080      370.704      200.122        1.122        0.057      145.315       10.185        0.005      339.882       13.520      859.662
10/14/2014  08:09:00      -89.958       -1.576      -12.549       19.231       23.434       13.531      369.837      549.133      183.082        0.468        0.055       89.972        9.866        0.012      340.383       14.366      859.672
10/14/2014  08:10:00      -11.378      -28.631       -3.466       20.865       14.784       10.734      435.338      218.566      115.219        0.087        0.038       30.809        9.580        0.097      339.966       13.662      859.678
10/14/2014  08:11:00      -88.927      -33.205      -12.216       30.739       16.560       14.211      944.907      274.233      201.959        0.529        0.071       94.924       17.141        0.033      340.148       13.969      859.674
10/14/2014  08:12:00      -82.553       15.948       -3.204       10.323       18.814       14.448      106.571      353.978      208.748        0.387        0.033       84.079       12.330        0.022      340.620       14.766      859.625
10/14/2014  08:13:00      -67.179      -17.145       -4.335       21.697       19.212       11.606      470.760      369.105      134.707        0.290        0.049       69.333        8.480        0.015      340.450       14.479      859.609
10/14/2014  08:14:00      -36.463      -37.423       -3.269       23.518       17.688        7.951      553.101      312.874       63.210        0.183        0.046       52.250        7.710        0.022      340.323       14.263      859.645
10/14/2014  08:15:00      -43.245      -30.602        1.304       20.132       21.905       11.372      405.281      479.842      129.312        0.191        0.051       52.977        9.138        0.030      340.321       14.261      859.639
10/14/2014  08:16:00      -67.352      -18.731      -10.248       24.065       25.324       10.177      579.104      641.314      103.569        0.316        0.066       69.908        8.263        0.014      340.189       14.037      859.670
10/14/2014  08:17:00      -44.760       -3.764       -3.974       22.403       12.487       11.408      501.912      155.930      130.147        0.141        0.039       44.918       10.048        0.050      340.226       14.099      859.614
10/14/2014  08:18:00     -117.954      -21.343       -7.792       31.833       32.501       12.439     1013.309     1056.302      154.731        0.833        0.111      119.869       15.379        0.016      340.535       14.623      859.555
10/14/2014  08:19:00      -98.776      -38.166       -3.322       91.982       30.499       21.793     8460.600      930.174      474.936        1.054        0.493      105.893       32.858        0.096      340.326       14.269      859.594
10/14/2014  08:20:00      -64.877       -1.779       -4.880       69.768       20.084       18.801     4867.633      403.383      353.479        0.493        0.281       64.902       30.516        0.221      340.230       14.107      859.564
10/14/2014  08:21:00     -131.712      -56.540       -6.023       44.161       45.477       20.303     1950.214     2068.190      412.195        1.251        0.222      143.335       20.363        0.020      340.241       14.126      859.522
10/14/2014  08:22:00       -3.613       -5.804        6.898       21.095       26.924       27.712      444.983      724.915      767.971        0.102        0.097        6.837       21.818       10.183      340.318       14.256      859.530
10/14/2014  08:23:00      -54.643       -5.462       -4.441       21.436       27.026       10.904      459.508      730.399      118.907        0.217        0.065       54.915       12.267        0.050      340.856       15.165      859.559
10/14/2014  08:24:00      -67.177       -7.553       -8.695       10.863        9.459        6.850      118.015       89.482       46.929        0.245        0.013       67.600        4.660        0.005      340.673       14.856      859.545
10/14/2014  08:25:00      -21.905       -6.077        2.885       28.100       10.696        7.926      789.632      114.395       62.828        0.075        0.048       22.733        8.117        0.127      340.572       14.687      859.526
10/14/2014  08:26:00      -50.165      -19.924       -8.329       27.057       11.755       11.947      732.074      138.183      142.730        0.200        0.051       53.977        8.501        0.025      340.684       14.875      859.530
10/14/2014  08:27:00      -66.660      -27.965       -5.313       25.836       22.397       18.311      667.476      501.628      335.295        0.338        0.075       72.288       17.374        0.058      340.839       15.136      859.554
10/14/2014  08:28:00      -68.084      -33.522       -2.024       26.334       19.903       13.842      693.486      396.148      191.613        0.352        0.064       75.889       11.310        0.022      340.812       15.091      859.564
10/14/2014  08:29:00     -104.658      -34.686       -1.649       29.809       20.012       10.265      888.561      400.495      105.374        0.678        0.070      110.256       12.289        0.012      340.662       14.838      859.570
10/14/2014  08:30:00     -100.834      -16.436       -3.736       31.030       32.521       18.236      962.873     1057.624      332.535        0.640        0.118      102.165       16.403        0.026      340.536       14.624      859.545
10/14/2014  08:31:00      -99.043      -34.422       -2.823       41.013       26.054       17.942     1682.083      678.822      321.932        0.684        0.134      104.854       21.132        0.041      340.621       14.768      859.524
10/14/2014  08:32:00      -67.091       -8.340       -3.912       20.116       22.301       15.195      404.664      497.317      230.883        0.286        0.057       67.607       12.572        0.035      340.688       14.882      859.491
10/14/2014  08:33:00     -102.516       -5.244       -7.608       22.142       35.870       12.089      490.251     1286.643      146.155        0.626        0.096      102.650        8.280        0.007      340.888       15.220      859.494
10/14/2014  08:34:00     -131.231      -45.635       -8.993       35.074       25.412       16.002     1230.156      645.794      256.070        1.076        0.107      138.939       13.797        0.010      340.819       15.104      859.527
10/14/2014  08:35:00     -147.227      -36.682       -6.436       23.952       22.530       13.090      573.684      507.616      171.361        1.216        0.063      151.728       11.411        0.006      340.771       15.023      859.521
10/14/2014  08:36:00     -129.524      -27.559       -4.403       28.614       27.572       17.333      818.781      760.204      300.437        0.972        0.094      132.423       15.200        0.013      340.884       15.214      859.510
10/14/2014  08:37:00      -88.752      -32.640       -0.632       43.913       30.098       18.404     1928.381      905.915      338.700        0.606        0.159       94.563       23.293        0.061      341.005       15.418      859.513
10/14/2014  08:38:00      -64.884       -3.020        2.585       28.071       24.716       13.167      787.981      610.884      173.357        0.290        0.079       64.954       11.276        0.030      341.050       15.495      859.488
10/14/2014  08:39:00      -37.989       19.164        1.117       18.104       19.347       13.848      327.756      374.305      191.778        0.135        0.045       42.549       11.323        0.071      341.129       15.629      859.471
10/14/2014  08:40:00      -42.218       -4.716        5.467       23.837       20.104       15.872      568.190      404.186      251.915        0.153        0.061       42.481       16.859        0.158      341.338       15.981      859.469
10/14/2014  08:41:00      -52.138      -18.688       -0.137       21.360       16.627        9.886      456.229      276.446       97.739        0.195        0.042       55.386        9.153        0.027      341.232       15.801      859.459
10/14/2014  08:42:00      -79.961      -33.128        1.996       41.043       34.432       16.118     1684.502     1185.530      259.806        0.531        0.156       86.552       18.174        0.044      341.109       15.593      859.495
10/14/2014  08:43:00      -71.820      -14.996        2.021       28.554       33.554       14.361      815.305     1125.852      206.230        0.377        0.107       73.369       12.234        0.028      341.062       15.515      859.494
10/14/2014  08:44:00      -50.016       11.371        4.813       36.840       24.873       17.992     1357.175      618.643      323.713        0.248        0.115       51.293       18.601        0.132      341.162       15.684      859.476
10/14/2014  08:45:00      -17.504       29.440        6.164       27.575       10.096       12.894      760.398      101.926      166.261        0.112        0.051       34.251       11.009        0.103      341.200       15.748      859.448
10/14/2014  08:46:00      -49.028       14.506       -7.692       14.821       13.485        6.987      219.651      181.840       48.818        0.156        0.023       51.129        6.471        0.016      341.529       16.305      859.447
10/14/2014  08:47:00      -63.023        1.707       -6.956       13.429        8.618        7.698      180.330       74.261       59.256        0.217        0.016       63.046        6.320        0.010      341.554       16.345      859.472
10/14/2014  08:48:00      -49.787       -3.167       -1.679       20.869       11.264        6.953      435.517      126.884       48.347        0.155        0.031       49.888        7.813        0.025      341.424       16.127      859.473
10/14/2014  08:49:00      -49.083        1.487        2.327       23.576       19.504       11.316      555.822      380.401      128.060        0.174        0.053       49.105       12.486        0.065      341.538       16.320      859.462
10/14/2014  08:50:00       19.713        5.441        7.800       18.712       15.878       15.041      350.132      252.113      226.245        0.065        0.041       20.450       11.014        0.290      341.561       16.358      859.468
10/14/2014  08:51:00       13.229       -2.824        4.701        9.598        7.412        9.211       92.123       54.936       84.851        0.022        0.012       13.527        4.482        0.110      341.606       16.435      859.468
10/14/2014  08:52:00       13.161       -1.561       16.735       21.765       15.002       11.351      473.734      225.071      128.852        0.064        0.041       13.254        7.601        0.329      341.571       16.377      859.466
10/14/2014  08:53:00       44.263        6.933       11.841       21.785       24.186       14.684      474.583      584.971      215.616        0.171        0.064       44.803        9.013        0.040      341.469       16.203      859.438
10/14/2014  08:54:00       60.027       27.622       12.816       20.556       19.701       21.949      422.530      388.147      481.778        0.291        0.065       66.077        8.787        0.018      341.361       16.020      859.409
10/14/2014  08:55:00       69.844       11.504       17.437       14.801       17.949       20.820      219.077      322.181      433.455        0.314        0.049       70.785        8.166        0.013      341.199       15.747      859.428
10/14/2014  08:56:00       75.099       44.480        3.809       16.659       17.373       18.642      277.527      301.827      347.541        0.428        0.046       87.282        3.621        0.002      341.335       15.977      859.415
10/14/2014  08:57:00       68.233       40.813        0.973       23.121       21.113       18.899      534.562      445.778      357.184        0.383        0.067       79.507       12.748        0.026      341.473       16.209      859.395
10/14/2014  08:58:00       69.640       40.250       -5.686       20.715       17.521       19.873      429.103      306.993      394.956        0.382        0.057       80.435       11.472        0.020      341.691       16.580      859.414
10/14/2014  08:59:00      100.158       44.206       -2.296       20.961       15.814       16.399      439.377      250.087      268.928        0.647        0.048      109.480        7.125        0.004      341.780       16.730      859.416
10/14/2014  09:00:00      106.529       59.890       17.684       32.712       24.049       22.904     1070.105      578.334      524.599        0.871        0.109      122.209       15.305        0.016      341.902       16.938      859.388
10/14/2014  09:01:00       11.279       29.662       38.731       34.080       37.789       24.771     1161.457     1427.998      613.611        0.285        0.160       31.734       22.163        0.488      341.928       16.981      859.411
10/14/2014  09:02:00       35.694       39.166        9.385       35.183       22.558       23.787     1237.850      508.883      565.810        0.260        0.116       52.990       14.307        0.073      341.811       16.783      859.451
10/14/2014  09:03:00       57.766       43.398       15.191       33.433       24.007       28.467     1117.733      576.322      810.391        0.398        0.125       72.251       17.470        0.058      341.676       16.553      859.431
10/14/2014  09:04:00       88.830       42.944       17.023       39.208       24.892       27.814     1537.301      619.611      773.639        0.648        0.147       98.666       13.060        0.018      341.831       16.817      859.347
10/14/2014  09:05:00       52.642       42.784       15.861       38.060       30.529       24.173     1448.532      932.019      584.357        0.391        0.148       67.835       23.460        0.120      342.169       17.390      859.323
10/14/2014  09:06:00        4.963       -0.906       10.239       28.345       23.309       17.507      803.426      543.317      306.506        0.089        0.083        5.045       17.581       12.143      342.170       17.394      859.388
10/14/2014  09:07:00       18.642       -2.540       19.539       22.516        9.055       12.792      506.974       81.994      163.640        0.074        0.038       18.814        9.787        0.271      342.180       17.408      859.454
10/14/2014  09:08:00       63.226       29.623        5.566       32.192       23.690       25.858     1036.355      561.222      668.638        0.359        0.113       69.821       22.123        0.100      341.846       16.843      859.416
10/14/2014  09:09:00       99.969       60.621        3.004       37.786       34.847       27.806     1427.751     1214.338      773.179        0.855        0.171      116.913        6.734        0.003      342.217       17.472      859.300
10/14/2014  09:10:00       93.358       73.370       15.992       40.106       38.644       36.907     1608.453     1493.371     1362.148        0.941        0.223      118.739       23.317        0.039      342.294       17.601      859.308
10/14/2014  09:11:00       29.736      -34.082       -0.346       24.392       51.393       22.520      594.993     2641.229      507.140        0.289        0.187       45.231       16.611        0.135      341.992       17.091      859.384
10/14/2014  09:12:00       49.868       26.924       14.658       37.732       40.053       27.120     1423.682     1604.218      735.514        0.359        0.188       56.672        8.731        0.024      341.917       16.963      859.394
10/14/2014  09:13:00       99.202       55.157       19.228       35.811       38.905       29.091     1282.408     1513.579      846.277        0.845        0.182      113.504       14.913        0.017      342.063       17.210      859.334
10/14/2014  09:14:00       22.204       25.985        2.644       29.715       19.818       17.274      883.001      392.736      298.402        0.137        0.079       34.179        6.669        0.038      342.299       17.611      859.302
10/14/2014  09:15:00       77.672       60.555       12.734       34.751       26.609       18.392     1207.643      708.056      338.274        0.606        0.113       98.488       10.234        0.011      342.472       17.906      859.307
10/14/2014  09:16:00       25.083       77.763      -17.835       23.234       19.206       19.478      539.819      368.880      379.391        0.414        0.064       81.708       16.183        0.039      342.588       18.102      859.332
10/14/2014  09:17:00       44.098      -10.957       11.560       34.116       44.529       26.155     1163.870     1982.842      684.091        0.301        0.192       45.439       14.619        0.104      342.426       17.828      859.363
10/14/2014  09:18:00       88.716       40.984       18.905       49.075       27.809       32.162     2408.365      773.340     1034.409        0.706        0.211       97.725       16.136        0.027      342.283       17.583      859.284
10/14/2014  09:19:00      127.807       42.653       12.057       60.436       33.047       40.130     3652.480     1092.085     1610.406        1.233        0.318      134.737       36.209        0.072      342.575       18.081      859.214
10/14/2014  09:20:00       41.532        8.998       -9.823       35.783       36.528       19.003     1280.451     1334.289      361.099        0.244        0.149       42.496        8.272        0.038      342.556       18.049      859.226
10/14/2014  09:21:00       29.410       14.146      -14.439       30.724       24.624       14.837      943.963      606.346      220.130        0.152        0.089       32.635        3.619        0.012      342.438       17.849      859.249
10/14/2014  09:22:00       53.299       45.265        7.997       28.867       23.414       27.838      833.292      548.220      774.980        0.355        0.108       69.927       18.797        0.072      342.807       18.475      859.204
10/14/2014  09:23:00       47.400       34.335       37.583       43.324       25.405       21.559     1876.978      645.435      464.783        0.391        0.149       58.529       12.726        0.047      342.772       18.417      859.219
10/14/2014  09:24:00       22.077       23.847       36.977       30.495       32.918       28.381      929.918     1083.619      805.464        0.262        0.141       32.497       20.068        0.381      342.833       18.520      859.233
10/14/2014  09:25:00       27.216       23.285       21.397       35.987       33.798       20.358     1295.049     1142.282      414.445        0.230        0.143       35.817       15.945        0.198      342.921       18.669      859.197
10/14/2014  09:26:00       59.931       32.417       15.642       40.522       31.582       29.456     1642.070      997.420      867.664        0.420        0.175       68.136       19.425        0.081      343.206       19.154      859.137
10/14/2014  09:27:00       40.916       36.813       38.104       35.821       31.123       36.750     1283.136      968.633     1350.597        0.404        0.180       55.039       26.050        0.224      343.182       19.112      859.093
10/14/2014  09:28:00       14.083        2.832       14.391       22.869       25.865       27.568      523.001      668.996      759.987        0.118        0.098       14.365       16.170        1.267      343.120       19.007      859.082
10/14/2014  09:29:00       10.193       -0.325        5.044       21.798       27.547       19.802      475.162      758.825      392.127        0.088        0.081       10.198       18.467        3.279      343.240       19.213      859.095
10/14/2014  09:30:00       63.931       29.390       27.869       56.753       36.937       39.324     3220.930     1364.357     1546.409        0.593        0.307       70.363       32.593        0.215      343.098       18.970      859.107
10/14/2014  09:31:00       21.765        8.459       27.430       30.880       31.902       24.738      953.583     1017.721      611.946        0.194        0.129       23.351       24.460        1.097      343.175       19.101      859.111
10/14/2014  09:32:00       11.995      -17.426       17.837       31.637       49.044       35.453     1000.910     2405.320     1256.902        0.271        0.233       21.155       28.216        1.779      343.389       19.467      859.073
10/14/2014  09:33:00       12.173       10.985       43.856       32.988       41.276       29.048     1088.214     1703.748      843.806        0.291        0.182       16.396       11.967        0.533      343.598       19.822      858.987
10/14/2014  09:34:00       45.968      -92.681       -2.688       61.412       53.351       36.180     3771.412     2846.329     1309.004        0.932        0.396      103.455       37.334        0.130      343.522       19.693      858.965
10/14/2014  09:35:00       84.335      -49.335       26.220       65.222       79.035       49.616     4253.889     6246.604     2461.757        1.160        0.648       97.705       57.475        0.346      343.613       19.847      858.982
10/14/2014  09:36:00       85.767      -20.502       23.226       92.157       54.070       39.974     8492.872     2923.521     1597.921        1.066        0.651       88.184       52.202        0.350      343.564       19.766      859.001
10/14/2014  09:37:00       58.796      -57.012       -5.040       39.259       45.932       39.137     1541.302     2109.774     1531.721        0.596        0.259       81.898       29.219        0.127      343.182       19.112      859.023
10/14/2014  09:38:00      -14.615      -41.474       12.139       24.973       35.980       19.571      623.667     1294.583      383.010        0.219        0.115       43.974       14.553        0.110      343.318       19.346      859.026
10/14/2014  09:39:00       -2.281        2.304        7.099       19.520       42.847       31.301      381.030     1835.902      979.740        0.163        0.160        3.242       30.683       89.567      343.186       19.120      858.956
10/14/2014  09:40:00       54.270       37.544       28.157       53.974       49.449       33.453     2913.185     2445.168     1119.122        0.581        0.324       65.991       29.500        0.200      343.342       19.386      858.891
10/14/2014  09:41:00       37.633       13.075        7.056       26.476       27.854       30.774      700.963      775.821      947.017        0.203        0.121       39.840       25.228        0.401      343.271       19.264      858.879
10/14/2014  09:42:00       49.455      -12.545       -3.697       26.718       28.150       31.269      713.875      792.426      977.751        0.255        0.124       51.021       18.703        0.134      342.849       18.547      858.891
10/14/2014  09:43:00       37.047      -19.761        1.266       27.480       25.063       22.731      755.129      628.150      516.704        0.183        0.095       41.988       20.406        0.236      342.956       18.729      858.890
10/14/2014  09:44:00       44.706       41.850       41.786       32.023       43.599       33.318     1025.445     1900.889     1110.101        0.477        0.202       61.238       25.227        0.170      343.308       19.329      858.849
10/14/2014  09:45:00       24.438       40.277       68.363       44.048       48.860       38.680     1940.270     2387.291     1496.135        0.636        0.291       47.111       33.445        0.504      343.475       19.613      858.799
10/14/2014  09:46:00       65.209      -27.093        6.238       38.667       70.017       40.654     1495.135     4902.374     1652.758        0.654        0.403       70.613       40.567        0.330      343.382       19.453      858.809
10/14/2014  09:47:00       18.171      -41.005        7.598       40.399       49.180       31.640     1632.104     2418.652     1001.082        0.356        0.253       44.851       26.206        0.341      343.869       20.285      858.806
10/14/2014  09:48:00      -10.225      -64.039       11.627       36.191       51.080       28.098     1309.761     2609.198      789.496        0.452        0.235       64.851       17.533        0.073      343.707       20.008      858.788
10/14/2014  09:49:00       27.646       30.586       30.917       45.350       41.768       27.486     2056.636     1744.530      755.487        0.361        0.228       41.229        5.776        0.020      343.560       19.759      858.717
10/14/2014  09:50:00       26.818       33.165       16.034       30.849       27.243       26.707      951.641      742.154      713.249        0.224        0.120       42.651        4.381        0.011      343.559       19.757      858.645
10/14/2014  09:51:00       50.001      -34.617        9.041       26.393       30.620       24.275      696.594      937.554      589.257        0.300        0.111       60.815       17.597        0.084      343.307       19.328      858.675
10/14/2014  09:52:00       25.149      -21.883        6.045       23.650       18.463       17.123      559.310      340.870      293.186        0.117        0.060       33.337       14.266        0.183      343.609       19.842      858.766
10/14/2014  09:53:00       -4.530      -13.800       33.986       25.621       59.559       24.734      656.440     3547.257      611.753        0.309        0.241       14.525       18.615        1.642      344.018       20.539      858.765
10/14/2014  09:54:00       22.239      -12.091       28.034       31.930       35.759       25.749     1019.537     1278.713      663.031        0.219        0.148       25.313       20.399        0.649      343.860       20.270      858.731
10/14/2014  09:55:00       31.410      -50.510        6.986       23.682       31.673       19.414      560.827     1003.182      376.905        0.276        0.097       59.479       21.144        0.126      343.752       20.087      858.725
10/14/2014  09:56:00       19.667        2.575       18.462       39.146       30.943       17.873     1532.390      957.477      319.460        0.177        0.140       19.835       22.668        1.306      343.373       19.439      858.714
10/14/2014  09:57:00       19.030       -4.628       26.021       37.729       35.549       24.963     1423.475     1263.698      623.136        0.218        0.166       19.584       22.309        1.298      343.274       19.269      858.726
10/14/2014  09:58:00       -3.564      -10.523       21.374       24.390       33.629       22.390      594.864     1130.943      501.318        0.140        0.111       11.110       12.935        1.356      343.988       20.489      858.716
10/14/2014  09:59:00       -4.800       10.669       45.007       17.500       38.604       19.371      306.239     1490.246      375.235        0.217        0.109       11.699       20.798        3.160      343.929       20.387      858.670
10/14/2014  10:00:00       -2.832       -6.190       14.066       24.234       14.141       13.335      587.297      199.972      177.820        0.060        0.048        6.807       12.098        3.159      343.883       20.310      858.634
10/14/2014  10:01:00       25.412        4.622        8.183       35.872       22.846       18.488     1286.835      521.932      341.791        0.144        0.108       25.829       16.248        0.396      343.278       19.276      858.625
10/14/2014  10:02:00       28.393        3.581       17.436       23.711       18.731       18.419      562.233      350.844      339.256        0.119        0.063       28.618       13.846        0.234      343.178       19.107      858.663
10/14/2014  10:03:00       39.144       -8.316       -1.221       23.158       24.533       25.784      536.315      601.870      664.827        0.170        0.090       40.018       17.207        0.185      342.737       18.356      858.671
10/14/2014  10:04:00       21.277       14.754        1.530       24.826       16.750       23.084      616.325      280.550      532.893        0.105        0.071       25.892       11.860        0.210      343.159       19.075      858.641
10/14/2014  10:05:00      -12.504       25.696       17.194       10.985       16.208       13.772      120.671      262.707      189.678        0.084        0.029       28.577       10.072        0.124      343.827       20.213      858.615
10/14/2014  10:06:00      -18.997       29.268       11.789       17.600       20.770       14.680      309.748      431.394      215.495        0.116        0.048       34.893       10.831        0.096      343.866       20.279      858.566
10/14/2014  10:07:00        6.091       15.864       15.828        9.353       11.458       16.744       87.484      131.289      280.349        0.052        0.025       16.993        8.398        0.244      344.170       20.800      858.554
10/14/2014  10:08:00       46.091       29.025       14.474       19.736       17.017       19.457      389.492      289.575      378.571        0.212        0.053       54.469        9.876        0.033      343.974       20.463      858.544
10/14/2014  10:09:00       19.072       37.513       19.916       32.960       26.808       27.182     1086.391      718.645      738.857        0.236        0.127       42.083       29.175        0.481      343.980       20.475      858.527
10/14/2014  10:10:00      -17.332       24.553       10.166       21.333       22.359       22.582      455.095      499.929      509.941        0.124        0.073       30.054       18.221        0.368      344.265       20.960      858.494
10/14/2014  10:11:00       22.619       27.889       10.787       22.272       15.730       15.309      496.041      247.440      234.363        0.119        0.049       35.909        7.927        0.049      343.937       20.401      858.445
10/14/2014  10:12:00      -17.982       -2.228       18.615       15.271       13.034       11.214      233.189      169.883      125.759        0.060        0.026       18.120        9.859        0.296      344.280       20.987      858.462
10/14/2014  10:13:00       -3.361      -22.809      -11.629       22.150       17.006       14.271      490.637      289.206      203.651        0.082        0.049       23.055        7.294        0.100      343.846       20.245      858.478
10/14/2014  10:14:00        0.680       17.890       32.184       17.562       15.483       13.702      308.415      239.732      187.742        0.105        0.037       17.903        8.637        0.233      344.457       21.290      858.470
10/14/2014  10:15:00       25.693       15.169        2.937       11.996       19.668       18.159      143.898      386.849      329.736        0.088        0.043       29.837       14.826        0.247      343.637       19.889      858.415
10/14/2014  10:16:00      -14.844       13.137       19.747       27.474       12.128       19.758      754.797      147.083      390.364        0.104        0.065       19.822       17.474        0.777      344.071       20.630      858.388
10/14/2014  10:17:00      -53.533       15.055       -6.517       11.371       11.395       10.808      129.304      129.841      116.806        0.176        0.019       55.610        5.740        0.011      343.855       20.258      858.395
10/14/2014  10:18:00      -58.808       22.926        6.856       14.428       14.621       11.112      208.171      213.781      123.471        0.229        0.027       63.119        8.311        0.017      343.878       20.301      858.422
10/14/2014  10:19:00       15.432       -5.272       19.171       26.256       24.145       18.298      689.388      582.998      334.825        0.112        0.080       16.308       14.574        0.799      343.831       20.220      858.429
10/14/2014  10:20:00       -4.599       13.234       29.637       25.410       18.326       13.597      645.667      335.853      184.877        0.112        0.058       14.010       15.393        1.207      343.814       20.191      858.429
10/14/2014  10:21:00      -15.888       -2.090       -6.152       29.240       21.292       14.948      854.962      453.338      223.446        0.091        0.077       16.025       13.860        0.748      343.443       19.557      858.411
10/14/2014  10:22:00        1.076      -16.059        6.351       21.932       26.841       12.252      481.014      720.432      150.114        0.083        0.068       16.095       12.774        0.630      343.681       19.965      858.378
10/14/2014  10:23:00      -55.132      -46.854        2.336       31.202       36.276       19.667      973.538     1315.966      386.786        0.396        0.134       72.352       20.215        0.078      343.947       20.417      858.356
10/14/2014  10:24:00      -59.345      -65.993       -8.246       13.053       15.346       12.185      170.368      235.515      148.486        0.425        0.028       88.752        3.390        0.001      343.963       20.443      858.365
10/14/2014  10:25:00      -48.200      -43.561       -2.636       15.205       11.955        9.745      231.183      142.925       94.971        0.235        0.023       64.968        7.417        0.013      344.063       20.615      858.371
10/14/2014  10:26:00      -52.799      -24.703       -0.333       26.398       21.305       13.999      696.833      453.894      195.973        0.237        0.067       58.293        8.328        0.020      344.115       20.706      858.368
10/14/2014  10:27:00      -40.109       22.484        8.749       32.069       22.098       17.516     1028.416      488.341      306.827        0.201        0.091       45.981       18.303        0.158      344.309       21.035      858.352
10/14/2014  10:28:00       41.963        1.706       32.380       30.645       23.575       21.048      939.098      555.768      443.014        0.237        0.097       41.998       15.494        0.136      343.494       19.645      858.317
10/14/2014  10:29:00       49.750        2.912       32.613       38.771       13.815       18.218     1503.185      190.854      331.913        0.279        0.101       49.835        9.018        0.033      343.696       19.991      858.293
10/14/2014  10:30:00       34.180        9.567       20.538       38.158       20.886       25.941     1456.027      436.226      672.956        0.212        0.128       35.494       22.182        0.391      344.141       20.748      858.241
10/14/2014  10:31:00      -85.431      -19.931        3.324       49.901       31.307       26.492     2490.060      980.149      701.821        0.594        0.209       87.725       26.604        0.092      344.247       20.930      858.208
10/14/2014  10:32:00     -103.312      -61.516      -19.355       51.726       35.117       19.416     2675.574     1233.174      376.963        0.956        0.214      120.240       10.843        0.008      344.193       20.837      858.144
10/14/2014  10:33:00       22.308      -36.088       15.107       35.424       37.118       24.557     1254.849     1377.724      603.023        0.263        0.162       42.426       20.421        0.232      344.168       20.796      858.087
10/14/2014  10:34:00       59.868      -75.816       -6.234       51.110       56.721       37.331     2612.193     3217.306     1393.606        0.830        0.361       96.603       40.948        0.180      344.033       20.565      858.141
10/14/2014  10:35:00       18.062       -7.243       24.485       35.004       48.204       37.993     1225.284     2323.647     1443.503        0.298        0.250       19.460       39.150        4.047      344.443       21.267      858.167
10/14/2014  10:36:00      -44.551      -51.167       -7.612       48.023       39.727       27.157     2306.179     1578.197      737.492        0.464        0.231       67.844       25.479        0.141      344.253       20.942      858.146
10/14/2014  10:37:00      -14.574       18.704       22.857       52.250       30.865       35.955     2730.013      952.659     1292.774        0.303        0.249       23.711       36.946        2.428      344.552       21.452      858.078
10/14/2014  10:38:00      -24.450        5.408       20.301       39.508       20.794       16.380     1560.903      432.375      268.311        0.165        0.113       25.041       20.871        0.695      344.699       21.703      858.073
10/14/2014  10:39:00      -48.740      -18.570        9.134       60.891       35.685       22.305     3707.734     1273.438      497.527        0.414        0.274       52.157       25.554        0.240      344.576       21.494      858.078
10/14/2014  10:40:00      -18.522      -57.774        8.041       87.257       49.585       32.912     7613.757     2458.695     1083.225        0.745        0.558       60.670       23.230        0.147      344.370       21.140      858.098
10/14/2014  10:41:00      -69.781     -134.465       -4.954       43.748       61.453       25.684     1913.863     3776.430      659.655        1.466        0.317      151.494       25.422        0.028      344.574       21.488      858.080
10/14/2014  10:42:00      -99.582      -76.264       -2.580       50.929       45.528       27.677     2593.760     2072.762      766.015        1.059        0.272      125.430       20.849        0.028      344.621       21.570      858.053
10/14/2014  10:43:00      -46.861      -53.750       20.661       68.459       45.844       28.757     4686.571     2101.706      826.942        0.656        0.381       71.310       24.787        0.121      344.587       21.513      858.052
10/14/2014  10:44:00        0.241      -13.509       19.731       31.825       25.319       18.223     1012.813      641.051      332.081        0.128        0.099       13.511       18.255        1.825      344.660       21.638      858.037
10/14/2014  10:45:00       -3.657      -15.065        5.778       47.571       32.061       21.654     2263.012     1027.884      468.891        0.202        0.188       15.502       20.396        1.731      344.779       21.840      858.012
10/14/2014  10:46:00       -2.336      -21.797       -2.019       38.942       25.053       18.833     1516.448      627.643      354.671        0.149        0.125       21.922       11.918        0.296      344.649       21.618      857.977
10/14/2014  10:47:00       23.736      -11.625       14.099       54.764       38.340       27.317     2999.150     1469.976      746.199        0.306        0.261       26.430       21.646        0.671      345.112       22.409      857.928
10/14/2014  10:48:00       24.942      -96.012       24.096       79.120       57.964       51.507     6259.902     3359.818     2653.017        1.134        0.614       99.199       30.806        0.096      345.087       22.367      857.899
10/14/2014  10:49:00        7.632      -41.516       44.182       49.761       66.949       43.457     2476.195     4482.177     1888.477        0.629        0.442       42.211       37.130        0.774      345.287       22.710      857.885
10/14/2014  10:50:00       16.170      -79.770       -1.008       67.860       55.718       39.430     4604.947     3104.519     1554.759        0.794        0.463       81.392       39.949        0.241      345.089       22.370      857.909
10/14/2014  10:51:00      -34.804      -58.078       31.327       50.893       44.434       31.628     2590.051     1974.388     1000.358        0.556        0.278       67.708       15.319        0.051      345.275       22.691      857.938
10/14/2014  10:52:00       22.201      -37.784       27.708       30.867       50.720       37.301      952.767     2572.558     1391.351        0.380        0.246       43.824       32.058        0.535      345.313       22.755      857.919
10/14/2014  10:53:00      -31.556      -56.399       16.153       44.159       86.174       34.813     1949.984     7425.904     1211.953        0.751        0.529       64.627       41.997        0.422      345.223       22.601      857.906
10/14/2014  10:54:00      -21.734      -28.150       11.236       44.201       52.234       35.783     1953.759     2728.443     1280.411        0.368        0.298       35.564       30.824        0.751      344.968       22.165      857.883
10/14/2014  10:55:00      -32.586      -48.496       -6.456       41.051       32.156       28.456     1685.218     1034.024      809.733        0.349        0.176       58.426       21.680        0.138      344.585       21.509      857.899
10/14/2014  10:56:00     -105.185     -100.930      -12.648       56.948       70.381       26.874     3243.043     4953.425      722.187        1.516        0.446      145.776       26.928        0.034      345.007       22.230      857.874
10/14/2014  10:57:00     -204.847      -83.348       -6.934       73.277       59.607       37.704     5369.503     3552.951     1421.601        2.965        0.517      221.155       26.857        0.015      344.985       22.191      857.842
10/14/2014  10:58:00     -210.015     -160.900       -4.318      104.701      100.257       44.256    10962.361    10051.425     1958.591        4.649        1.149      264.566       36.315        0.019      345.012       22.235      857.822
10/14/2014  10:59:00     -198.167     -160.769       14.484      146.328       86.687       61.626    21411.896     7514.698     3797.735        4.902        1.636      255.180       55.128        0.047      345.106       22.396      857.820
10/14/2014  11:00:00     -191.478     -189.593       -8.726       99.854      131.323       56.215     9970.893    17245.645     3160.081        5.153        1.519      269.461       70.537        0.069      345.082       22.357      857.803
10/14/2014  11:01:00     -157.227     -124.200      -12.561      143.741       72.266       47.913    20661.479     5222.318     2295.654        3.424        1.409      200.365       50.792        0.064      345.165       22.498      857.793
10/14/2014  11:02:00     -107.792      -76.421        8.091       73.670       60.279       37.699     5427.303     3633.579     1421.181        1.400        0.524      132.133       33.207        0.063      345.187       22.538      857.783
10/14/2014  11:03:00      -92.301      -52.894       21.549       70.159       48.793       36.293     4922.275     2380.756     1317.161        1.020        0.431      106.383       32.748        0.095      345.212       22.581      857.782
10/14/2014  11:04:00      -94.105     -136.352       -1.393       42.018       63.612       25.787     1765.475     4046.470      664.956        1.696        0.324      165.673       24.394        0.022      345.008       22.231      857.794
10/14/2014  11:05:00      -86.444      -91.595        0.205       56.391       57.397       29.297     3179.959     3294.440      858.328        1.160        0.367      125.945       28.721        0.052      345.169       22.507      857.795
10/14/2014  11:06:00      -87.028     -147.902      -14.429       44.934       61.194       31.387     2019.024     3744.667      985.147        1.820        0.337      171.607       19.347        0.013      345.069       22.335      857.783
10/14/2014  11:07:00       -6.400      -10.337       19.575       29.106       34.142       23.333      847.183     1165.672      544.431        0.154        0.128       12.157       21.984        3.270      345.610       23.265      857.755
10/14/2014  11:08:00      -31.432      -48.351       -4.584       22.486       21.420       14.835      505.626      458.832      220.074        0.227        0.059       57.669       12.369        0.046      345.180       22.527      857.692
10/14/2014  11:09:00       -6.429      -46.188       -2.366       26.914       33.953       33.140      724.380     1152.784     1098.265        0.258        0.149       46.633       27.350        0.344      345.336       22.794      857.650
10/14/2014  11:10:00      -39.529      -61.899        5.072       47.121       32.886       22.930     2220.359     1081.504      525.796        0.462        0.191       73.444       24.197        0.109      345.425       22.947      857.661
10/14/2014  11:11:00     -122.619      -78.362        7.126       85.486       56.389       36.271     7307.794     3179.721     1315.560        1.651        0.590      145.520       34.102        0.055      345.283       22.703      857.677
10/14/2014  11:12:00     -180.443     -145.693      -12.751       95.461       69.859       54.303     9112.777     4880.293     2948.794        3.544        0.847      231.919       54.150        0.055      345.208       22.570      857.677
10/14/2014  11:13:00     -121.902     -174.294       -7.606       77.762       78.035       40.550     6046.921     6089.455     1644.290        2.954        0.689      212.693       26.883        0.016      345.238       22.622      857.665
10/14/2014  11:14:00      -23.572       20.499       21.193      100.960       52.106       38.515    10192.968     2715.065     1483.378        0.791        0.720       31.239       42.868        1.883      345.264       22.670      857.619
10/14/2014  11:15:00      -27.597        3.480        2.372       33.280       28.081       21.790     1107.553      788.545      474.784        0.157        0.119       27.816       14.756        0.281      345.378       22.866      857.595
10/14/2014  11:16:00      -34.149       22.131       10.333       41.664       24.558       23.587     1735.915      603.099      556.355        0.233        0.145       40.694       23.199        0.325      345.550       23.161      857.597
10/14/2014  11:17:00      -49.796      -23.196        3.454       46.353       34.959       22.975     2148.575     1222.166      527.830        0.346        0.195       54.934       23.063        0.176      345.596       23.240      857.592
10/14/2014  11:18:00      -40.426      -39.568        8.770       64.301       38.895       30.053     4134.629     1512.790      903.206        0.491        0.328       56.568       26.880        0.226      345.658       23.346      857.585
10/14/2014  11:19:00      -28.902       12.992       15.234       39.270       28.224       28.494     1542.123      796.620      811.901        0.219        0.158       31.688       24.712        0.608      345.709       23.434      857.550
10/14/2014  11:20:00       -8.909        8.668       20.622       16.855       27.980       29.088      284.089      782.907      846.132        0.125        0.096       12.430       26.192        4.440      345.542       23.147      857.521
10/14/2014  11:21:00      -45.025      -30.315       -2.089       28.032       19.065       22.529      785.807      363.477      507.574        0.230        0.083       54.280       16.535        0.093      345.553       23.167      857.502
10/14/2014  11:22:00       32.788      -13.467        4.145       42.812       29.668       23.243     1832.900      880.177      540.246        0.226        0.163       35.446       25.585        0.521      345.164       22.502      857.479
10/14/2014  11:23:00        7.862      -22.171       -5.168       49.224       36.001       35.252     2422.954     1296.081     1242.720        0.277        0.248       23.524       33.708        2.053      345.404       22.909      857.468
10/14/2014  11:24:00       -2.891       -5.387       17.915       12.982       23.340       19.678      168.536      544.768      387.233        0.073        0.055        6.114       17.525        8.216      346.035       23.994      857.458
10/14/2014  11:25:00        4.578      -73.242      -10.306       50.905       69.080       27.188     2591.342     4772.064      739.178        0.680        0.405       73.384       36.139        0.243      345.492       23.062      857.452
10/14/2014  11:26:00        2.071       -7.240       -1.116       14.040       16.189       20.261      197.112      262.096      410.518        0.046        0.043        7.531        2.928        0.151      345.485       23.051      857.441
10/14/2014  11:27:00      -34.341       12.097      -10.275       32.781       20.189       13.437     1074.565      407.580      180.561        0.155        0.083       36.410       11.301        0.096      345.427       22.949      857.425
10/14/2014  11:28:00      -80.654       -0.832       -1.230       45.750       24.490       22.493     2093.062      599.740      505.918        0.485        0.160       80.658       26.783        0.110      345.372       22.855      857.421
10/14/2014  11:29:00       23.867       23.960       18.662       25.266       19.962       30.402      638.363      398.468      924.281        0.173        0.098       33.819        9.715        0.083      344.788       21.856      857.402
10/14/2014  11:30:00      -37.227       10.271       11.090       58.433       32.535       18.323     3414.460     1058.513      335.732        0.321        0.240       38.618       12.485        0.105      345.108       22.405      857.400
10/14/2014  11:31:00      -78.465       46.869       -4.888       39.531       61.772       31.465     1562.727     3815.794      990.074        0.737        0.318       91.397       22.487        0.061      345.527       23.120      857.364
10/14/2014  11:32:00     -113.889       40.063      -18.098       50.139       30.100       25.209     2513.888      906.003      635.474        0.948        0.203      120.730       20.455        0.029      345.431       22.955      857.351
10/14/2014  11:33:00      -71.538      -42.287       -1.892       51.829       32.190       27.983     2686.287     1036.211      783.074        0.571        0.225       83.102       30.248        0.132      345.536       23.137      857.363
10/14/2014  11:34:00     -192.478      -97.912      -15.181       95.681       89.426       45.713     9154.885     7997.041     2089.684        3.305        0.962      215.950       48.652        0.051      345.493       23.059      857.389
10/14/2014  11:35:00      -55.533      -41.861        8.854       79.023       56.144       34.175     6244.685     3152.159     1167.951        0.774        0.528       69.543       42.635        0.376      345.783       23.559      857.383
10/14/2014  11:36:00     -165.993      -53.185       -6.306      103.202       61.876       38.102    10650.693     3828.605     1451.767        2.317        0.797      174.306       48.476        0.077      345.531       23.125      857.369
10/14/2014  11:37:00      -64.705       21.290       14.680       61.505       43.596       32.616     3782.911     1900.644     1063.824        0.580        0.337       68.117       23.427        0.118      345.784       23.562      857.332
10/14/2014  11:38:00      -82.297      -17.111        0.392       61.669       58.205       29.597     3803.065     3387.839      875.961        0.756        0.403       84.057       27.844        0.110      345.719       23.451      857.299
10/14/2014  11:39:00     -141.233      -95.113        7.522      114.429       70.304       40.562    13094.050     4942.707     1645.263        2.436        0.984      170.274       52.690        0.096      345.531       23.127      857.283
10/14/2014  11:40:00     -223.848     -152.555       -5.242      121.514       77.608       58.859    14765.589     6023.066     3464.351        4.883        1.213      270.889       56.740        0.044      345.457       22.999      857.305
10/14/2014  11:41:00     -214.324        5.533      -13.163      135.456       66.322       44.107    18348.391     4398.579     1945.396        3.541        1.235      214.395       46.764        0.048      345.485       23.045      857.320
10/14/2014  11:42:00     -164.091       58.524      -12.055       62.860       52.581       38.725     3951.399     2764.790     1499.633        1.935        0.411      174.215       35.610        0.042      345.529       23.123      857.294
10/14/2014  11:43:00     -111.253       42.132      -11.514       61.086       56.595       31.791     3731.506     3202.982     1010.656        1.111        0.397      118.964       30.467        0.066      345.627       23.292      857.259
10/14/2014  11:44:00      -43.634      -57.204        8.112       60.744       53.078       43.081     3689.889     2817.325     1855.942        0.680        0.418       71.946       26.221        0.133      345.767       23.532      857.255
10/14/2014  11:45:00     -107.887      -96.883        1.025       79.339       49.659       32.737     6294.638     2466.035     1071.730        1.543        0.492      145.003       37.313        0.066      345.748       23.499      857.256
10/14/2014  11:46:00      -65.858     -110.003      -18.213       45.940       53.668       32.826     2110.506     2880.202     1077.557        1.142        0.303      128.210       25.746        0.040      345.536       23.137      857.252
10/14/2014  11:47:00       -7.112      -80.070        0.241       41.728       32.394       27.247     1741.255     1049.351      742.417        0.500        0.177       80.385       13.209        0.027      345.692       23.404      857.218
10/14/2014  11:48:00      -73.018      -53.128        3.755       64.873       35.589       38.342     4208.447     1266.600     1470.135        0.756        0.347       90.301       35.890        0.158      345.559       23.176      857.171
10/14/2014  11:49:00      -93.092      -50.397       -6.966       37.048       29.785       22.195     1372.578      887.169      492.638        0.700        0.138      105.858       21.601        0.042      345.459       23.003      857.132
10/14/2014  11:50:00      -89.513     -126.467       -2.981       55.030       81.499       28.815     3028.255     6642.084      830.299        1.726        0.525      154.940       28.807        0.035      345.454       22.994      857.132
10/14/2014  11:51:00      -38.308     -104.922       13.961       34.320      106.715       45.452     1177.842    11388.073     2065.926        1.365        0.732      111.697       62.020        0.308      345.651       23.333      857.131
10/14/2014  11:52:00      -52.840      -52.766       24.432       69.344       64.645       41.998     4808.523     4178.954     1763.823        0.846        0.538       74.675       45.113        0.365      345.846       23.668      857.120
10/14/2014  11:53:00     -121.121       -4.404       10.327       78.958       51.583       35.554     6234.429     2660.820     1264.061        1.248        0.508      121.201       40.369        0.111      345.692       23.402      857.116
10/14/2014  11:54:00      -42.587       -4.012       -0.311       24.633       28.919       22.621      606.799      836.327      511.731        0.189        0.098       42.776       18.822        0.194      345.828       23.638      857.114
10/14/2014  11:55:00     -130.798      -49.148       -8.143       28.905       30.637       20.371      835.492      938.645      414.960        1.089        0.109      139.727       15.296        0.012      345.728       23.466      857.102
10/14/2014  11:56:00     -133.063      -59.471        7.676       70.950       52.494       32.383     5033.849     2755.581     1048.684        1.507        0.442      145.748       32.865        0.051      345.774       23.543      857.056
10/14/2014  11:57:00     -137.773      -90.390       -6.564       66.671       40.027       32.064     4445.011     1602.134     1028.077        1.713        0.354      164.778       20.284        0.015      345.635       23.307      857.015
10/14/2014  11:58:00     -105.005      -47.849        8.498       73.947       52.312       37.687     5468.174     2736.515     1420.277        1.150        0.481      115.393       37.685        0.107      345.744       23.493      857.005
10/14/2014  11:59:00     -128.763      -90.072       11.713       96.268       54.546       38.287     9267.515     2975.214     1465.907        1.927        0.685      157.140       44.395        0.080      345.807       23.600      857.019
10/14/2014  12:00:00     -158.770     -215.755       -5.406       97.965      135.826       57.205     9597.219    18448.780     3272.403        5.155        1.566      267.877       63.573        0.056      345.843       23.661      857.011
10/14/2014  12:01:00      -39.477     -129.211       -6.540       52.508       83.126       38.247     2757.102     6909.891     1462.865        1.471        0.556      135.107       26.830        0.039      345.885       23.734      856.995
10/14/2014  12:02:00      -25.632      -99.589        1.269       60.114       82.682       44.103     3613.716     6836.340     1945.105        1.148        0.620      102.835       36.202        0.124      346.115       24.130      856.949
10/14/2014  12:03:00       -1.638     -101.600       -2.843       88.466       62.057       50.186     7826.243     3851.042     2518.646        1.226        0.710      101.613       39.736        0.153      346.129       24.154      856.929
10/14/2014  12:04:00      -45.401      -46.213       14.801       93.402       57.553       41.728     8723.941     3312.314     1741.207        0.909        0.689       64.784       46.073        0.506      346.157       24.203      856.954
10/14/2014  12:05:00      -65.624      -38.556        2.618       75.443       98.752       37.556     5691.615     9752.053     1410.445        1.132        0.843       76.113       37.616        0.244      346.141       24.175      856.957
10/14/2014  12:06:00      -31.684      -67.446      -13.293       97.398       80.296       37.327     9486.317     6447.487     1393.304        1.153        0.866       74.518       17.433        0.055      346.104       24.112      856.939
10/14/2014  12:07:00      -98.243       12.683       12.519       62.946       66.718       41.576     3962.247     4451.253     1728.596        1.005        0.507       99.058       38.969        0.155      345.995       23.924      856.889
10/14/2014  12:08:00        8.486      -84.269       22.514       57.958       65.161       42.973     3359.078     4245.924     1846.664        0.856        0.473       84.695       35.546        0.176      346.261       24.382      856.848
10/14/2014  12:09:00     -112.348     -227.588      -11.421       69.955       69.153       44.130     4893.704     4782.073     1947.469        3.808        0.581      253.808       43.879        0.030      345.900       23.759      856.826
10/14/2014  12:10:00      -32.443     -151.017        9.397       30.734       44.524       27.120      944.549     1982.367      735.519        1.380        0.183      154.462        6.729        0.002      345.934       23.819      856.812
10/14/2014  12:11:00      -64.236      -86.010       11.010       70.936       53.321       34.178     5031.849     2843.111     1168.164        1.034        0.452      107.350       34.795        0.105      346.094       24.094      856.814
10/14/2014  12:12:00       -3.470     -114.925        3.928       68.992       81.369       60.790     4759.956     6620.991     3695.463        1.415        0.754      114.978       43.077        0.140      346.112       24.124      856.810
10/14/2014  12:13:00      -80.882     -158.309       -5.609      191.275      124.702       70.214    36586.278    15550.659     4929.988        4.434        2.853      177.774       70.571        0.158      345.938       23.824      856.804
10/14/2014  12:14:00      -12.992     -182.101       -1.530      118.716      179.664       51.070    14093.537    32279.225     2608.147        4.115        2.449      182.564       68.315        0.140      345.820       23.621      856.832
10/14/2014  12:15:00       73.757     -162.729       -1.849       79.316       76.941       62.097     6291.045     5919.982     3856.082        2.399        0.803      178.664       35.754        0.040      345.838       23.653      856.818
10/14/2014  12:16:00       44.733      -95.356       18.608      126.878      122.741       65.114    16097.965    15065.260     4239.806        2.342        1.770      105.328       65.217        0.383      345.881       23.727      856.789
10/14/2014  12:17:00      -53.954     -159.856      -10.201      103.558       68.649       56.588    10724.162     4712.673     3202.206        2.360        0.932      168.716       44.390        0.069      345.731       23.468      856.775
10/14/2014  12:18:00      -38.301     -119.758        8.828       66.366       46.211       40.608     4404.384     2135.497     1648.997        1.204        0.409      125.734       37.869        0.091      345.743       23.491      856.762
10/14/2014  12:19:00       23.535      -88.875       -4.458       61.526       68.612       49.846     3785.506     4707.664     2484.619        0.972        0.549       91.939       43.729        0.226      345.945       23.839      856.789
10/14/2014  12:20:00       24.984      -44.817       -2.923       44.463       77.546       29.934     1976.987     6013.395      896.032        0.576        0.444       51.311       30.661        0.357      346.070       24.053      856.772
10/14/2014  12:21:00       54.871     -237.565      -17.338      135.450      105.812       67.657    18346.698    11196.267     4577.498        4.693        1.706      243.819       49.334        0.041      345.908       23.771      856.786
10/14/2014  12:22:00       42.965     -165.549      -20.279       98.364       97.729       57.670     9675.535     9550.954     3325.882        2.610        1.128      171.034       49.231        0.083      345.960       23.863      856.742
10/14/2014  12:23:00       58.672     -152.389      -14.063       86.296       88.429       43.822     7447.025     7819.713     1920.407        2.202        0.859      163.294       39.732        0.059      345.882       23.728      856.744
10/14/2014  12:24:00     -143.030      -97.700       -2.204       70.059      105.213       38.335     4908.201    11069.773     1469.574        2.372        0.872      173.213       35.687        0.042      345.895       23.751      856.753
10/14/2014  12:25:00     -198.640     -176.231      -10.862       94.288      105.200       53.343     8890.174    11067.015     2845.491        4.671        1.140      265.547       41.901        0.025      345.844       23.661      856.712
10/14/2014  12:26:00     -123.743      -99.512        7.969       89.508       95.081       55.464     8011.660     9040.402     3076.310        2.270        1.006      158.792       62.823        0.157      345.985       23.906      856.694
10/14/2014  12:27:00      -96.137      -62.557       22.306      102.795       61.819       48.405    10566.739     3821.535     2343.063        1.519        0.837      114.698       42.432        0.137      345.943       23.833      856.664
10/14/2014  12:28:00      -81.917      -82.289       25.264       69.971      109.025       41.796     4895.911    11886.420     1746.884        1.632        0.926      116.112       45.494        0.154      346.017       23.961      856.613
10/14/2014  12:29:00      -28.081      -51.655        4.865       50.282       47.183       25.241     2528.309     2226.210      637.125        0.444        0.270       58.794       23.093        0.154      346.085       24.079      856.574
10/14/2014  12:30:00      -30.227      -53.455       -0.826       63.897       54.397       34.330     4082.821     2958.987     1178.564        0.599        0.411       61.409       32.096        0.273      346.126       24.149      856.562
10/14/2014  12:31:00      -52.081      -96.290        3.831      127.430       86.394       66.533    16238.517     7463.981     4426.649        2.006        1.406      109.472       42.594        0.151      346.000       23.931      856.547
10/14/2014  12:32:00      -13.848     -243.848       -5.744      156.587      134.039       84.959    24519.489    17966.515     7218.085        5.469        2.485      244.241       63.983        0.069      345.923       23.798      856.510
10/14/2014  12:33:00      -40.706     -223.378      -13.626       97.894       82.357       54.784     9583.320     6782.628     3001.282        3.555        0.968      227.057       50.034        0.049      345.928       23.805      856.491
10/14/2014  12:34:00        6.350     -105.556       16.057       79.064       97.288       60.357     6251.144     9464.979     3642.997        1.540        0.968      105.747       52.624        0.248      346.079       24.068      856.506
10/14/2014  12:35:00        9.620      -90.385        2.868       77.738       88.058       49.283     6043.151     7754.187     2428.815        1.225        0.811       90.895       47.327        0.271      346.134       24.162      856.509
10/14/2014  12:36:00      -26.465      -88.444        8.313       78.771       95.828       78.648     6204.911     9182.986     6185.444        1.508        1.079       92.318       56.157        0.370      346.149       24.188      856.505
10/14/2014  12:37:00      -16.468      -99.820        0.561      113.434       73.381       50.875    12867.245     5384.729     2588.303        1.553        1.042      101.169       42.770        0.179      346.170       24.224      856.493
10/14/2014  12:38:00      133.648     -232.927        6.035       85.863      145.777       65.149     7372.510    21250.855     4244.435        5.251        1.643      268.546       62.593        0.054      346.148       24.183      856.467
10/14/2014  12:39:00       35.635     -134.919      -11.045      141.441      105.670       72.184    20005.527    11166.115     5210.571        2.798        1.819      139.546       68.278        0.239      346.201       24.275      856.449
10/14/2014  12:40:00      -64.661     -117.153       -0.586       43.164       68.298       22.623     1863.167     4664.551      511.798        1.247        0.352      133.813       20.096        0.023      346.216       24.303      856.462
10/14/2014  12:41:00     -107.887     -149.252      -10.081      108.882      109.033       63.983    11855.215    11888.131     4093.854        3.092        1.392      184.163       68.030        0.136      346.255       24.369      856.453
10/14/2014  12:42:00       24.472     -183.442        0.848      138.621      136.557       75.698    19215.655    18647.774     5730.114        3.891        2.180      185.067       55.561        0.090      346.314       24.470      856.398
10/14/2014  12:43:00      -86.191     -119.684       -8.235       89.176       88.624       61.902     7952.326     7854.258     3831.893        2.073        0.982      147.490       49.313        0.112      346.396       24.611      856.410
10/14/2014  12:44:00       13.731      -85.603       22.455       72.583      111.187       67.947     5268.295    12362.495     4616.744        1.513        1.112       86.697       55.230        0.406      346.433       24.675      856.408
10/14/2014  12:45:00      140.989     -368.140      -19.537      175.308      168.270       88.060    30732.748    28314.903     7754.551       11.128        3.340      394.215       82.180        0.043      346.054       24.023      856.390
10/14/2014  12:46:00        4.191     -200.700      -14.800       71.048      153.193       78.423     5047.772    23468.021     6150.142        3.759        1.733      200.744       70.415        0.123      346.200       24.275      856.354
10/14/2014  12:47:00       15.965     -147.771      -12.021       91.354       92.221       46.394     8345.612     8504.640     2152.360        2.062        0.950      148.631       37.855        0.065      346.156       24.199      856.345
10/14/2014  12:48:00      -22.740      -42.547       19.322       42.499       68.008       41.915     1806.200     4625.051     1756.901        0.544        0.409       48.242       21.903        0.206      346.547       24.874      856.313
10/14/2014  12:49:00      -67.902     -153.868        4.564      186.691      143.332       84.074    34853.373    20544.053     7068.390        4.538        3.123      168.184       58.655        0.122      346.378       24.578      856.313
10/14/2014  12:50:00     -160.731     -144.086       -2.571       98.423      104.397       57.871     9686.992    10898.731     3349.057        3.526        1.197      215.860       47.160        0.048      346.313       24.467      856.375
10/14/2014  12:51:00     -191.283      -69.966       -3.797       75.836       91.440       42.885     5751.154     8361.335     1839.104        2.872        0.798      203.678       23.196        0.013      346.348       24.528      856.337
10/14/2014  12:52:00     -256.437     -214.340        5.180      173.769      128.267       74.641    30195.700    16452.388     5571.293        8.197        2.611      334.218       90.013        0.073      346.065       24.040      856.326
10/14/2014  12:53:00     -342.667     -216.562        1.728      174.254      123.488       77.591    30364.495    15249.347     6020.361       10.797        2.582      405.364       77.794        0.037      346.047       24.011      856.264
10/14/2014  12:54:00     -180.828     -127.611       25.486      189.794      157.296       62.269    36021.783    24741.909     3877.367        5.713        3.232      221.322       72.401        0.107      346.351       24.535      856.278
10/14/2014  12:55:00      -48.505      -91.759        0.773      128.494      128.378       83.801    16510.816    16480.936     7022.540        2.539        2.001      103.791       70.552        0.462      346.349       24.531      856.282
10/14/2014  12:56:00       59.360     -231.381      -11.926      102.120      125.619       78.588    10428.494    15780.058     6176.093        4.479        1.619      238.874       59.326        0.062      346.214       24.297      856.211
10/14/2014  12:57:00       53.568     -102.977       26.949       93.519      164.637       88.311     8745.813    27105.301     7798.804        2.892        2.182      116.076      110.940        0.913      346.398       24.615      856.204
10/14/2014  12:58:00      -84.822     -208.415       26.677      148.098      185.782       99.267    21932.961    34514.853     9853.947        5.881        3.315      225.015       92.887        0.170      346.228       24.322      856.175
10/14/2014  12:59:00       12.653     -342.159       -6.892      144.189      128.773       78.870    20790.498    16582.524     6220.439        8.043        2.180      342.393       45.404        0.018      345.994       23.918      856.232
10/14/2014  13:00:00       11.268     -249.592      -14.781      175.998      186.432      104.415    30975.184    34757.019    10902.461        6.963        3.832      249.846       96.941        0.151      346.159       24.204      856.155
10/14/2014  13:01:00       45.130     -189.680       12.636      181.134      178.005      106.191    32809.517    31685.718    11276.528        5.696        3.789      194.975      112.721        0.334      346.156       24.197      856.103
10/14/2014  13:02:00      118.788     -148.469       10.109       92.841      107.120       77.102     8619.451    11474.685     5944.669        3.114        1.302      190.141       79.734        0.176      346.144       24.178      856.087
10/14/2014  13:03:00      -22.131      -35.428       31.800       42.655       80.707       54.929     1819.477     6513.631     3017.183        0.705        0.568       41.772       53.624        1.648      346.515       24.819      856.051
10/14/2014  13:04:00      -37.854      -98.753      -22.666       65.765       58.625       37.412     4325.052     3436.920     1399.663        1.043        0.458      105.759       31.568        0.089      346.415       24.646      856.042
10/14/2014  13:05:00     -196.745     -114.234        1.785      167.684       96.963       61.971    28118.081     9401.798     3840.461        4.655        2.068      227.504       82.507        0.132      346.386       24.594      856.030
10/14/2014  13:06:00     -199.892     -212.584      -14.387      211.753      138.271       77.969    44839.264    19118.842     6079.242        7.768        3.502      291.803       93.136        0.102      346.422       24.657      856.044
10/14/2014  13:07:00      -38.860     -128.461       -0.421      132.199      121.897       79.416    17476.673    14858.979     6306.850        2.832        1.932      134.210       67.829        0.255      346.379       24.582      856.022
10/14/2014  13:08:00       20.246     -163.558       -1.844      110.704      122.030       68.580    12255.287    14891.348     4703.165        2.950        1.592      164.806       67.517        0.168      346.474       24.744      856.013
10/14/2014  13:09:00      103.301     -164.768       14.353      115.733      135.583       90.186    13394.019    18382.800     8133.562        3.896        1.996      194.473       91.839        0.223      346.434       24.674      855.989
10/14/2014  13:10:00       95.928     -139.104       34.544      135.591      136.450       71.959    18384.826    18618.616     5178.166        3.596        2.109      168.974       76.855        0.207      346.464       24.729      855.970
10/14/2014  13:11:00       -5.025     -111.307        3.650       97.355      122.297       75.310     9477.951    14956.637     5671.623        2.126        1.505      111.421       64.809        0.338      346.536       24.853      855.934
10/14/2014  13:12:00      -51.982     -126.084        5.249       83.693       98.081       64.077     7004.451     9619.840     4105.863        1.968        1.037      136.379       44.546        0.107      346.398       24.615      855.909
10/14/2014  13:13:00      -38.712      -69.560       18.125      154.256      142.909       76.286    23794.811    20423.089     5819.565        2.834        2.502       79.607       70.826        0.792      346.353       24.537      855.906
10/14/2014  13:14:00       37.266     -252.672      -12.972      164.528      199.169       94.411    27069.430    39668.456     8913.376        7.051        3.783      255.406       92.090        0.130      346.314       24.469      855.858
10/14/2014  13:15:00     -283.828     -292.213      -22.627      138.532      178.756       81.388    19190.983    31953.763     6623.997       11.210        2.888      407.366       85.409        0.044      346.183       24.244      855.912
10/14/2014  13:16:00      -30.378     -368.681       -8.223      169.135      214.895       87.748    28606.646    46179.793     7699.720       10.969        4.124      369.930       73.043        0.039      346.143       24.175      855.909
10/14/2014  13:17:00      -86.046     -358.940      -24.004      134.283      144.741       87.302    18032.018    20949.942     7621.649        9.170        2.330      369.109       65.586        0.032      346.058       24.027      855.923
10/14/2014  13:18:00     -120.012     -329.156       -8.295      185.624      172.274       79.378    34456.157    29678.457     6300.923        9.661        3.522      350.352       78.037        0.050      346.092       24.089      855.865
10/14/2014  13:19:00     -197.199     -253.772      -30.687       85.072       98.530       46.624     7237.214     9708.228     2173.780        6.167        0.956      321.383       36.309        0.013      346.097       24.095      855.861
10/14/2014  13:20:00     -105.876      -58.088        5.651       84.193       80.606       57.686     7088.472     6497.325     3327.617        1.576        0.846      120.764       46.696        0.150      346.440       24.689      855.807
10/14/2014  13:21:00      -46.144     -101.002       -6.939      126.596       97.796       57.423    16026.523     9564.026     3297.423        2.063        1.444      111.043       67.467        0.369      346.519       24.824      855.805
10/14/2014  13:22:00     -138.307     -145.056        5.265       85.835      110.345       69.092     7367.667    12176.111     4773.714        3.225        1.216      200.424       50.932        0.065      346.464       24.728      855.787
10/14/2014  13:23:00     -110.511      -91.071       10.372      138.597       81.664       55.007    19209.133     6668.979     3025.724        2.475        1.445      143.201       42.616        0.089      346.608       24.976      855.811
10/14/2014  13:24:00     -103.030     -229.115       -3.077      112.364      142.410       54.488    12625.563    20280.565     2968.969        4.949        1.794      251.215       38.805        0.024      346.281       24.413      855.824
10/14/2014  13:25:00      -20.383      -80.080       -5.635       79.993       94.432       67.944     6398.936     8917.332     4616.438        1.339        0.997       82.634       54.963        0.442      346.692       25.121      855.839
10/14/2014  13:26:00      112.974     -146.544       19.160      119.762      124.870       74.764    14342.945    15592.418     5589.656        3.506        1.776      185.036       61.197        0.109      346.414       24.642      855.778
10/14/2014  13:27:00      -66.268       11.891       36.919       99.933       72.920       56.223     9986.583     5317.380     3161.056        1.218        0.923       67.327       36.637        0.296      346.628       25.011      855.756
10/14/2014  13:28:00     -171.523     -112.584       21.491      178.344      132.505       75.253    31806.684    17557.469     5662.976        4.878        2.751      205.172       85.594        0.174      346.366       24.560      855.718
10/14/2014  13:29:00      -37.206     -142.348        1.846      123.731      104.338       56.197    15309.264    10886.385     3158.135        2.550        1.468      147.130       53.172        0.131      346.590       24.945      855.737
10/14/2014  13:30:00      127.404     -329.637      -37.733      173.967      130.236       78.209    30264.486    16961.322     6116.607        8.982        2.667      353.401       54.714        0.024      346.390       24.599      855.766
10/14/2014  13:31:00       96.840     -195.898       32.446      174.045      210.755      128.603    30291.604    44417.499    16538.610        7.001        4.562      218.527      137.710        0.397      346.361       24.551      855.730
10/14/2014  13:32:00       48.564     -262.794      -23.740      177.322      158.230       92.766    31442.958    25036.684     8605.606        6.852        3.254      267.244       87.110        0.106      346.280       24.411      855.730
10/14/2014  13:33:00      -51.780      -95.293       -7.375      108.317       73.994       49.686    11732.502     5475.120     2468.658        1.574        0.984      108.452       44.086        0.165      346.483       24.762      855.764
10/14/2014  13:34:00       17.387      -90.651       33.961      116.703      102.434       66.876    13619.704    10492.814     4472.355        1.912        1.429       92.303       67.129        0.529      346.715       25.161      855.731
10/14/2014  13:35:00      -42.404      -90.360       10.886      116.775      126.580       71.209    13636.399    16022.580     5070.651        2.240        1.736       99.815       66.803        0.448      346.432       24.673      855.726
10/14/2014  13:36:00      -45.767      -63.995        8.905       56.183       92.991       52.664     3156.475     8647.275     2773.453        1.042        0.729       78.676       45.263        0.331      346.540       24.862      855.707
10/14/2014  13:37:00       53.935     -163.591       30.576      149.115      125.891       73.755    22235.413    15848.526     5439.861        3.706        2.176      172.253       76.594        0.198      346.393       24.608      855.689
10/14/2014  13:38:00       40.299     -136.772       15.348      146.414      135.075       70.588    21437.009    18245.240     4982.685        3.261        2.233      142.585       59.071        0.172      346.424       24.661      855.645
10/14/2014  13:39:00       39.039     -355.215      -42.726      220.383      186.205      122.180    48568.745    34672.127    14928.065       11.383        4.908      357.353       81.431        0.052      346.279       24.408      855.558
10/14/2014  13:40:00      -43.248     -229.525       22.737      147.648      106.784       68.595    21799.901    11402.758     4705.225        4.648        1.895      233.564       53.274        0.052      346.383       24.587      855.668
10/14/2014  13:41:00      -95.849     -126.953       29.304      129.307      123.918       70.218    16720.356    15355.680     4930.623        3.158        1.850      159.073       51.019        0.103      346.371       24.568      855.658
10/14/2014  13:42:00       54.358     -151.629       11.141      133.397      139.721       70.454    17794.791    19521.919     4963.781        3.417        2.114      161.078       65.131        0.163      346.275       24.404      855.610
10/14/2014  13:43:00      -13.415     -203.404       -6.102      237.005      149.743      104.106    56171.333    22422.976    10837.962        6.550        4.472      203.846       74.532        0.134      346.187       24.251      855.602
10/14/2014  13:44:00        1.479     -280.442      -22.228      183.923      136.409       90.093    33827.709    18607.426     8116.824        6.984        3.028      280.446       64.984        0.054      346.177       24.234      855.544
10/14/2014  13:45:00      150.780     -204.561       10.220      108.743      145.753       81.370    11824.971    21244.019     6621.124        5.218        1.985      254.126       86.854        0.117      346.360       24.549      855.542
10/14/2014  13:46:00       73.702     -107.000       59.791      122.623      200.085      131.374    15036.347    40033.899    17259.117        4.638        3.616      129.926      127.986        0.970      346.401       24.620      855.481
10/14/2014  13:47:00        3.131     -221.956      -16.194      117.502      140.824       69.025    13806.707    19831.331     4764.425        4.396        1.920      221.978       63.569        0.082      346.370       24.567      855.521
10/14/2014  13:48:00      -22.874      -97.165      -17.731       52.223       80.743       46.733     2727.208     6519.437     2183.940        1.085        0.572       99.821       38.064        0.145      346.573       24.919      855.525
10/14/2014  13:49:00       14.960      -63.439       30.951       91.134      109.131       64.682     8305.469    11909.511     4183.765        1.480        1.220       65.179       61.269        0.884      346.709       25.152      855.509
10/14/2014  13:50:00       87.781     -184.290       -2.315      125.021      145.497       61.529    15630.370    21169.505     3785.781        4.112        2.029      204.128       63.078        0.095      346.413       24.641      855.574
10/14/2014  13:51:00      150.366     -204.417       48.410      168.059      246.816      119.294    28243.901    60918.327    14231.161        8.505        5.170      253.764      141.340        0.310      346.272       24.396      855.563
10/14/2014  13:52:00      137.272     -197.034       -1.859      156.162      129.871       75.732    24386.469    16866.367     5735.317        5.232        2.349      240.138       56.226        0.055      346.257       24.372      855.566
10/14/2014  13:53:00       34.499     -104.362       39.080       98.064      123.936       85.411     9616.479    15360.012     7295.063        2.293        1.614      109.916       82.047        0.557      346.398       24.614      855.542
10/14/2014  13:54:00        6.725     -237.980      -33.489      157.597      128.813       84.088    24836.889    16592.883     7070.827        5.314        2.425      238.075       82.731        0.121      346.275       24.403      855.515
10/14/2014  13:55:00      -71.583     -223.907      -36.252      134.264      129.322       85.873    18026.766    16724.290     7374.128        4.934        2.106      235.071       51.523        0.048      346.399       24.617      855.472
10/14/2014  13:56:00     -278.547     -166.230      -11.620      126.214      103.897       58.667    15929.937    10794.514     3441.797        6.776        1.508      324.377       61.819        0.036      346.246       24.351      855.501
10/14/2014  13:57:00     -130.607     -118.417       18.629      147.070      102.073       62.797    21629.551    10418.941     3943.445        3.370        1.800      176.298       69.139        0.154      346.558       24.890      855.555
10/14/2014  13:58:00     -124.493     -250.453        9.354      122.692      109.750       64.501    15053.222    12045.065     4160.416        5.478        1.563      279.687       45.347        0.026      346.192       24.259      855.562
10/14/2014  13:59:00     -131.048     -160.870        4.984      126.157      113.292       56.350    15915.714    12835.132     3175.330        3.750        1.596      207.492       57.593        0.077      346.282       24.415      855.543
10/14/2014  14:00:00     -166.208     -103.037        2.325      144.970       74.313       51.624    21016.283     5522.443     2665.087        3.372        1.460      195.555       62.539        0.102      346.520       24.825      855.546
10/14/2014  14:01:00      -87.697     -253.653      -19.450      156.139      153.151       70.497    24379.234    23455.187     4969.857        6.260        2.640      268.385       62.194        0.054      346.350       24.531      855.557
10/14/2014  14:02:00     -140.666      -72.818      -18.237       95.974       98.705       61.164     9210.963     9742.699     3741.055        2.405        1.135      158.396       25.863        0.027      346.273       24.399      855.541
10/14/2014  14:03:00      -31.372     -165.279      -43.209      103.301      106.142       67.443    10671.186    11266.052     4548.491        2.832        1.324      168.230       27.109        0.026      346.297       24.441      855.481
10/14/2014  14:04:00     -225.254     -135.831       -1.912      213.115      132.568       77.368    45418.213    17574.307     5985.784        6.907        3.449      263.039      100.534        0.146      346.440       24.687      855.474
10/14/2014  14:05:00     -169.832     -171.687       -3.248      174.980      108.755       69.119    30618.148    11827.589     4777.456        5.277        2.361      241.494       62.636        0.067      346.394       24.606      855.410
10/14/2014  14:06:00      -69.063     -166.866       35.993      148.018      168.155       72.304    21909.418    28276.124     5227.885        4.465        2.771      180.593       74.881        0.172      346.636       25.024      855.416
10/14/2014  14:07:00     -289.335     -402.108      -18.331      204.832      192.519      104.341    41956.331    37063.551    10887.099       16.781        4.495      495.384       93.162        0.035      346.174       24.229      855.425
10/14/2014  14:08:00     -142.908     -100.083      -13.456      151.957       75.224       63.535    23090.973     5658.688     4036.701        3.170        1.639      174.469       64.853        0.138      346.413       24.641      855.437
10/14/2014  14:09:00      105.450     -156.109      -15.720      131.421      131.426       80.454    17271.589    17272.910     6472.854        3.837        2.051      188.388       63.270        0.113      346.631       25.015      855.430
10/14/2014  14:10:00       98.081     -206.915        5.615      208.352      208.072      140.194    43410.509    43293.838    19654.372        7.939        5.318      228.984      132.019        0.332      346.512       24.811      855.346
10/14/2014  14:11:00      -38.448     -105.780       11.406       94.643      128.541       69.539     8957.298    16522.694     4835.730        2.155        1.516      112.550       77.549        0.475      346.622       25.001      855.341
10/14/2014  14:12:00       -6.280      -85.202       14.647       44.974       70.898       41.078     2022.642     5026.560     1687.389        0.812        0.437       85.433       40.127        0.221      346.816       25.334      855.363
10/14/2014  14:13:00       78.684     -101.565       21.980       75.353      135.927       58.526     5678.049    18476.088     3425.310        2.228        1.379      128.478       69.725        0.295      346.319       24.480      855.362
10/14/2014  14:14:00       36.788     -122.146       -2.329      114.350       87.525       46.777    13075.923     7660.594     2188.072        1.960        1.146      127.566       34.192        0.072      346.522       24.829      855.320
10/14/2014  14:15:00      -34.604     -187.814       -0.582      101.546      131.067       49.400    10311.597    17178.604     2440.368        3.320        1.497      190.975       26.132        0.019      346.360       24.550      855.329
10/14/2014  14:16:00      -23.081     -501.726      -33.748      152.406      177.067       93.439    23227.497    31352.887     8730.872       15.835        3.166      502.257       92.035        0.034      346.133       24.158      855.340
10/14/2014  14:17:00       30.553     -188.167       25.655      135.352      173.234       66.085    18320.125    30009.881     4367.239        4.484        2.635      190.631       76.338        0.160      346.367       24.561      855.267
10/14/2014  14:18:00      100.172     -167.527       29.679       94.700      161.924       87.109     8968.179    26219.282     7587.907        4.087        2.139      195.192       97.042        0.247      346.482       24.758      855.197
10/14/2014  14:19:00      179.782     -274.281      -28.744      109.882      150.000       85.471    12074.083    22500.096     7305.372        7.512        2.094      327.951       50.520        0.024      346.047       24.010      855.147
10/14/2014  14:20:00       98.131       15.230       87.679      127.039      213.800      148.072    16138.807    45710.544    21925.350        5.065        4.189       99.306      163.551        2.712      346.233       24.330      855.072
10/14/2014  14:21:00      106.434      -31.219      141.698      160.728      232.149      137.960    25833.605    53893.134    19032.935        6.555        4.938      110.918      164.651        2.204      346.322       24.482      854.960
10/14/2014  14:22:00      -95.400     -406.645       -4.016      305.533      299.871      114.453    93350.353    89922.562    13099.410       18.539        9.819      417.685      129.330        0.096      346.290       24.428      855.066
10/14/2014  14:23:00     -230.266      -62.097        7.062      206.486      135.925       76.893    42636.285    18475.635     5912.498        6.197        3.351      238.493       96.219        0.163      346.385       24.591      855.099
10/14/2014  14:24:00     -182.220     -113.677        7.194      122.271      113.998       67.207    14950.175    12995.544     4516.766        3.931        1.623      214.771       62.887        0.086      346.323       24.486      855.036
10/14/2014  14:25:00      -55.169     -168.202       -8.485      178.160       90.172       72.415    31741.113     8131.025     5243.958        3.825        2.256      177.018       63.849        0.130      346.498       24.787      854.999
10/14/2014  14:26:00        0.446      -39.095       27.651       35.114       62.741       40.475     1232.979     3936.422     1638.230        0.455        0.340       39.097       37.939        0.942      346.818       25.338      854.956
10/14/2014  14:27:00       36.812      -72.948        1.969       84.311       72.502       49.073     7108.360     5256.599     2408.152        1.072        0.739       81.710       34.964        0.183      346.427       24.666      854.883
10/14/2014  14:28:00       26.114     -119.344       15.143      134.727      135.832       80.452    18151.302    18450.247     6472.598        2.911        2.154      122.168       87.475        0.513      346.486       24.767      854.904
10/14/2014  14:29:00       90.691     -175.641       80.238      177.374      308.755      171.512    31461.432    95329.926    29416.279       10.083        7.810      197.673      206.476        1.091      346.371       24.567      854.861
10/14/2014  14:30:00      125.782      -46.072      157.425      179.345      253.683      167.005    32164.676    64354.862    27890.636        8.355        6.221      133.954      187.812        1.966      346.340       24.513      854.803
10/14/2014  14:31:00      103.860     -129.656       94.499      137.941      241.583      137.563    19027.662    58362.579    18923.699        6.640        4.816      166.125      156.825        0.891      346.317       24.475      854.853
10/14/2014  14:32:00      101.935      -16.318      118.739      153.869      226.772      140.575    23675.527    51425.568    19761.403        5.979        4.743      103.233      176.429        2.921      346.324       24.485      854.852
10/14/2014  14:33:00       17.960     -245.454        4.070      141.248      198.026       72.259    19950.946    39214.297     5221.379        6.248        3.219      246.110       60.134        0.060      346.420       24.650      854.911
10/14/2014  14:34:00       16.039     -148.806       48.509      151.146      255.728      137.077    22845.184    65397.012    18790.094        6.588        5.352      149.668      159.504        1.136      346.471       24.740      854.893
10/14/2014  14:35:00      176.841     -272.626      -29.604      172.002      128.741       87.372    29584.677    16574.282     7633.862        8.012        2.690      324.958       71.932        0.049      346.154       24.194      854.879
10/14/2014  14:36:00      -10.732     -186.917       13.622      147.612      125.648       82.029    21789.267    15787.408     6728.757        3.976        2.215      187.225       64.711        0.119      346.326       24.490      854.878
10/14/2014  14:37:00       74.576     -446.014      -17.335      188.091      242.525      108.059    35378.352    58818.258    11676.848       15.531        5.294      452.206      109.105        0.058      345.980       23.895      854.862
10/14/2014  14:38:00      -41.156     -168.986      -29.384      168.936      114.944       80.003    28539.439    13212.110     6400.417        3.962        2.408      173.925       54.194        0.097      346.164       24.212      854.789
10/14/2014  14:39:00      -33.312     -245.371        8.978      131.309      200.493       90.371    17242.119    40197.560     8166.848        6.349        3.280      247.622       83.783        0.114      346.151       24.191      854.828
10/14/2014  14:40:00       24.636     -228.340       13.890      115.515      179.184       85.088    13343.706    32106.784     7239.909        5.281        2.635      229.665       94.764        0.170      346.249       24.356      854.810
10/14/2014  14:41:00       27.738     -199.009       -0.360      117.920      157.340       58.957    13905.181    24755.964     3475.906        4.125        2.107      200.932       57.613        0.082      346.302       24.450      854.822
10/14/2014  14:42:00       60.309      -80.461       34.339       89.424      148.438       55.949     7996.665    22033.950     3130.241        2.222        1.658      100.554       72.257        0.516      346.365       24.558      854.800
10/14/2014  14:43:00       -7.136      -92.231       41.051       71.782      106.820       75.805     5152.590    11410.493     5746.428        1.627        1.115       92.507       60.582        0.429      346.470       24.740      854.738
10/14/2014  14:44:00       87.209      -89.677       58.949      122.239      208.526      117.223    14942.360    43483.105    13741.286        4.563        3.608      125.089      138.141        1.220      346.354       24.539      854.722
10/14/2014  14:45:00      -32.778     -185.663        0.862      133.988      138.027       71.273    17952.653    19051.357     5079.866        3.881        2.104      188.535       70.486        0.140      346.313       24.467      854.776
10/14/2014  14:46:00       10.112     -118.612       29.456      102.097      121.732       63.037    10423.828    14818.726     3973.718        2.212        1.461      119.042       61.440        0.266      346.516       24.818      854.762
10/14/2014  14:47:00      -34.437      -40.201       12.994       66.960       72.075       40.376     4483.705     5194.857     1630.232        0.714        0.565       52.934       29.691        0.315      346.712       25.155      854.785
10/14/2014  14:48:00       -8.584     -107.873       31.638       70.052       98.538       63.763     4907.223     9709.734     4065.752        1.569        0.934      108.214       63.814        0.348      346.393       24.607      854.787
10/14/2014  14:49:00       -0.817      -94.718      -10.581       62.604       96.764       60.713     3919.202     9363.303     3686.094        1.302        0.848       94.721       29.176        0.095      346.491       24.775      854.757
10/14/2014  14:50:00      -61.856     -286.579      -27.839      108.198      148.047       55.683    11706.902    21917.886     3100.625        6.172        1.836      293.179       39.302        0.018      346.181       24.241      854.738
10/14/2014  14:51:00       57.368     -315.434      -14.843      142.147      132.453       92.149    20205.749    17543.856     8491.530        7.462        2.312      320.609       52.744        0.027      346.179       24.236      854.712
10/14/2014  14:52:00       69.011     -260.449       -8.705      115.983      149.316       88.584    13452.117    22295.128     7847.189        5.813        2.180      269.437       82.888        0.095      346.197       24.267      854.658
10/14/2014  14:53:00      100.921     -255.449      -18.208      164.504      111.711       74.111    27061.637    12479.383     5492.487        6.039        2.252      274.662       53.424        0.038      346.245       24.350      854.635
10/14/2014  14:54:00      102.433     -229.809       23.919      101.044      129.413       86.468    10209.889    16747.825     7476.699        4.915        1.722      251.605       73.166        0.085      346.292       24.431      854.604
10/14/2014  14:55:00      -15.782      -42.935       49.718       72.931      175.470       87.047     5318.912    30789.636     7577.096        2.412        2.184       45.744       92.278        4.069      346.593       24.952      854.549
10/14/2014  14:56:00      -13.393     -272.457       -7.979      222.033      163.232      101.532    49298.670    26644.811    10308.837        8.035        4.313      272.786       96.080        0.124      346.443       24.690      854.518
10/14/2014  14:57:00       61.037     -201.085      -28.095      149.944      140.036       69.930    22483.255    19610.191     4890.157        4.596        2.349      210.144       58.766        0.078      346.362       24.553      854.563
10/14/2014  14:58:00     -108.787      -57.594        2.426      127.121       83.094       49.726    16159.629     6904.686     2472.664        2.034        1.277      123.093       54.684        0.197      346.530       24.843      854.522
10/14/2014  14:59:00       -8.875     -138.604       -0.745       83.346       89.710       57.753     6946.534     8047.826     3335.383        1.881        0.916      138.888       48.804        0.123      346.527       24.836      854.506
10/14/2014  15:00:00      -88.222      -42.179        1.039      123.580       73.918       43.719    15271.932     5463.850     1911.364        1.610        1.132       97.787       52.988        0.294      346.563       24.899      854.480
10/14/2014  15:01:00        2.034      -26.281       19.156       41.966       62.403       30.632     1761.124     3894.088      938.334        0.383        0.330       26.359       28.611        1.178      346.826       25.354      854.443
10/14/2014  15:02:00       -9.360      -91.860        1.962       90.586       84.575       49.270     8205.807     7152.919     2427.485        1.315        0.889       92.335       24.278        0.069      346.647       25.044      854.396
10/14/2014  15:03:00       27.460      -13.554       35.830       49.754       69.393       35.743     2475.485     4815.446     1277.535        0.539        0.428       30.623       40.286        1.731      346.839       25.376      854.348
10/14/2014  15:04:00      -40.844      -25.351       16.100       49.368       46.954       36.653     2437.167     2204.699     1343.410        0.428        0.299       48.072       29.365        0.373      346.929       25.532      854.322
10/14/2014  15:05:00      -60.010     -107.954        0.551      130.410      171.570       66.428    17006.754    29436.153     4412.683        3.305        2.543      123.512       58.834        0.227      346.549       24.873      854.308
10/14/2014  15:06:00     -139.674     -210.299       -3.714      208.852      122.527       72.896    43619.280    15012.878     5313.810        6.384        3.197      252.457       56.037        0.049      346.572       24.913      854.328
10/14/2014  15:07:00     -210.238     -297.144       10.841      129.261      175.947       73.213    16708.414    30957.487     5360.211        9.281        2.651      363.998       62.753        0.030      346.259       24.374      854.373
10/14/2014  15:08:00     -197.795     -148.116       -8.360      137.785      142.281       63.552    18984.705    20243.746     4038.912        5.219        2.163      247.105       52.930        0.046      346.454       24.709      854.367
10/14/2014  15:09:00      -63.046     -174.991       43.698      258.409      160.603      110.786    66774.986    25793.347    12273.456        7.066        5.242      186.002       71.483        0.148      346.438       24.683      854.404
10/14/2014  15:10:00     -187.838     -209.902      -21.054      156.720      147.066       87.644    24561.308    21628.489     7681.463        6.682        2.694      281.677       87.698        0.097      346.325       24.489      854.387
10/14/2014  15:11:00     -126.152     -217.384       -1.058      108.656      197.054      100.828    11806.122    38830.168    10166.262        6.198        3.040      251.337      107.022        0.181      346.323       24.485      854.312
10/14/2014  15:12:00      -68.806      -88.601        9.588      105.310      115.060       67.891    11090.197    13238.815     4609.224        2.080        1.447      112.180       49.277        0.193      346.565       24.902      854.258
10/14/2014  15:13:00       86.671     -166.447        6.166       95.121      101.044       86.249     9048.070    10209.971     7438.887        3.097        1.335      187.660       66.597        0.126      346.340       24.514      854.267
10/14/2014  15:14:00      -75.175      -75.347      -11.684       46.014       80.586       35.251     2117.261     6494.049     1242.623        1.066        0.493      106.435       20.251        0.036      346.221       24.311      854.250
10/14/2014  15:15:00      -15.246      -93.651        2.875       53.678       69.887       27.433     2881.351     4884.211      752.568        0.876        0.426       94.883       22.549        0.056      346.476       24.750      854.258
10/14/2014  15:16:00       32.921     -104.058        2.503       84.694       77.029       46.797     7173.027     5933.456     2189.930        1.360        0.765      109.142       42.359        0.151      346.526       24.836      854.244
10/14/2014  15:17:00      -83.494     -105.347        4.834       90.838       82.667       54.382     8251.455     6833.851     2957.421        1.806        0.902      134.422       43.622        0.105      346.768       25.252      854.246
10/14/2014  15:18:00     -177.356      -97.192       12.411      134.377      105.102       67.258    18057.107    11046.358     4523.576        3.734        1.681      202.241       49.077        0.059      346.321       24.483      854.222
10/14/2014  15:19:00     -141.697      -80.281       -4.467      150.139      118.553       74.487    22541.661    14054.916     5548.382        3.434        2.107      162.859       90.176        0.307      346.365       24.558      854.147
10/14/2014  15:20:00       28.280     -179.804        4.721      143.610      179.571      101.521    20623.698    32245.682    10306.600        4.815        3.159      182.014      100.656        0.306      346.381       24.585      854.163
10/14/2014  15:21:00       95.371     -250.463      -17.791      214.882      183.651      121.524    46174.153    33727.791    14768.170        8.339        4.734      268.006      120.351        0.202      346.146       24.180      854.066
10/14/2014  15:22:00      -27.949     -306.521      -17.809      123.917      135.614       77.273    15355.438    18391.042     5971.108        6.738        1.986      307.792       34.157        0.012      346.149       24.185      854.092
10/14/2014  15:23:00       52.480     -189.979       -3.552      123.985      164.932       84.688    15372.238    27202.553     7172.121        4.429        2.487      197.094       91.971        0.218      346.219       24.307      854.056
10/14/2014  15:24:00      -56.922     -146.020      -14.395       92.355      135.424       53.827     8529.477    18339.723     2897.399        2.726        1.488      156.722       47.224        0.091      346.205       24.283      854.042
10/14/2014  15:25:00       23.778      -85.952       11.608      107.463      125.778       63.627    11548.347    15820.228     4048.367        1.975        1.571       89.181       68.313        0.587      346.295       24.439      854.039
10/14/2014  15:26:00       47.688       -6.557       65.828       81.857      100.646       72.586     6700.536    10129.591     5268.728        1.437        1.105       48.137       63.181        1.723      346.456       24.717      853.954
10/14/2014  15:27:00      115.111     -148.094       49.543      187.662      244.018      152.725    35217.060    59544.753    23324.774        7.784        5.904      187.570      168.411        0.806      346.207       24.286      853.915
10/14/2014  15:28:00       69.569     -185.455       -6.571       95.670      113.863       62.313     9152.744    12964.888     3882.908        3.263        1.300      198.074       54.517        0.076      346.281       24.413      853.932
10/14/2014  15:29:00      132.779     -165.497        6.871      129.224      120.410       75.219    16698.912    14498.588     5657.847        4.095        1.843      212.178       70.267        0.110      346.253       24.365      853.931
10/14/2014  15:30:00       -7.020      -82.637       43.676      100.893      125.075       85.704    10179.355    15643.874     7345.236        2.097        1.658       82.934       86.312        1.083      346.441       24.688      853.919
10/14/2014  15:31:00       85.669     -159.853        6.795      102.514      106.298       58.382    10509.112    11299.257     3408.430        2.907        1.261      181.362       54.143        0.089      346.412       24.637      853.945
10/14/2014  15:32:00        1.893     -115.037        7.978       80.884       77.684       64.301     6542.164     6034.757     4134.617        1.500        0.836      115.053       52.325        0.207      346.584       24.935      853.918
10/14/2014  15:33:00      -26.854     -144.942       10.880      119.557      124.122       57.468    14293.840    15406.351     3302.558        2.742        1.650      147.409       49.229        0.112      346.375       24.576      853.939
10/14/2014  15:34:00       81.581     -158.069       20.607      124.981      105.800       81.474    15620.150    11193.689     6638.000        3.275        1.673      177.880       58.595        0.109      346.240       24.342      853.935
10/14/2014  15:35:00      -32.386     -196.659        9.488      109.547      131.242       58.578    12000.644    17224.373     3431.432        3.623        1.633      199.307       64.020        0.103      346.385       24.591      853.944
10/14/2014  15:36:00       92.359      -34.294       66.038      134.878      118.729       78.737    18192.168    14096.587     6199.551        2.627        1.924       98.521       68.104        0.478      346.414       24.642      853.958
10/14/2014  15:37:00       47.467      -90.953       26.937       80.265      105.446       64.475     6442.432    11118.905     4156.982        1.648        1.086      102.594       57.948        0.319      346.359       24.550      853.906
10/14/2014  15:38:00      109.140     -327.753      -19.121      171.493      205.000      108.418    29409.814    42024.835    11754.417       10.143        4.159      345.447       94.431        0.075      346.210       24.289      853.899
10/14/2014  15:39:00       26.374     -203.110       18.310      138.697      147.348       77.131    19236.930    21711.395     5949.191        4.458        2.345      204.816       73.037        0.127      346.255       24.369      853.924
10/14/2014  15:40:00      -17.673     -154.755       10.364      136.257      160.646      113.350    18565.866    25807.222    12848.275        4.079        2.861      155.761      108.629        0.486      346.363       24.553      853.858
10/14/2014  15:41:00       24.486     -172.652       -2.490      138.881      158.425       63.774    19287.979    25098.603     4067.179        3.943        2.423      174.380       85.766        0.242      346.220       24.308      853.855
10/14/2014  15:42:00      -38.016     -191.728       -9.605       82.980       55.159       59.203     6885.698     3042.496     3504.942        2.586        0.672      195.461       35.131        0.032      346.249       24.358      853.849
10/14/2014  15:43:00       27.700     -135.046        2.269       87.367      122.174       54.791     7633.041    14926.410     3002.108        2.228        1.278      137.857       60.121        0.190      346.429       24.669      853.853
10/14/2014  15:44:00     -142.320     -135.364       38.424      162.703      145.270       92.719    26472.286    21103.330     8596.875        4.810        2.809      196.414       95.686        0.237      346.269       24.391      853.832
10/14/2014  15:45:00       -4.936     -175.669       27.936      138.629      145.669       87.220    19217.968    21219.541     7607.380        3.985        2.402      175.738       82.891        0.222      346.208       24.288      853.848
10/14/2014  15:46:00       80.166     -255.552      -10.622      152.443      155.312       68.954    23238.963    24121.669     4754.718        6.197        2.606      267.831       59.095        0.049      346.200       24.272      853.848
10/14/2014  15:47:00        7.801     -226.217      -11.459      155.871       85.182       50.743    24295.883     7256.013     2574.838        4.274        1.706      226.351       36.953        0.027      346.113       24.122      853.845
10/14/2014  15:48:00       60.327      -81.899       33.238      124.953      146.764       62.883    15613.172    21539.776     3954.314        2.627        2.055      101.720       69.700        0.470      346.161       24.207      853.810
10/14/2014  15:49:00      -23.689      -61.859       34.287       99.402       80.057       63.224     9880.687     6409.080     3997.298        1.292        1.014       66.239       45.434        0.470      346.405       24.629      853.824
10/14/2014  15:50:00       66.385     -224.009       10.575      165.201      176.764       81.219    27291.422    31245.528     6596.468        5.991        3.257      233.638       87.725        0.141      346.186       24.250      853.848
10/14/2014  15:51:00       -5.997     -132.222       14.212      123.312      139.528       80.514    15205.944    19468.135     6482.543        2.943        2.058      132.358       63.362        0.229      346.323       24.486      853.820
10/14/2014  15:52:00      -11.420     -123.253       11.911       63.899      114.047       65.264     4083.036    13006.831     4259.394        1.840        1.067      123.781       57.676        0.217      346.363       24.556      853.832
10/14/2014  15:53:00        9.568     -129.893        9.568       77.568      119.768       54.558     6016.853    14344.433     2976.601        2.019        1.167      130.245       57.053        0.192      346.435       24.680      853.845
10/14/2014  15:54:00      -45.489      -68.438       -9.793      114.098      113.820       58.266    13018.394    12955.037     3394.943        1.810        1.468       82.177       54.762        0.444      346.155       24.196      853.820
10/14/2014  15:55:00     -131.053      -82.492       12.535      114.948      132.015       64.334    13212.955    17427.925     4138.911        2.945        1.739      154.854       37.489        0.059      346.248       24.357      853.785
10/14/2014  15:56:00       24.817     -180.298      -18.888       79.203      120.745       75.584     6273.096    14579.453     5712.956        3.002        1.328      181.998       72.545        0.159      346.228       24.320      853.792
10/14/2014  15:57:00        7.761     -142.898       -3.565      114.196      119.279       58.866    13040.812    14227.436     3465.192        2.561        1.537      143.109       61.726        0.186      346.226       24.319      853.788
10/14/2014  15:58:00        8.190      -52.240       24.782       78.168       50.298       42.602     6110.299     2529.930     1814.964        0.693        0.523       52.878       27.367        0.268      346.377       24.581      853.780
10/14/2014  15:59:00       -2.980     -148.315       17.333      137.189      118.929       63.668    18820.802    14144.129     4053.650        2.966        1.851      148.345       66.114        0.199      346.272       24.397      853.801
10/14/2014  16:00:00       89.392     -274.258      -12.185      123.782      122.977       85.965    15322.105    15123.417     7389.972        6.059        1.892      288.459       71.375        0.061      346.171       24.224      853.836
10/14/2014  16:01:00        6.922     -346.432       -4.085      149.526      114.143       82.435    22358.169    13028.545     6795.584        8.112        2.109      346.501       45.903        0.018      346.192       24.260      853.896
10/14/2014  16:02:00      -64.616     -219.833        7.137      112.932      164.720       70.772    12753.685    27132.581     5008.622        4.872        2.245      229.133       62.651        0.075      346.251       24.362      853.903
10/14/2014  16:03:00      -24.172     -185.241       -4.057      116.171      106.056       64.101    13495.817    11247.929     4108.994        3.188        1.443      186.812       51.196        0.075      346.155       24.196      853.879
10/14/2014  16:04:00      121.257     -195.621       24.972      132.036      147.487       88.176    17433.550    21752.494     7775.053        5.027        2.348      230.154       72.437        0.099      346.013       23.951      853.872
10/14/2014  16:05:00       -0.821     -126.237       -0.928       81.024       62.858       47.881     6564.872     3951.153     2292.606        1.437        0.640      126.240       35.259        0.078      346.076       24.061      853.848
10/14/2014  16:06:00       34.160      -35.246       16.285       73.044       79.596       40.917     5335.497     6335.576     1674.234        0.801        0.667       49.083       49.734        1.027      346.198       24.273      853.797
10/14/2014  16:07:00      115.540     -185.089       -3.389      104.929       71.119       51.223    11010.067     5057.897     2623.775        3.315        0.935      218.191       40.496        0.034      346.139       24.169      853.784
10/14/2014  16:08:00       50.278      -26.372       52.581      108.921      123.300       83.886    11863.766    15202.888     7036.906        2.004        1.705       56.774       76.688        1.825      346.210       24.293      853.752
10/14/2014  16:09:00       76.113     -232.886      -23.224      137.948      168.724       76.817    19029.737    28467.721     5900.859        5.697        2.670      245.009       61.327        0.063      346.202       24.278      853.730
10/14/2014  16:10:00      -53.011     -105.645       -4.128       77.148       88.938       45.396     5951.778     7909.925     2060.793        1.495        0.796      118.199       41.859        0.125      346.294       24.436      853.844
10/14/2014  16:11:00     -112.367      -85.772        6.862       98.581       57.626       36.716     9718.312     3320.717     1348.053        1.721        0.719      141.362       34.797        0.061      346.398       24.615      853.839
10/14/2014  16:12:00     -200.193     -302.162       -7.297      163.620      117.123       76.208    26771.519    13717.699     5807.660        8.886        2.315      362.462       62.959        0.030      346.143       24.174      853.882
10/14/2014  16:13:00     -247.787     -184.805       -3.506      126.857       99.090       61.400    16092.716     9818.800     3770.011        6.262        1.484      309.114       56.600        0.034      346.180       24.238      853.881
10/14/2014  16:14:00     -235.230     -138.488       -8.945      124.921      111.447       62.965    15605.285    12420.381     3964.549        5.329        1.600      272.969       51.700        0.036      346.164       24.210      853.902
10/14/2014  16:15:00     -187.106      -74.917       20.999      151.516       97.468       63.389    22957.100     9500.048     4018.158        3.876        1.824      201.547       65.287        0.105      346.170       24.223      853.895
10/14/2014  16:16:00     -192.052      -97.571        2.122      112.850       68.387       42.108    12735.156     4676.726     1773.113        3.279        0.959      215.416       47.831        0.049      346.166       24.214      853.896
10/14/2014  16:17:00     -230.844     -254.509        1.884      161.857      168.128       83.222    26197.563    28266.986     6925.862        8.972        3.070      343.604       82.964        0.058      346.046       24.010      853.870
10/14/2014  16:18:00     -163.831      -98.187       43.844      233.181      141.377       82.873    54373.584    19987.552     6868.011        5.980        4.061      191.001      104.100        0.297      346.113       24.124      853.822
10/14/2014  16:19:00      -34.035     -182.298      -34.921      120.673      141.255       69.971    14561.853    19952.993     4895.903        3.750        1.971      185.448       70.471        0.144      346.136       24.164      853.889
10/14/2014  16:20:00      -31.498     -133.945       27.535      106.854      114.542       65.420    11417.776    13119.797     4279.791        2.425        1.441      137.599       61.024        0.197      346.034       23.989      853.854
10/14/2014  16:21:00     -305.929     -176.022        5.663      170.673      127.030       82.199    29129.391    16136.567     6756.714        8.831        2.601      352.954       88.532        0.063      345.940       23.826      853.908
10/14/2014  16:22:00     -285.248     -222.883      -15.573      149.205      183.304       70.402    22262.267    33600.257     4956.467        9.604        3.041      361.999       60.186        0.028      345.885       23.731      853.893
10/14/2014  16:23:00     -220.028     -190.130       -0.050      163.988      179.881       73.577    26892.118    32357.031     5413.625        7.460        3.233      290.795       75.770        0.068      345.893       23.747      853.859
10/14/2014  16:24:00     -331.295     -173.117      -13.116      175.961      150.584       80.562    30962.449    22675.585     6490.208       10.000        3.006      373.799       81.030        0.047      345.892       23.745      853.855
10/14/2014  16:25:00     -418.006     -303.298       -8.615      211.803      158.539      114.015    44860.570    25134.723    12999.481       17.488        4.150      516.448      104.556        0.041      345.841       23.655      853.831
10/14/2014  16:26:00     -342.167     -214.883       14.438      194.004      148.033       86.665    37637.694    21913.791     7510.751       11.525        3.353      404.046       87.266        0.047      345.868       23.703      853.882
10/14/2014  16:27:00     -255.358     -443.445      -13.986      158.317      189.586       83.767    25064.279    35942.840     7016.863       16.502        3.401      511.714       74.408        0.021      345.847       23.667      853.953
10/14/2014  16:28:00     -106.238     -209.206      -24.763      192.878      142.362       71.512    37201.971    20266.875     5113.895        5.911        3.129      234.635       75.312        0.103      345.876       23.717      853.933
10/14/2014  16:29:00     -101.462     -168.783       16.637      104.062      124.563       61.823    10828.952    15516.002     3822.022        3.461        1.508      196.932       60.974        0.096      345.969       23.877      853.958
10/14/2014  16:30:00     -190.882     -376.357       -9.505      130.156      151.968       75.888    16940.671    23094.234     5758.919       11.197        2.290      421.996       56.144        0.018      345.822       23.625      853.979
10/14/2014  16:31:00     -296.830     -272.517       -0.549      204.675      149.071       88.589    41891.663    22222.139     7847.927       11.716        3.598      402.956       97.763        0.059      345.824       23.628      853.926
10/14/2014  16:32:00     -310.718     -216.129      -21.995      181.788      150.342       66.881    33046.944    22602.847     4473.005       10.192        3.006      378.493       64.646        0.029      345.724       23.456      853.930
10/14/2014  16:33:00     -164.514     -248.196      -10.911      113.311      157.266       50.356    12839.442    24732.671     2535.768        6.444        2.005      297.768       62.490        0.044      345.772       23.539      853.949
10/14/2014  16:34:00     -194.877     -281.231       -9.734      125.574      134.255       68.010    15768.910    18024.316     4625.398        7.778        1.921      342.152       62.524        0.033      345.849       23.672      853.950
10/14/2014  16:35:00     -220.933     -151.127       -9.379       83.644       77.053       46.479     6996.342     5937.151     2160.336        4.341        0.755      267.677       36.535        0.019      345.897       23.752      853.950
10/14/2014  16:36:00     -165.794     -139.030      -16.000       63.502       67.987       42.606     4032.562     4622.179     1815.292        2.877        0.524      216.372       23.077        0.011      345.859       23.687      853.922
10/14/2014  16:37:00     -218.440     -117.357        0.844      139.152      102.711       55.137    19363.224    10549.538     3040.056        4.722        1.648      247.969       54.895        0.049      345.886       23.734      853.933
10/14/2014  16:38:00     -157.589     -200.203       -7.407      115.481      108.974       64.055    13335.819    11875.367     4103.048        4.714        1.466      254.785       61.509        0.058      345.806       23.597      853.925
10/14/2014  16:39:00     -316.812     -214.463       -8.075      115.458      137.846       77.265    13330.514    19001.398     5969.844        9.236        1.915      382.576       71.533        0.035      345.779       23.549      853.938
10/14/2014  16:40:00     -306.712     -239.371        1.712      165.593      177.083       78.350    27421.041    31358.253     6138.759       10.814        3.246      389.064       89.904        0.053      345.628       23.290      853.926
10/14/2014  16:41:00     -185.525     -163.700       -0.109      143.377      108.187       60.370    20557.103    11704.519     3644.527        4.856        1.795      247.421       64.866        0.069      345.708       23.428      853.934
10/14/2014  16:42:00     -305.510     -168.716       15.342      163.305      135.325       72.280    26668.538    18312.734     5224.355        8.611        2.510      349.001       74.988        0.046      345.736       23.478      853.949
10/14/2014  16:43:00     -156.153     -172.692        2.946      129.956      137.414       59.496    16888.670    18882.701     3539.769        4.676        1.966      232.822       38.190        0.027      345.698       23.411      853.926
10/14/2014  16:44:00     -175.635     -154.178      -14.948       95.242      122.395       52.606     9071.053    14980.426     2767.375        4.083        1.341      233.706       43.727        0.035      345.711       23.433      853.919
10/14/2014  16:45:00     -201.963     -153.061       11.044      124.323      100.527       70.416    15456.275    10105.739     4958.355        4.742        1.526      253.410       65.969        0.068      345.715       23.442      853.952
10/14/2014  16:46:00     -320.243     -268.999       -1.118      162.893      169.191       86.537    26534.183    28625.455     7488.671       11.877        3.132      418.230       90.953        0.047      345.651       23.331      853.945
10/14/2014  16:47:00     -187.262     -277.550      -13.467      135.670      137.816       75.340    18406.359    18993.257     5676.071        7.767        2.154      334.815       55.213        0.027      345.620       23.276      853.969
10/14/2014  16:48:00     -145.949     -198.820        4.518      107.802       92.464       68.911    11621.307     8549.655     4748.721        4.288        1.246      246.638       61.590        0.062      345.656       23.337      853.978
10/14/2014  16:49:00      -42.865     -143.698       10.225       64.146       88.663       42.714     4114.661     7861.144     1824.495        1.819        0.690      149.955       39.009        0.068      345.691       23.400      853.993
10/14/2014  16:50:00      -77.126      -69.382       12.840       85.519       72.477       39.411     7313.419     5252.923     1553.229        1.252        0.706      103.741       42.591        0.169      345.790       23.572      854.027
10/14/2014  16:51:00     -108.160     -183.620        8.323       83.766      132.446       50.829     7016.748    17541.854     2583.630        3.631        1.357      213.108       60.198        0.080      345.711       23.434      854.046
10/14/2014  16:52:00     -114.434     -194.172       -0.438       78.997       71.824       50.686     6240.492     5158.687     2569.109        3.238        0.698      225.383       47.191        0.044      345.663       23.350      854.034
10/14/2014  16:53:00     -137.400     -272.137      -15.722       80.038       82.448       44.697     6406.084     6797.715     1997.784        5.419        0.760      304.856       34.891        0.013      345.620       23.277      854.052
10/14/2014  16:54:00     -139.495     -122.091        4.239      108.709       62.353       46.408    11817.670     3887.938     2153.673        2.612        0.893      185.378       53.616        0.084      345.618       23.274      854.049
10/14/2014  16:55:00     -118.336     -151.059        2.435       98.774       91.518       48.534     9756.328     8375.528     2355.567        2.865        1.024      191.891       57.699        0.090      345.606       23.255      854.050
10/14/2014  16:56:00      -33.527     -186.606       -5.643       59.443       98.081       43.218     3533.424     9619.878     1867.806        2.550        0.751      189.593       29.520        0.024      345.671       23.366      854.052
10/14/2014  16:57:00     -106.595     -191.348        5.848      109.153      118.078       56.344    11914.394    13942.401     3174.602        3.852        1.452      219.036       53.502        0.060      345.643       23.317      854.053
10/14/2014  16:58:00     -214.714     -249.283      -10.672      127.811      121.225       63.372    16335.632    14695.485     4016.011        7.170        1.752      329.005       54.203        0.027      345.540       23.140      854.027
10/14/2014  16:59:00     -188.176     -257.099      -21.606       88.398      100.808       41.017     7814.168    10162.309     1682.367        6.081        0.983      318.607       33.597        0.011      345.539       23.139      854.010
10/14/2014  17:00:00     -198.404     -161.262       -9.166      100.280       95.033       53.366    10056.174     9031.303     2847.947        4.369        1.097      255.675       57.816        0.051      345.606       23.254      854.000
10/14/2014  17:01:00     -339.417     -167.960       -5.572      174.841      201.313       78.925    30569.464    40527.003     6229.185       11.037        3.866      378.701       86.174        0.052      345.523       23.110      854.000
10/14/2014  17:02:00     -225.334     -174.962      -12.348      169.094      129.168       68.915    28592.824    16684.265     4749.300        6.577        2.501      285.284       70.061        0.060      345.438       22.964      853.986
10/14/2014  17:03:00     -340.653     -262.864       -2.734      171.717      148.950       83.716    29486.729    22185.983     7008.326       12.191        2.934      430.281       82.913        0.037      345.319       22.759      853.936
10/14/2014  17:04:00     -258.227     -183.705       -4.337      127.229      120.570       58.842    16187.148    14537.181     3462.355        6.731        1.709      316.905       58.188        0.034      345.360       22.830      853.929
10/14/2014  17:05:00     -221.888     -158.961       -8.296      133.889      117.775       62.204    17926.202    13871.034     3869.279        5.511        1.783      272.952       74.273        0.074      345.405       22.907      853.975
10/14/2014  17:06:00     -198.427     -148.296       -1.134      126.861      106.938       46.565    16093.834    11435.643     2168.265        4.553        1.485      247.720       37.618        0.023      345.393       22.886      853.970
10/14/2014  17:07:00     -206.788     -102.191        4.083      103.598       93.851       49.098    10732.454     8808.024     2410.588        3.758        1.098      230.661       50.266        0.047      345.337       22.791      853.926
10/14/2014  17:08:00     -137.569      -74.478       20.593      126.039       89.187       50.846    15885.733     7954.331     2585.287        2.566        1.321      156.436       63.452        0.165      345.389       22.880      853.888
10/14/2014  17:09:00     -144.709     -156.846        5.326      125.148       80.027       50.665    15662.113     6404.281     2566.965        3.510        1.232      213.404       55.516        0.068      345.374       22.857      853.883
10/14/2014  17:10:00     -281.748     -223.464        6.746      184.698      141.302       75.836    34113.453    19966.251     5751.143        9.459        2.992      359.608       66.894        0.035      345.332       22.782      853.913
10/14/2014  17:11:00     -399.799     -262.355      -10.731      207.593      153.855       93.486    43094.969    23671.296     8739.579       15.213        3.775      478.194      103.528        0.047      345.269       22.675      853.881
10/14/2014  17:12:00     -292.194     -125.753       14.398      195.002      142.372       91.594    38025.708    20269.773     8389.478        8.403        3.334      318.106       89.809        0.080      345.242       22.629      853.815
10/14/2014  17:13:00     -295.571     -327.209      -21.405      188.168      210.968       68.045    35407.226    44507.499     4630.095       13.970        4.227      440.940       72.538        0.027      345.235       22.617      853.841
10/14/2014  17:14:00     -335.123     -400.893      -10.681      187.599      248.008       96.337    35193.473    61507.836     9280.816       18.954        5.299      522.516      116.109        0.049      345.147       22.466      853.808
10/14/2014  17:15:00     -199.853     -254.239      -16.848      130.720      184.149       73.237    17087.664    33910.777     5363.597        8.060        2.818      323.386       58.650        0.033      345.159       22.487      853.817
10/14/2014  17:16:00     -409.164     -215.807       -2.037      204.688      159.202       73.027    41897.265    25345.155     5332.914       14.327        3.629      462.588       82.061        0.031      345.130       22.438      853.813
10/14/2014  17:17:00     -309.045     -190.085       -6.774      171.494      131.671       81.396    29410.329    17337.348     6625.300        9.252        2.669      362.824       70.690        0.038      345.076       22.346      853.798
10/14/2014  17:18:00     -213.638     -129.577       13.678      147.865       96.277       69.660    21864.020     9269.324     4852.579        4.930        1.799      249.863       83.567        0.112      345.093       22.375      853.783
10/14/2014  17:19:00     -274.099     -238.228       -8.794      183.280      135.451       74.082    33591.637    18347.004     5488.119        9.468        2.871      363.157       76.302        0.044      345.115       22.414      853.791
10/14/2014  17:20:00     -222.681     -245.257       -6.063      162.284      169.486       68.418    26336.012    28725.494     4681.078        8.475        2.987      331.267       80.247        0.059      345.123       22.425      853.820
10/14/2014  17:21:00     -271.643     -242.646      -13.001      149.260      138.182       83.021    22278.619    19094.356     6892.462        9.054        2.413      364.235       84.177        0.053      345.072       22.338      853.786
10/14/2014  17:22:00     -146.208     -271.054       -6.316      160.768      102.251       50.415    25846.336    10455.174     2541.637        6.686        1.942      307.973       39.822        0.017      345.095       22.377      853.786
10/14/2014  17:23:00     -193.668     -148.668       -3.345      140.730       91.952       55.741    19805.040     8455.163     3107.106        4.549        1.568      244.151       69.405        0.081      345.093       22.375      853.779
10/14/2014  17:24:00     -322.040     -201.480       -0.385      210.585      149.316       96.483    44346.219    22295.293     9309.002       11.011        3.798      379.873      102.954        0.073      345.039       22.281      853.757
10/14/2014  17:25:00     -323.156     -255.649       -2.345      237.443      180.100      100.320    56378.957    32436.188    10064.154       13.432        4.944      412.051      107.537        0.068      345.024       22.259      853.708
10/14/2014  17:26:00      -74.742     -284.948      -21.814      162.250      123.952       75.276    26325.192    15364.194     5666.508        6.730        2.368      294.587       64.905        0.049      345.043       22.288      853.668
10/14/2014  17:27:00     -113.033     -264.230        1.815      113.805      167.217       65.234    12951.624    27961.642     4255.467        6.388        2.258      287.392       67.037        0.054      345.066       22.330      853.612
10/14/2014  17:28:00      -86.461     -209.572       -2.154      149.790      103.409       66.250    22436.950    10693.336     4389.082        4.445        1.876      226.707       42.970        0.036      345.063       22.323      853.584
10/14/2014  17:29:00        3.884      -45.335       24.792       71.837       93.093       48.210     5160.614     8666.352     2324.245        0.942        0.808       45.501       50.320        1.223      345.039       22.287      853.553
10/14/2014  17:30:00        9.835     -213.908      -14.031       92.750      109.044       63.469     8602.644    11890.655     4028.367        3.528        1.226      214.134       53.296        0.062      345.074       22.343      853.546
10/14/2014  17:31:00      -25.939     -123.952       -0.864      124.650       99.103       59.439    15537.608     9821.432     3533.011        2.246        1.445      126.637       57.671        0.207      345.071       22.338      853.570
10/14/2014  17:32:00      -62.476     -155.443      -16.044      104.036      136.252       52.271    10823.405    18564.737     2732.242        3.022        1.606      167.528       17.928        0.011      345.055       22.312      853.501
10/14/2014  17:33:00      -73.305     -142.866        4.635      172.854      122.564       53.656    29878.630    15021.994     2878.949        3.678        2.389      160.575       37.131        0.053      345.035       22.278      853.491
10/14/2014  17:34:00       77.508     -164.382        3.242      128.519      152.813      101.152    16517.228    23351.743    10231.764        4.156        2.505      181.739       89.620        0.243      345.012       22.235      853.432
10/14/2014  17:35:00      -40.932     -148.990       15.393       94.619      120.091       83.542     8952.760    14421.929     6979.237        2.723        1.518      154.511       61.367        0.158      345.042       22.288      853.442
10/14/2014  17:36:00       89.360     -189.555        0.003      120.200      108.384       61.239    14447.934    11747.117     3750.241        3.693        1.497      209.562       48.526        0.054      345.035       22.277      853.417
10/14/2014  17:37:00      -47.447     -237.719       -6.423      109.201      177.249       67.567    11924.787    31417.325     4565.366        5.335        2.395      242.407       70.743        0.085      345.060       22.319      853.385
10/14/2014  17:38:00      -74.917     -154.575      -15.058       68.635       76.739       45.708     4710.714     5888.814     2089.228        2.121        0.634      171.773       43.418        0.064      345.016       22.243      853.380
10/14/2014  17:39:00        3.024      -33.156       22.520       80.629       50.075       42.872     6501.063     2507.519     1838.003        0.623        0.542       33.294       38.576        1.342      345.002       22.220      853.369
10/14/2014  17:40:00       22.221      -61.420       21.748       58.146       88.753       48.051     3381.006     7877.161     2308.888        0.915        0.678       65.316       52.644        0.650      345.016       22.245      853.317
10/14/2014  17:41:00       -9.198      -88.311       -4.194       73.005       65.796       42.638     5329.736     4329.110     1818.000        0.969        0.574       88.788       36.137        0.166      345.037       22.283      853.283
10/14/2014  17:42:00      -54.173      -24.408        7.139       51.851       33.052       24.482     2688.575     1092.405      599.372        0.398        0.219       59.418       23.863        0.161      345.010       22.234      853.244
10/14/2014  17:43:00       42.844       47.908       23.561       33.334       38.072       22.362     1111.163     1449.445      500.057        0.387        0.153       64.271        8.494        0.017      344.954       22.140      853.192
10/14/2014  17:44:00      -19.116      -14.402       -8.237       36.414       41.372       15.965     1325.988     1711.638      254.881        0.197        0.165       23.934       14.031        0.344      344.941       22.118      853.161
10/14/2014  17:45:00       31.176      -53.329       -2.099       60.971       38.020       28.307     3717.523     1445.504      801.295        0.489        0.298       61.773       20.689        0.112      344.973       22.170      853.153
10/14/2014  17:46:00       44.568      -36.555       30.920       39.500       84.418       44.561     1560.269     7126.449     1985.721        0.747        0.534       57.642       54.654        0.899      344.984       22.191      853.108
10/14/2014  17:47:00        0.281      -83.259        9.675       53.905       64.486       26.765     2905.724     4158.504      716.369        0.740        0.389       83.259       30.623        0.135      345.022       22.255      853.076
10/14/2014  17:48:00       18.000      -37.401       17.876       41.835       43.338       22.850     1750.198     1878.168      522.145        0.310        0.208       41.507       25.301        0.372      345.010       22.236      853.063
10/14/2014  17:49:00      -87.068      -54.533      -10.982      113.377       34.423       27.011    12854.364     1184.951      729.617        1.272        0.738      102.736       41.312        0.162      345.011       22.236      853.075
10/14/2014  17:50:00     -116.144     -112.317      -21.455       95.457       43.174       30.864     9112.015     1864.011      952.556        1.924        0.596      161.569       21.126        0.017      344.945       22.124      853.090
10/14/2014  17:51:00      -78.568     -190.791       -4.913      109.556      160.365       62.981    12002.540    25716.985     3966.659        4.214        2.084      206.335       61.747        0.090      344.938       22.109      853.100
10/14/2014  17:52:00       92.370     -203.597       28.716      115.831      174.705       88.564    13416.868    30521.785     7843.580        5.129        2.589      223.571       90.544        0.164      344.911       22.065      853.046
10/14/2014  17:53:00       -5.474     -105.235        3.972       75.796       94.498       69.088     5744.973     8929.873     4773.161        1.528        0.972      105.377       66.697        0.401      344.928       22.094      853.082
10/14/2014  17:54:00      -30.292     -174.331        5.715      159.563      152.429       84.101    25460.383    23234.657     7073.062        4.355        2.788      176.944       86.640        0.240      344.907       22.057      853.078
10/14/2014  17:55:00        0.347     -191.904      -10.432      154.642      157.689       95.117    23914.150    24865.776     9047.307        4.737        2.891      191.905       63.539        0.110      344.879       22.009      853.062
10/14/2014  17:56:00       61.452     -190.877      -15.789      155.398       96.956       75.552    24148.563     9400.448     5708.093        3.985        1.963      200.525       51.394        0.066      344.840       21.940      853.107
10/14/2014  17:57:00      -57.248      -64.857       -3.499       73.764       81.028       49.693     5441.192     6565.600     2469.345        1.098        0.724       86.509       38.941        0.203      344.842       21.949      853.077
10/14/2014  17:58:00       55.400      -70.449      -13.529       74.147      112.266       55.258     5497.839    12603.623     3053.411        1.468        1.058       89.623       30.994        0.120      344.834       21.933      852.998
10/14/2014  17:59:00       84.963     -309.160      -23.561      131.123      140.179       77.975    17193.328    19650.027     6080.050        7.313        2.146      320.623       69.537        0.047      344.803       21.877      852.961
10/14/2014  18:00:00       37.819     -207.626        6.406      140.862      176.740       69.385    19842.116    31236.920     4814.332        5.023        2.795      211.042       81.810        0.150      344.785       21.847      852.985
10/14/2014  18:01:00       81.182     -221.961       29.005      149.151      206.053       88.016    22245.957    42457.745     7746.827        6.456        3.623      236.342       82.654        0.122      344.760       21.805      852.915
10/14/2014  18:02:00      200.383     -192.312       35.424      166.461      223.019      120.105    27709.334    49737.616    14425.146        8.512        4.594      277.736      133.922        0.233      344.757       21.799      852.945
10/14/2014  18:03:00      145.225     -159.374       68.809      136.231      213.966      139.371    18558.786    45781.347    19424.391        6.748        4.188      215.616      154.046        0.510      344.723       21.740      852.882
10/14/2014  18:04:00      169.382     -241.024      -15.766      118.239      148.306       91.716    13980.572    21994.536     8411.842        6.570        2.219      294.590       97.531        0.110      344.706       21.711      852.896
10/14/2014  18:05:00      -65.812     -138.169       -3.813       91.905       93.611       51.954     8446.609     8763.020     2699.227        2.167        0.995      153.042       48.218        0.099      344.722       21.740      852.887
10/14/2014  18:06:00      -18.891     -117.900        5.579      133.839      112.309       54.310    17912.936    12613.310     2949.613        2.388        1.674      119.404       48.163        0.163      344.689       21.686      852.912
10/14/2014  18:07:00       16.663      -70.250        3.710       83.844       83.240       42.902     7029.803     6928.823     1840.562        1.051        0.790       72.199       41.032        0.323      344.692       21.691      852.949
10/14/2014  18:08:00       30.058      -50.887       67.632      140.777      155.399       99.560    19818.120    24148.903     9912.106        3.096        2.694       59.101       95.253        2.598      344.646       21.611      852.936
10/14/2014  18:09:00      173.489     -123.735       10.563      122.025      180.761       87.429    14890.008    32674.385     7643.855        5.035        2.760      213.093       85.996        0.163      344.625       21.574      852.966
10/14/2014  18:10:00      128.562     -207.352      -13.351      174.773      173.309       81.776    30545.727    30036.167     6687.281        6.347        3.363      243.973       91.368        0.140      344.622       21.570      852.947
10/14/2014  18:11:00       96.024      -93.977       83.835      148.240      221.952      106.432    21974.986    49262.522    11327.787        5.381        4.128      134.359      136.163        1.027      344.602       21.536      852.917
10/14/2014  18:12:00      240.165     -466.524      -18.086      187.168      301.653      122.518    35031.828    90994.597    15010.561       20.832        7.052      524.713      140.972        0.072      344.581       21.497      852.893
10/14/2014  18:13:00      102.790     -365.740      -18.062      188.715      193.356      111.133    35613.259    37386.627    12350.563       11.499        4.268      379.910      113.011        0.088      344.581       21.499      852.913
10/14/2014  18:14:00       61.298     -161.470       14.218       93.764      136.154       82.878     8791.687    18537.948     6868.734        3.211        1.710      172.714       73.805        0.183      344.578       21.494      852.937
10/14/2014  18:15:00      -69.221     -123.130        3.454       91.109       61.319       41.976     8300.922     3759.974     1762.023        1.689        0.691      141.254       26.894        0.036      344.595       21.524      852.977
10/14/2014  18:16:00      -81.631     -114.350        9.837       86.316      114.704       49.401     7450.463    13156.970     2440.478        2.144        1.152      140.497       41.807        0.089      344.573       21.487      853.067
10/14/2014  18:17:00      107.392     -193.970       16.778      148.667      197.939       96.016    22101.798    39179.917     9219.027        5.996        3.525      221.714      112.370        0.257      344.545       21.437      853.129
10/14/2014  18:18:00     -110.321      -92.375       14.269       87.689       82.098       45.264     7689.344     6740.109     2048.785        1.869        0.824      143.888       45.779        0.101      344.516       21.388      853.143
10/14/2014  18:19:00      -59.781     -123.759      -13.332      134.202      100.950       54.785    18010.179    10190.926     3001.410        2.513        1.560      137.441       45.926        0.112      344.530       21.411      853.159
10/14/2014  18:20:00      105.846     -107.653       77.427      153.115      177.991       82.224    23444.262    31680.731     6760.711        4.533        3.094      150.972       91.309        0.366      344.523       21.400      853.143
10/14/2014  18:21:00     -128.998      -92.249        5.181       72.242       85.270       52.323     5218.866     7271.003     2737.653        2.020        0.761      158.588       37.827        0.057      344.531       21.416      853.174
10/14/2014  18:22:00     -163.154     -122.210       -1.893      113.118       88.102       49.358    12795.686     7761.976     2436.253        3.227        1.150      203.850       54.932        0.073      344.531       21.412      853.141
10/14/2014  18:23:00     -153.264     -175.591       -2.875      274.239      159.609       73.136    75207.126    25474.978     5348.896        8.016        5.302      233.071       96.543        0.172      344.553       21.450      853.169
10/14/2014  18:24:00      -12.760      -37.461       25.506       84.357       58.602       45.194     7116.113     3434.223     2042.482        0.740        0.630       39.575       46.277        1.367      344.505       21.370      853.228
10/14/2014  18:25:00      -95.532     -219.807        0.551      103.093       72.792       52.137    10628.197     5298.685     2718.251        3.804        0.932      239.669       32.810        0.019      344.487       21.336      853.231
10/14/2014  18:26:00     -163.203       29.153        3.731       79.482      111.643       44.331     6317.337    12464.174     1965.220        2.412        1.037      165.786       39.005        0.055      344.415       21.215      853.206
10/14/2014  18:27:00      -23.570      -51.907        6.488       48.306       67.173       26.219     2333.501     4512.172      687.418        0.541        0.377       57.007       32.690        0.329      344.393       21.179      853.236
10/14/2014  18:28:00      -57.961     -111.603       -4.492       36.433       45.379       23.046     1327.378     2059.232      531.125        0.988        0.196      125.757       19.794        0.025      344.422       21.228      853.260
10/14/2014  18:29:00      -38.098      -36.810        0.417       31.743       31.212       22.992     1007.628      974.204      528.638        0.266        0.126       52.976       18.389        0.120      344.420       21.225      853.259
10/14/2014  18:30:00      -89.273       -4.933        9.089       85.216       62.385       38.039     7261.827     3891.936     1446.996        1.034        0.630       89.410       34.720        0.151      344.349       21.104      853.221
10/14/2014  18:31:00        6.841       -0.932       -6.544       33.690       63.158       35.360     1135.049     3988.932     1250.338        0.323        0.319        6.904       26.165       14.364      344.399       21.190      853.229
10/14/2014  18:32:00      -26.359       11.110        8.518       44.749       37.821       31.317     2002.447     1430.424      980.742        0.265        0.221       28.605       21.090        0.544      344.352       21.110      853.233
10/14/2014  18:33:00       11.464       39.104       -0.300       33.367       32.949       22.065     1113.335     1085.662      486.867        0.217        0.134       40.749       13.614        0.112      344.406       21.202      853.239
10/14/2014  18:34:00       18.458       28.189       19.800       30.273       32.213       26.023      916.427     1037.706      677.179        0.208        0.132       33.694       19.920        0.350      344.323       21.060      853.210
10/14/2014  18:35:00      -51.278      -45.431        5.087       57.378       36.204       31.098     3292.236     1310.704      967.110        0.514        0.279       68.509       29.818        0.189      344.345       21.099      853.230
10/14/2014  18:36:00       65.382       86.965      118.710       77.530      102.333       79.605     6010.957    10472.035     6336.979        2.437        1.141      108.801       77.859        0.512      344.378       21.152      853.253
10/14/2014  18:37:00       86.918     -153.316       35.075      156.284      151.900      104.678    24424.784    23073.723    10957.505        4.536        2.923      176.240      101.068        0.329      344.376       21.147      853.165
10/14/2014  18:38:00     -213.348     -183.965       -9.634      175.312      117.960       90.007    30734.141    13914.550     8101.185        6.609        2.637      281.710       69.665        0.061      344.343       21.091      853.219
10/14/2014  18:39:00      -79.082     -159.040       22.960      152.969      110.263       72.770    23399.514    12157.847     5295.411        3.646        2.043      177.617       57.072        0.103      344.390       21.172      853.280
10/14/2014  18:40:00      -74.219      -98.600       -3.437      115.036       75.887       58.938    13233.181     5758.887     3473.635        1.885        1.123      123.411       60.789        0.243      344.384       21.162      853.317
10/14/2014  18:41:00     -141.642      -54.898        5.871       58.501       74.882       45.275     3422.320     5607.349     2049.805        1.709        0.554      151.909       47.290        0.097      344.372       21.143      853.344
10/14/2014  18:42:00      -99.545     -171.233        4.635       81.470      134.088       46.780     6637.406    17979.666     2188.388        3.302        1.340      198.066       52.556        0.070      344.346       21.097      853.384
10/14/2014  18:43:00      -63.435     -178.255       -3.855       81.702      107.472       41.483     6675.168    11550.161     1720.820        2.788        0.997      189.206       36.866        0.038      344.377       21.151      853.438
10/14/2014  18:44:00     -158.347     -251.541      -21.434      129.509      171.225       61.076    16772.567    29318.105     3730.336        6.931        2.491      297.232       72.863        0.060      344.407       21.200      853.499
10/14/2014  18:45:00      -60.814      -84.506       10.749       72.626      105.338       34.265     5274.474    11096.125     1174.102        1.425        0.877      104.113       51.072        0.241      344.356       21.116      853.528
10/14/2014  18:46:00      -43.085       -2.868        3.072       53.007       30.858       24.915     2809.727      952.187      620.774        0.313        0.219       43.180       14.668        0.115      344.361       21.125      853.499
10/14/2014  18:47:00       -9.139      -73.954       -4.023       38.292       46.239       26.785     1466.243     2138.060      717.460        0.494        0.216       74.517       17.957        0.058      344.385       21.166      853.543
10/14/2014  18:48:00      -47.136      -43.337       12.024       86.040       74.808       33.485     7402.802     5596.235     1121.266        0.918        0.706       64.030       40.516        0.400      344.309       21.035      853.514
10/14/2014  18:49:00      -98.790       48.718        4.579       67.576       38.524       37.547     4566.457     1484.074     1409.757        0.981        0.373      110.150       34.831        0.100      344.342       21.092      853.445
10/14/2014  18:50:00      -11.280      -15.984       10.257       49.603       32.661       24.298     2460.457     1066.733      590.385        0.230        0.206       19.563       30.200        2.383      344.260       20.953      853.445
10/14/2014  18:51:00       20.490       56.275       25.117       37.383       39.201       28.304     1397.487     1536.729      801.118        0.398        0.187       59.889       23.037        0.148      344.254       20.941      853.408
10/14/2014  18:52:00        7.265       44.766       69.564       33.497       53.553       50.472     1122.063     2867.900     2547.411        0.672        0.327       45.351       45.072        0.988      344.305       21.028      853.378
10/14/2014  18:53:00        9.053       86.836       98.666       90.656      103.423       93.776     8218.571    10696.250     8794.000        2.253        1.385       87.307       89.005        1.039      344.341       21.088      853.486
10/14/2014  18:54:00      -85.048       40.469       -4.675       65.099       66.078       41.589     4237.899     4366.307     1729.672        0.961        0.517       94.185       27.763        0.087      344.297       21.015      853.398
10/14/2014  18:55:00       43.751       -1.375      -13.208       45.235       74.269       30.901     2046.161     5515.936      954.892        0.530        0.426       43.772       16.300        0.139      344.310       21.037      853.291
10/14/2014  18:56:00       -4.960      -29.012       15.974       34.321       41.831       28.143     1177.931     1749.792      792.038        0.242        0.186       29.433       23.026        0.612      344.263       20.959      853.325
10/14/2014  18:57:00       67.871      -70.489      -12.406       60.178       79.462       51.499     3621.375     6314.221     2652.125        1.116        0.629       97.853       47.767        0.238      344.260       20.952      853.336
10/14/2014  18:58:00       25.110      -58.428       21.188       76.092       76.300       38.204     5789.983     5821.747     1459.533        0.878        0.654       63.595       48.729        0.587      344.260       20.953      853.346
10/14/2014  18:59:00       31.854      -74.283       23.679      107.752      134.980       75.935    11610.393    18219.704     5766.138        2.134        1.780       80.825       68.992        0.729      344.296       21.012      853.329
10/14/2014  19:00:00       66.267      -33.653       41.098      107.209      109.786       65.041    11493.718    12052.917     4230.297        1.749        1.389       74.322       78.015        1.102      344.230       20.902      853.273
10/14/2014  19:01:00       41.913     -111.112        1.408       81.365       81.535       52.810     6620.288     6647.942     2788.925        1.508        0.803      118.755       47.326        0.159      344.251       20.935      853.294
10/14/2014  19:02:00       89.696     -130.846       28.352       83.691      118.079       69.936     7004.113    13942.636     4890.983        2.590        1.292      158.638       68.035        0.184      344.239       20.915      853.336
10/14/2014  19:03:00      -14.445     -148.242      -10.593      158.899      137.601       82.485    25248.927    18933.965     6803.850        3.663        2.549      148.945       66.988        0.202      344.249       20.933      853.376
10/14/2014  19:04:00        9.391     -126.658       41.055      105.238      162.842       75.319    11075.132    26517.643     5672.880        3.053        2.163      127.006       80.767        0.404      344.240       20.917      853.383
10/14/2014  19:05:00       47.932     -141.810       19.517       86.638      110.161       49.927     7506.224    12135.550     2492.727        2.246        1.107      149.691       48.306        0.104      344.221       20.884      853.377
10/14/2014  19:06:00       11.152     -134.594       10.685      124.203      103.851       53.654    15426.370    10784.933     2878.779        2.372        1.455      135.055       46.699        0.120      344.230       20.899      853.379
10/14/2014  19:07:00       48.595     -120.098        2.336       71.095       82.790       55.993     5054.541     6854.166     3135.255        1.591        0.752      129.557       43.200        0.111      344.238       20.914      853.361
10/14/2014  19:08:00       36.693      -93.231       11.056       97.697      118.504       68.998     9544.736    14043.140     4760.661        1.925        1.417      100.192       79.261        0.626      344.212       20.869      853.298
10/14/2014  19:09:00       79.510     -251.836      -12.130       75.871       88.470       67.661     5756.417     7827.026     4577.976        4.402        0.908      264.089       50.870        0.037      344.181       20.814      853.260
10/14/2014  19:10:00       -7.403      -61.898       13.409       69.290       62.151       43.681     4801.061     3862.726     1908.046        0.732        0.529       62.339       39.407        0.400      344.182       20.821      853.275
10/14/2014  19:11:00       83.423      -70.851       10.820       66.237       70.161       40.704     4387.320     4922.598     1656.804        1.153        0.548      109.450       41.477        0.144      344.199       20.848      853.277
10/14/2014  19:12:00      -39.569     -121.030        7.495      125.135       90.479       54.281    15658.838     8186.436     2946.396        2.153        1.340      127.334       42.673        0.112      344.217       20.877      853.271
10/14/2014  19:13:00       -1.386      -13.721       32.270       42.663       46.026       28.507     1820.117     2118.362      812.630        0.299        0.238       13.791       20.585        2.228      344.158       20.777      853.237
10/14/2014  19:14:00       47.423       31.119       39.084      118.864       71.753       58.438    14128.693     5148.556     3414.943        1.371        1.135       56.721       46.641        0.676      344.130       20.730      853.216
10/14/2014  19:15:00       53.469     -103.175       80.514      161.209      222.463      132.398    25988.201    49489.859    17529.306        5.648        4.650      116.207      156.125        1.805      344.172       20.799      853.167
10/14/2014  19:16:00       58.667     -139.305        1.483      114.469      180.340       94.703    13103.115    32522.365     8968.689        3.871        2.730      151.155      110.161        0.531      344.197       20.844      853.199
10/14/2014  19:17:00       70.843     -126.695        0.615       94.561       94.715       71.771     8941.862     8971.016     5151.030        2.206        1.153      145.157       56.095        0.149      344.186       20.822      853.228
10/14/2014  19:18:00       15.049      -55.355       25.282       90.338      119.116       58.952     8160.934    14188.596     3475.335        1.487        1.291       57.364       63.400        1.222      344.166       20.793      853.207
10/14/2014  19:19:00      -20.549      -17.455       63.071      111.884       99.817       71.793    12518.073     9963.503     5154.236        1.617        1.382       26.962       67.957        6.353      344.170       20.798      853.156
10/14/2014  19:20:00      116.669     -170.886       25.886      114.221      141.148       63.100    13046.411    19922.788     3981.664        4.021        1.848      206.915       65.787        0.101      344.196       20.840      853.125
10/14/2014  19:21:00      197.462     -249.825       56.154      235.945      276.501      132.795    55669.896    76452.782    17634.457       12.713        7.488      318.440      170.075        0.285      344.164       20.786      853.028
10/14/2014  19:22:00      118.718      -42.330      115.823      142.148      232.228      139.569    20205.939    53929.667    19479.514        6.144        4.681      126.039      163.374        1.680      344.192       20.833      853.023
10/14/2014  19:23:00      124.101     -219.681       18.253      265.343      279.672      146.201    70407.153    78216.661    21374.803       11.697        8.500      252.311      179.302        0.505      344.192       20.834      852.993
10/14/2014  19:24:00       30.243     -183.910       20.356      167.416      194.145       90.247    28028.080    37692.439     8144.499        5.450        3.693      186.380       91.312        0.240      344.166       20.789      853.113
10/14/2014  19:25:00      105.378     -319.258        3.679      186.995      203.283      114.175    34967.115    41324.167    13036.036       10.117        4.466      336.200      115.962        0.119      344.161       20.781      853.124
10/14/2014  19:26:00        4.096      -85.160       27.338      160.931      169.116      110.430    25898.938    28600.183    12194.682        3.734        3.335       85.258       98.910        1.346      344.145       20.754      853.092
10/14/2014  19:27:00      -86.182     -265.042      -11.027      148.142      107.017       76.629    21945.956    11452.680     5871.970        5.853        1.964      278.702       48.693        0.031      344.176       20.805      853.077
10/14/2014  19:28:00       -2.220     -177.450       14.293      176.586      101.988       67.530    31182.522    10401.640     4560.269        3.891        2.307      177.464       56.298        0.101      344.161       20.781      853.113
10/14/2014  19:29:00       77.535     -149.036       34.103      243.793      199.885       99.558    59435.149    39954.141     9911.857        6.933        5.465      167.998       90.695        0.291      344.133       20.731      853.002
10/14/2014  19:30:00      151.211     -297.749       37.267      175.730      237.094      115.600    30881.204    56213.703    13363.378       10.667        5.023      333.945      114.056        0.117      344.137       20.741      852.977
10/14/2014  19:31:00      118.385     -187.922       13.925      213.867      151.468       98.119    45739.111    22942.679     9627.427        6.390        3.915      222.103       75.782        0.116      344.133       20.733      852.924
10/14/2014  19:32:00       -6.215     -202.890        5.574      118.148      135.833       73.872    13958.946    18450.563     5457.007        3.954        1.893      202.985       79.725        0.154      344.129       20.726      852.849
10/14/2014  19:33:00       28.683     -183.175       18.146      135.523      148.316       91.517    18366.451    21997.512     8375.414        4.171        2.437      185.407       82.778        0.199      344.125       20.720      852.859
10/14/2014  19:34:00      190.999     -356.299       62.881      190.030      313.533      156.877    36111.267    98302.768    24610.425       16.318        7.951      404.265      173.079        0.183      344.120       20.711      852.803
10/14/2014  19:35:00       20.315     -124.447       19.803      105.139      123.193       88.138    11054.267    15176.470     7768.357        2.514        1.700      126.095       58.245        0.213      344.111       20.697      852.745
10/14/2014  19:36:00       -0.231     -139.108       10.144       93.025      138.495       76.136     8653.653    19180.757     5796.734        2.654        1.682      139.108       33.529        0.058      344.104       20.685      852.781
10/14/2014  19:37:00       16.501     -144.790       -4.168      107.760      180.253       67.950    11612.179    32491.053     4617.150        3.498        2.436      145.727       70.000        0.231      344.097       20.674      852.798
10/14/2014  19:38:00      145.574     -292.985        0.421      175.349      169.393      119.139    30747.173    28693.972    14194.009        9.032        3.682      327.157       84.658        0.067      344.085       20.652      852.782
10/14/2014  19:39:00       55.514     -190.826       32.298      142.658      189.313      107.683    20351.382    35839.437    11595.702        5.415        3.389      198.737       79.524        0.160      344.080       20.643      852.792
10/14/2014  19:40:00      -48.176     -251.370      -13.381      140.694      105.429       53.910    19794.781    11115.275     2906.245        4.975        1.691      255.945       39.471        0.024      344.106       20.687      852.820
10/14/2014  19:41:00      141.779     -147.531       -1.155      151.283      133.888       68.504    22886.658    17926.071     4692.755        4.368        2.275      204.614       78.623        0.148      344.064       20.616      852.860
10/14/2014  19:42:00       66.322      -70.608       40.032       98.159      148.914       89.961     9635.245    22175.455     8092.928        2.544        1.995       96.872       92.158        0.905      344.039       20.573      852.855
10/14/2014  19:43:00      -21.215     -106.104       22.777      111.517      127.547       81.637    12436.129    16268.215     6664.608        2.379        1.768      108.204       38.127        0.124      344.067       20.619      852.884
10/14/2014  19:44:00      -69.393       -4.245        7.907       56.044       79.297       40.744     3140.881     6288.033     1660.071        0.799        0.554       69.522       30.330        0.190      344.009       20.523      852.914
10/14/2014  19:45:00      -74.687       13.505       -6.558      102.861      112.911       56.881    10580.478    12748.804     3235.395        1.618        1.328       75.898       33.236        0.192      344.071       20.629      852.899
10/14/2014  19:46:00        9.421     -258.996      -23.754       97.105      146.586       59.603     9429.372    21487.568     3552.564        5.109        1.723      259.167       63.029        0.059      344.096       20.670      852.934
10/14/2014  19:47:00       21.897     -110.204       26.387      234.936      148.376       92.927    55195.087    22015.452     8635.436        4.957        4.292      112.358       83.764        0.556      344.060       20.608      852.949
10/14/2014  19:48:00       91.464     -155.340       27.286      130.475      201.213       95.149    17023.671    40486.672     9053.410        4.989        3.328      180.267      123.344        0.468      344.049       20.590      852.934
10/14/2014  19:49:00      111.596     -208.627       19.239      125.240      186.104       97.666    15685.008    34634.753     9538.654        5.809        2.993      236.598      101.727        0.185      344.057       20.604      852.898
10/14/2014  19:50:00       93.552     -243.636      -14.695      148.578      135.827       88.251    22075.547    18448.882     7788.157        5.831        2.416      260.980       66.114        0.064      344.049       20.589      852.994
10/14/2014  19:51:00      -57.246      -76.758       12.644       65.621       76.706       47.379     4306.099     5883.763     2244.773        1.088        0.622       95.754       37.453        0.153      343.993       20.494      853.108
10/14/2014  19:52:00      -84.295     -199.254        7.148      138.637      100.231       63.991    19220.181    10046.184     4094.850        4.010        1.668      216.351       35.401        0.027      344.004       20.511      853.178
10/14/2014  19:53:00     -182.829     -102.285       26.480      255.254      105.496       85.101    65154.456    11129.302     7242.180        6.404        4.176      209.496      131.932        0.397      343.966       20.449      853.100
10/14/2014  19:54:00      -77.954     -161.153        8.794      113.149      117.991       70.562    12802.772    13921.950     4979.036        3.191        1.585      179.017       68.317        0.146      344.001       20.508      853.142
10/14/2014  19:55:00     -189.113     -143.142       13.795      163.428      106.834       69.569    26708.870    11413.399     4839.908        4.970        2.148      237.178       75.609        0.102      343.957       20.431      853.138
10/14/2014  19:56:00      -17.951     -139.744       15.331      139.948      132.640       69.630    19585.321    17593.462     4848.379        3.105        2.101      140.892       52.033        0.136      343.986       20.482      853.034
10/14/2014  19:57:00      -26.840     -105.073        2.452      123.241       97.305       77.368    15188.278     9468.311     5985.797        2.120        1.532      108.447       58.448        0.290      343.978       20.469      853.099
10/14/2014  19:58:00      -85.720      -86.219      -15.496      175.566       98.021       46.962    30823.590     9608.075     2205.423        2.882        2.132      121.580       45.661        0.141      343.997       20.501      853.110
10/14/2014  19:59:00     -116.272     -196.025       -1.903       75.160      108.902       46.551     5648.986    11859.585     2167.032        3.581        0.984      227.914       39.380        0.030      343.989       20.486      853.230
10/14/2014  20:00:00     -190.665     -137.136      -12.907       99.556      100.956       43.255     9911.374    10192.018     1871.025        3.865        1.099      234.861       36.741        0.024      343.991       20.491      853.211
10/14/2014  20:01:00     -127.611     -255.993      -13.698      101.388       83.672       57.290    10279.531     7000.964     3282.163        5.128        1.028      286.037       30.761        0.012      343.976       20.461      853.243
10/14/2014  20:02:00      -53.963      -59.363        4.495       70.888       98.313       44.230     5025.162     9665.437     1956.268        1.155        0.832       80.225       43.821        0.298      343.949       20.422      853.201
10/14/2014  20:03:00      -61.926      -31.827        1.606       84.995       58.084       36.735     7224.098     3373.698     1349.476        0.840        0.597       69.626       18.808        0.073      343.919       20.369      853.149
10/14/2014  20:04:00      -46.257      -18.108        5.889       83.297       65.369       35.435     6938.336     4273.147     1255.666        0.748        0.623       49.675       22.776        0.210      343.912       20.357      853.208
10/14/2014  20:05:00       61.942      -38.295       70.216      110.323      117.714       89.358    12171.149    13856.486     7984.886        2.212        1.701       72.824       81.386        1.249      343.940       20.406      853.243
10/14/2014  20:06:00       43.899     -215.528        2.455      121.291      126.910       72.117    14711.582    16106.180     5200.801        4.220        1.801      219.953       61.103        0.077      344.008       20.520      853.297
10/14/2014  20:07:00       59.833     -160.199       35.948      153.754      211.368       95.993    23640.292    44676.233     9214.566        5.402        3.877      171.008      116.534        0.464      344.006       20.517      853.208
10/14/2014  20:08:00       54.495     -135.352       22.384      118.331      109.176       58.554    14002.142    11919.349     3428.584        2.557        1.468      145.910       60.707        0.173      344.010       20.524      853.170
10/14/2014  20:09:00     -189.277     -138.699      -21.505      119.365      138.235       55.125    14247.923    19108.910     3038.782        4.595        1.820      234.656       51.443        0.048      344.016       20.533      853.182
10/14/2014  20:10:00      -23.372      -69.313       29.661       99.378      115.820       52.674     9876.054    13414.296     2774.563        1.614        1.303       73.147       61.768        0.713      344.023       20.548      853.222
10/14/2014  20:11:00      -52.503      -84.654       -5.327       68.833      111.655       45.286     4737.968    12466.813     2050.830        1.460        0.963       99.613       48.446        0.237      343.989       20.486      853.184
10/14/2014  20:12:00      -37.866     -160.707      -19.237      136.816      112.152       71.302    18718.540    12577.963     5083.932        3.200        1.819      165.108       56.657        0.118      344.010       20.524      853.286
10/14/2014  20:13:00       22.264     -161.449       82.569      157.804      265.970      149.184    24902.048    70739.935    22255.880        7.562        5.895      162.977      162.251        0.991      343.965       20.446      853.119
10/14/2014  20:14:00       79.438     -218.667      -16.857      127.193      117.860       82.570    16178.138    13891.090     6817.750        4.564        1.844      232.649       55.296        0.056      343.947       20.415      853.177
10/14/2014  20:15:00       -1.413      -31.908       -0.561       84.898      100.227       53.990     7207.613    10045.389     2914.877        1.059        1.008       31.939       49.147        2.368      343.931       20.391      853.187
10/14/2014  20:16:00       67.354      -89.540       13.209       86.281      106.994       59.092     7444.480    11447.619     3491.875        1.755        1.119      112.044       53.550        0.228      343.922       20.374      853.169
10/14/2014  20:17:00      -30.739      -55.224        2.785      107.034       91.688       62.682    11456.284     8406.656     3929.048        1.389        1.190       63.203       63.998        1.025      343.921       20.373      853.153
10/14/2014  20:18:00     -258.124     -123.335       -9.968       70.940      130.205       44.057     5032.415    16953.451     1941.029        5.293        1.196      286.076       35.068        0.015      343.890       20.317      853.162
10/14/2014  20:19:00      -49.617     -161.114        2.021       54.385      110.507       34.958     2957.696    12211.738     1222.086        2.240        0.820      168.581       28.070        0.028      343.924       20.377      853.223
10/14/2014  20:20:00      -14.573      -47.804       22.048       46.221       75.031       40.185     2136.408     5629.577     1614.852        0.618        0.469       49.976       31.562        0.399      343.925       20.379      853.231
10/14/2014  20:21:00     -131.846        8.638       -9.752       78.959       71.176       33.068     6234.592     5065.959     1093.489        1.497        0.620      132.129       33.424        0.064      343.912       20.355      853.149
10/14/2014  20:22:00      -47.312      -92.713      -28.790      160.506       88.853       42.353    25762.332     7894.849     1793.799        2.355        1.773      104.087       41.164        0.156      343.951       20.424      853.114
10/14/2014  20:23:00      -21.675      -70.350       -9.212       82.238       83.978       30.895     6763.124     7052.326      954.526        1.013        0.738       73.613       32.841        0.199      343.932       20.389      853.171
10/14/2014  20:24:00       35.263     -174.845       -3.752      134.686      208.937       61.577    18140.317    43654.536     3791.684        4.870        3.279      178.365       73.965        0.172      343.904       20.341      853.203
10/14/2014  20:25:00      -13.115     -134.823       16.967      149.788      132.956       77.410    22436.305    17677.367     5992.307        3.236        2.305      135.459       60.974        0.203      343.910       20.352      853.166
10/14/2014  20:26:00      124.629     -275.867       35.297      181.007      215.310      132.441    32763.545    46358.233    17540.667        9.476        4.833      302.713      131.964        0.190      343.923       20.375      853.214
10/14/2014  20:27:00      116.148     -185.007       -3.155      158.312      169.087       96.220    25062.593    28590.540     9258.380        5.531        3.146      218.445       94.404        0.187      343.945       20.411      853.292
10/14/2014  20:28:00       46.448     -136.495       46.550      172.835      251.430      123.475    29871.889    63217.101    15246.004        6.563        5.417      144.182       93.145        0.417      343.930       20.386      853.301
10/14/2014  20:29:00      -45.093     -185.878       -9.534      142.860      124.175       71.512    20408.956    15419.432     5113.930        3.880        2.047      191.270       54.980        0.083      343.933       20.390      853.328
10/14/2014  20:30:00       -2.636     -168.104       22.742      138.141      125.829       81.246    19083.007    15833.008     6600.876        3.514        2.076      168.124       74.656        0.197      343.920       20.370      853.330
10/14/2014  20:31:00      -64.694     -232.594      -13.104       62.772      130.795       48.339     3940.274    17107.287     2336.696        4.092        1.169      241.424       52.980        0.048      343.952       20.424      853.304
10/14/2014  20:32:00      -79.067     -118.641       27.653      108.743      227.040      102.426    11825.018    51547.035    10491.084        4.747        3.693      142.573      134.783        0.894      343.934       20.392      853.222
10/14/2014  20:33:00      -63.364      -43.327        7.217       75.064       59.528       38.422     5634.657     3543.552     1476.287        0.830        0.533       76.761       34.552        0.203      343.877       20.298      853.247
10/14/2014  20:34:00      -62.075     -170.237       17.390      106.930      120.041       58.398    11434.068    14409.746     3410.304        3.119        1.463      181.202       49.253        0.074      343.887       20.311      853.252
10/14/2014  20:35:00      -11.456     -169.887       11.792      136.886      150.387       65.753    18737.774    22616.213     4323.409        3.740        2.284      170.273       52.710        0.096      343.871       20.285      853.272
10/14/2014  20:36:00      -19.021     -116.782       64.028      139.033      246.199      137.627    19330.218    60614.188    18941.211        5.848        4.944      118.321      161.366        1.860      343.837       20.228      853.273
10/14/2014  20:37:00       38.194     -273.197        9.304      202.265      168.565      112.798    40911.038    28414.162    12723.354        7.910        4.102      275.854      100.584        0.133      343.845       20.241      853.378
10/14/2014  20:38:00       25.139     -333.602       -5.407      173.361      157.546       97.495    30053.902    24820.845     9505.265        8.815        3.219      334.548       71.510        0.046      343.864       20.273      853.478
10/14/2014  20:39:00     -121.636     -161.244        9.951      121.894      123.752       80.628    14858.189    15314.621     6500.815        3.878        1.834      201.977       75.387        0.139      343.833       20.220      853.478
10/14/2014  20:40:00       -0.321     -144.905       11.235       97.543      108.871       58.853     9514.714    11852.856     3463.674        2.297        1.242      144.905       47.746        0.109      343.858       20.265      853.493
10/14/2014  20:41:00       29.921     -190.682       31.522      102.248      261.165      127.401    10454.646    68206.966    16231.049        6.655        4.745      193.015      150.942        0.612      343.837       20.226      853.429
10/14/2014  20:42:00       90.884      -20.856      106.551      172.013      194.023      138.805    29588.377    37644.863    19266.736        5.326        4.325       93.247      136.201        2.133      343.751       20.080      853.320
10/14/2014  20:43:00       50.338     -182.894      -32.621      132.900      118.388       82.534    17662.472    14015.663     6811.857        3.776        1.924      189.695       80.472        0.180      343.807       20.178      853.398
10/14/2014  20:44:00       -5.579      -71.597       85.555       81.443      134.986       82.720     6632.986    18221.318     6842.623        2.208        1.585       71.814       88.494        1.518      343.780       20.131      853.307
10/14/2014  20:45:00      296.553     -224.548        8.472      291.838      272.632      152.647    85169.603    74328.133    23301.221       16.059        9.140      371.975      197.508        0.282      343.800       20.165      853.285
10/14/2014  20:46:00      125.021     -230.258       33.426      134.124      249.550      103.812    17989.259    62275.220    10776.941        8.039        4.552      262.009      129.033        0.243      343.862       20.271      853.380
10/14/2014  20:47:00      168.556     -204.156       38.624      186.731      260.159      139.963    34868.625    67682.600    19589.636        9.684        6.107      264.747      173.535        0.430      343.855       20.257      853.381
10/14/2014  20:48:00       53.667     -263.463       -5.044      214.120      202.964       88.751    45847.327    41194.214     7876.692        8.360        4.746      268.873       67.481        0.063      343.843       20.236      853.427
10/14/2014  20:49:00       60.957     -182.303       25.774      205.346      172.434       74.298    42166.997    29733.333     5520.171        5.750        3.871      192.224       87.758        0.208      343.762       20.100      853.414
10/14/2014  20:50:00       59.191     -146.468       14.816      125.685      149.987      105.447    15796.624    22496.222    11119.153        3.729        2.471      157.976       93.551        0.351      343.716       20.020      853.436
10/14/2014  20:51:00       43.508     -157.922       55.960      146.382      230.230      144.790    21427.571    53006.011    20964.153        6.266        4.770      163.805      142.058        0.752      343.712       20.013      853.331
10/14/2014  20:52:00       29.867     -141.129      -16.005      149.307      149.763       83.405    22292.662    22429.083     6956.350        3.636        2.584      144.254       91.999        0.407      343.712       20.015      853.328
10/14/2014  20:53:00       60.169     -169.333       10.826      142.974      176.400       86.724    20441.603    31117.060     7521.032        4.574        2.954      179.705       86.876        0.234      343.742       20.064      853.344
10/14/2014  20:54:00       44.242     -250.961      -17.292      200.903      109.253       65.846    40361.918    11936.293     4335.634        6.093        2.832      254.831       21.789        0.007      343.721       20.027      853.378
10/14/2014  20:55:00       29.996     -158.165        5.930       91.535      137.209       80.685     8378.670    18826.283     6510.097        2.983        1.686      160.984       75.312        0.219      343.717       20.021      853.431
10/14/2014  20:56:00       34.375     -130.192        9.205      107.218      107.747       53.081    11495.617    11609.365     2817.542        2.207        1.296      134.653       66.315        0.243      343.706       20.004      853.497
10/14/2014  20:57:00        5.341      -18.810       34.334       61.349       83.393       57.088     3763.712     6954.381     3259.021        0.777        0.699       19.554       59.281        9.191      343.697       19.990      853.496
10/14/2014  20:58:00      -80.283      -26.118        4.448       88.054       89.319       42.669     7753.445     7977.798     1820.625        1.235        0.878       84.425       35.309        0.175      343.653       19.915      853.482
10/14/2014  20:59:00       27.813     -130.877        0.660      137.847      126.293       81.134    19001.811    15949.965     6582.732        2.971        2.077      133.800       77.182        0.333      343.640       19.890      853.459
10/14/2014  21:00:00       13.090     -103.618        0.122       91.883       65.597       52.223     8442.428     4303.031     2727.269        1.319        0.774      104.441       47.659        0.208      343.642       19.895      853.489
10/14/2014  21:01:00       -9.149      -31.350       -5.320       89.385       60.656       34.399     7989.630     3679.162     1183.300        0.697        0.643       32.658       37.308        1.305      343.648       19.906      853.508
10/14/2014  21:02:00       -8.821      -95.292        2.523       67.870       95.674       52.707     4606.379     9153.499     2778.074        1.285        0.827       95.699       51.880        0.294      343.652       19.911      853.503
10/14/2014  21:03:00      -49.791      -51.621       13.625       84.988       80.462       33.177     7222.924     6474.100     1100.684        1.006        0.740       71.721       36.648        0.261      343.664       19.934      853.456
10/14/2014  21:04:00      -71.748      -54.121        2.615      109.491       78.848       58.891    11988.351     6216.939     3468.146        1.487        1.084       89.871       47.929        0.284      343.721       20.029      853.412
10/14/2014  21:05:00       13.176       11.108       18.720       54.947       59.279       47.478     3019.150     3514.046     2254.141        0.472        0.439       17.234       35.485        4.240      343.627       19.872      853.401
10/14/2014  21:06:00      -11.403      -90.098       26.872       75.606      103.955       49.268     5716.216    10806.560     2427.360        1.396        0.948       90.816       59.799        0.434      343.638       19.889      853.448
10/14/2014  21:07:00      -96.008      -78.087       22.023      126.221      146.101       70.025    15931.726    21345.547     4903.452        2.898        2.109      123.754       85.297        0.475      343.673       19.949      853.407
10/14/2014  21:08:00       32.505     -104.025       27.998       98.112      143.781       85.556     9626.050    20672.984     7319.867        2.513        1.881      108.985       97.004        0.792      343.705       20.002      853.361
10/14/2014  21:09:00       94.745     -197.519      -12.361       80.617       76.962       59.146     6499.179     5923.218     3498.198        3.203        0.796      219.067       38.936        0.032      343.812       20.183      853.359
10/14/2014  21:10:00        8.502     -111.353       58.390      137.310      170.255       98.353    18854.075    28986.715     9673.279        3.669        2.876      111.677       93.284        0.698      343.772       20.116      853.285
10/14/2014  21:11:00      -91.333      -63.373        8.505       77.146       52.975       37.893     5951.499     2806.343     1435.854        1.131        0.510      111.166       19.778        0.032      343.742       20.066      853.385
10/14/2014  21:12:00       27.236      -28.717        8.696       58.806       60.667       44.745     3458.089     3680.523     2002.155        0.539        0.457       39.579       38.971        0.970      343.737       20.060      853.403
10/14/2014  21:13:00        2.136      -42.393       21.501       45.277       88.238       41.029     2049.984     7786.028     1683.394        0.689        0.576       42.446       40.370        0.905      343.773       20.121      853.380
10/14/2014  21:14:00       10.585       29.051       38.738       47.395       42.558       34.801     2246.323     1811.219     1211.135        0.386        0.263       30.919       41.089        1.766      343.703       20.001      853.342
10/14/2014  21:15:00       17.886       49.310       26.700       41.018       30.466       34.752     1682.461      928.173     1207.730        0.364        0.191       52.453       19.405        0.137      343.816       20.194      853.298
10/14/2014  21:16:00       41.078       68.165       80.982       73.663       76.953       68.400     5426.216     5921.826     4678.547        1.446        0.801       79.585       65.978        0.687      343.658       19.922      853.301
10/14/2014  21:17:00       -7.402       16.521       32.814       34.767       47.732       36.503     1208.724     2278.387     1332.465        0.311        0.241       18.103       30.119        2.768      343.606       19.837      853.287
10/14/2014  21:18:00       24.214      -30.343        8.169       28.369       19.370       17.824      804.814      375.192      317.678        0.154        0.075       38.820       10.346        0.071      343.636       19.885      853.337
10/14/2014  21:19:00      -25.031       26.269       10.344       46.827       39.502       40.534     2192.783     1560.387     1642.991        0.341        0.270       36.285       22.960        0.400      343.673       19.951      853.303
10/14/2014  21:20:00      -44.590      -17.164        1.400       55.241       55.106       26.759     3051.535     3036.648      716.024        0.454        0.340       47.779       26.313        0.303      343.643       19.899      853.348
10/14/2014  21:21:00      137.286       41.176      -13.507      115.448       98.460       45.711    13328.221     9694.372     2089.458        2.291        1.256      143.328       32.530        0.052      343.738       20.058      853.351
10/14/2014  21:22:00       54.356      -54.438       11.500       66.469       94.908       38.301     4418.174     9007.484     1466.936        1.047        0.745       76.929       44.691        0.337      343.651       19.912      853.374
10/14/2014  21:23:00       12.069      -22.530       54.675       53.434       77.627       44.109     2855.177     6025.937     1945.626        0.723        0.541       25.559       31.784        1.546      343.587       19.803      853.402
10/14/2014  21:24:00      -66.788       14.484       -5.565       44.806       30.204       19.482     2007.556      912.285      379.558        0.400        0.165       68.340       22.834        0.112      343.651       19.913      853.380
10/14/2014  21:25:00       47.951       17.129       13.022       22.414       35.325       23.835      502.407     1247.888      568.123        0.254        0.116       50.919       19.649        0.149      343.661       19.929      853.348
10/14/2014  21:26:00       61.171       52.483       23.056       28.282       24.159       24.292      799.881      583.638      590.091        0.450        0.099       80.600       19.916        0.061      343.612       19.846      853.336
10/14/2014  21:27:00       46.672       11.418       19.588       47.205       49.726       25.951     2228.359     2472.641      673.429        0.403        0.269       48.049       26.921        0.314      343.573       19.780      853.355
10/14/2014  21:28:00       12.333       23.806        4.905       37.258       42.468       25.205     1388.141     1803.537      635.277        0.228        0.191       26.811       10.958        0.167      343.601       19.827      853.385
10/14/2014  21:29:00       31.617      -20.705       15.166       47.751       51.672       29.157     2280.125     2669.966      850.142        0.373        0.290       37.794       21.857        0.334      343.566       19.767      853.418
10/14/2014  21:30:00      -29.021      -51.791        3.337       40.952       40.692       26.470     1677.077     1655.852      700.672        0.378        0.202       59.368       19.089        0.103      343.670       19.945      853.351
10/14/2014  21:31:00       45.089      -96.210       -9.810       65.913       71.745       43.741     4344.492     5147.366     1913.257        1.139        0.570      106.251       48.173        0.206      343.677       19.956      853.342
10/14/2014  21:32:00       93.166       -9.453       44.796       62.274      113.145       57.004     3878.095    12801.697     3249.433        1.535        0.996       93.645       72.185        0.594      343.538       19.719      853.318
10/14/2014  21:33:00      139.928      -33.740       48.671      113.298      130.925       90.134    12836.525    17141.467     8124.088        3.059        1.905      143.939       96.660        0.451      343.550       19.737      853.306
10/14/2014  21:34:00      220.226       -3.842       90.060      183.796      216.542      111.864    33781.116    46890.433    12513.544        7.489        4.659      220.259      150.094        0.464      343.522       19.690      853.203
10/14/2014  21:35:00      149.535     -223.731       22.615      143.754      210.500      113.330    20665.148    44310.345    12843.677        7.536        3.891      269.102      129.387        0.231      343.491       19.636      853.175
10/14/2014  21:36:00       82.962      -29.540       71.031      100.350      168.546      100.698    10070.157    28407.597    10140.021        3.070        2.431       88.064      111.593        1.606      343.432       19.539      853.164
10/14/2014  21:37:00       63.434     -101.051       30.558      127.752      109.546       81.574    16320.483    12000.316     6654.277        2.507        1.749      119.311       72.085        0.365      343.435       19.543      853.216
10/14/2014  21:38:00       33.393      -18.780       47.198       72.716      118.898       79.238     5287.552    14136.810     6278.599        1.469        1.285       38.312       89.468        5.454      343.467       19.599      853.198
10/14/2014  21:39:00      -32.342       17.942      109.592      115.665      161.538      116.454    13378.349    26094.474    13561.471        3.320        2.652       36.986      121.756       10.837      343.410       19.501      853.192
10/14/2014  21:40:00       12.379     -165.306       18.898       88.950      161.977       67.457     7912.046    26236.564     4550.456        3.326        1.935      165.768       82.865        0.250      343.453       19.574      853.262
10/14/2014  21:41:00      -35.171      -50.560       34.913       89.584       91.058       57.415     8025.208     8291.631     3296.534        1.231        0.981       61.590       62.916        1.044      343.459       19.584      853.268
10/14/2014  21:42:00       64.003     -190.813        0.955      195.402      202.395      102.889    38182.113    40963.547    10586.212        6.510        4.487      201.261      101.798        0.256      343.528       19.700      853.189
10/14/2014  21:43:00      -30.825     -324.852      -15.043      122.397      122.737       55.825    14981.002    15064.414     3116.460        6.993        1.658      326.311       27.057        0.007      343.635       19.881      853.231
10/14/2014  21:44:00      -28.190     -185.901      -15.257      137.443      132.998       63.436    18890.712    17688.365     4024.188        3.809        2.030      188.026       36.892        0.038      343.571       19.775      853.256
10/14/2014  21:45:00      -35.961     -126.736       23.630      123.325      110.359       86.812    15209.094    12179.026     7536.295        2.641        1.746      131.739       85.362        0.420      343.487       19.631      853.240
10/14/2014  21:46:00       -6.139     -114.043       25.062       74.977      110.044       60.379     5621.542    12109.783     3645.643        1.752        1.069      114.208       61.989        0.295      343.431       19.536      853.315
10/14/2014  21:47:00       61.245      -15.954       67.285      132.593      110.296       82.727    17581.035    12165.193     6843.740        2.256        1.829       63.289       69.170        1.194      343.396       19.476      853.288
10/14/2014  21:48:00      -20.433     -123.356      -14.868      110.706       78.480       59.659    12255.842     6159.053     3559.241        1.891        1.099      125.037       58.122        0.216      343.464       19.592      853.227
10/14/2014  21:49:00       -0.786      -23.293       22.211       84.032       84.234       36.197     7061.435     7095.360     1310.239        0.825        0.773       23.307       44.664        3.672      343.402       19.487      853.213
10/14/2014  21:50:00       72.056      -10.466       32.599       71.692      114.879       68.439     5139.705    13197.085     4683.874        1.469        1.151       72.812       61.211        0.707      343.400       19.483      853.250
10/14/2014  21:51:00       27.090      -44.619       31.041      203.199      120.553       99.653    41289.735    14532.921     9930.765        3.471        3.288       52.199       65.500        1.575      343.349       19.397      853.234
10/14/2014  21:52:00      -20.335      -27.820       42.058      101.736      148.537       79.415    10350.297    22063.130     6306.805        2.083        1.936       34.460       96.904        7.908      343.314       19.338      853.217
10/14/2014  21:53:00       14.157     -141.569       11.678       43.909      102.793       47.109     1927.970    10566.298     2219.285        1.754        0.736      142.276       28.336        0.040      343.393       19.471      853.216
10/14/2014  21:54:00       -9.312     -103.347       -4.940       75.435      119.422       67.247     5690.510    14261.542     4522.220        1.763        1.224      103.766       75.766        0.533      343.376       19.443      853.248
10/14/2014  21:55:00      -83.721     -165.558       15.161      124.869      111.835       67.940    15592.324    12507.073     4615.803        3.368        1.636      185.523       57.990        0.098      343.339       19.379      853.207
10/14/2014  21:56:00      -43.929     -156.201       -5.769       96.776      122.995       46.368     9365.659    15127.796     2149.946        2.650        1.332      162.261       32.094        0.039      343.351       19.399      853.136
10/14/2014  21:57:00     -115.578     -119.552        7.728       97.361       98.978       52.966     9479.225     9796.571     2805.412        2.489        1.104      166.286       47.715        0.082      343.290       19.295      853.077
10/14/2014  21:58:00       -5.539      -83.680      -12.559       76.845       75.595       49.984     5905.167     5714.581     2498.358        1.065        0.706       83.863       38.287        0.208      343.324       19.354      853.135
10/14/2014  21:59:00      -80.542      -93.149       14.816       74.305       57.472       50.319     5521.189     3303.079     2532.031        1.337        0.568      123.141       33.770        0.075      343.286       19.290      853.169
10/14/2014  22:00:00       79.094     -158.458        8.199      102.091      156.155       74.275    10422.548    24384.493     5516.816        3.587        2.016      177.101       86.920        0.241      343.312       19.332      853.186
10/14/2014  22:01:00       48.083     -176.639       24.357      107.332      123.014       63.325    11520.120    15132.412     4010.032        3.238        1.533      183.067       54.711        0.089      343.360       19.416      853.176
10/14/2014  22:02:00       52.473     -106.084      -21.019       69.039       49.680       42.094     4766.442     2468.125     1771.901        1.173        0.450      118.352       21.291        0.032      343.357       19.411      853.225
10/14/2014  22:03:00       50.801       47.449       -3.354       65.273       54.178       31.343     4260.512     2935.227      982.371        0.651        0.409       69.514       32.724        0.222      343.263       19.250      853.183
10/14/2014  22:04:00       31.514        0.276       34.384       40.333       47.706       40.792     1626.722     2275.892     1664.021        0.387        0.278       31.515       20.314        0.415      343.267       19.258      853.147
10/14/2014  22:05:00      106.173      -63.580       39.003       91.151      126.893       66.898     8308.415    16101.919     4475.354        2.286        1.444      123.755       81.687        0.436      343.307       19.324      853.189
10/14/2014  22:06:00      -24.273      -86.520        3.276       74.924       85.729       46.502     5613.677     7349.456     2162.464        1.160        0.756       89.860       48.516        0.291      343.289       19.295      853.197
10/14/2014  22:07:00      186.172     -244.147        0.957      115.502      153.578       76.530    13340.773    23586.182     5856.800        6.852        2.139      307.030       68.660        0.050      343.271       19.262      853.206
10/14/2014  22:08:00       12.131        5.882       72.003       95.108      155.378      106.173     9045.463    24142.470    11272.736        2.491        2.223       13.482      113.717       71.143      343.189       19.123      853.194
10/14/2014  22:09:00       29.097      -46.506       25.762       95.032       87.633       43.873     9031.173     7679.562     1924.877        1.115        0.932       54.858       43.856        0.639      343.216       19.171      853.253
10/14/2014  22:10:00        8.022     -163.175       -8.574      117.520       76.262       55.172    13811.039     5815.968     3043.945        2.471        1.134      163.372       47.659        0.085      343.261       19.247      853.287
10/14/2014  22:11:00       46.761      -56.483       37.132      123.321      167.657       84.258    15208.102    28108.772     7099.427        2.858        2.521       73.327      107.056        2.132      343.237       19.205      853.288
10/14/2014  22:12:00       55.233      -28.092       67.486       94.000      132.663       73.754     8835.958    17599.538     5439.697        2.013        1.594       61.966       86.542        1.950      343.238       19.209      853.240
10/14/2014  22:13:00       -1.127       25.000       59.872       43.821       77.669       48.784     1920.290     6032.414     2379.847        0.727        0.517       25.025       43.882        3.075      343.156       19.069      853.259
10/14/2014  22:14:00       26.124      -49.801        5.945       45.714       72.934       44.673     2089.786     5319.308     1995.692        0.630        0.470       56.237       43.845        0.608      343.136       19.035      853.300
10/14/2014  22:15:00       12.830      -28.264       22.399       57.346       82.392       51.302     3288.556     6788.382     2631.938        0.708        0.635       31.040       47.037        2.296      343.287       19.292      853.288
10/14/2014  22:16:00       -2.695     -190.556       -0.913      107.621      146.664       55.227    11582.359    21510.329     3049.969        3.623        1.807      190.575       20.125        0.011      343.483       19.625      853.311
10/14/2014  22:17:00       -2.371     -107.711       30.884       87.736      125.530       57.061     7697.675    15757.878     3255.991        1.963        1.336      107.737       56.418        0.274      343.388       19.464      853.384
10/14/2014  22:18:00      114.528     -160.481       14.569      122.472      182.085      114.206    14999.416    33154.820    13043.008        5.013        3.060      197.157      126.592        0.412      343.424       19.525      853.415
10/14/2014  22:19:00      -81.409     -148.619       -3.658       98.449       95.496       63.638     9692.242     9119.497     4049.825        2.579        1.143      169.455       44.577        0.069      343.505       19.662      853.405
10/14/2014  22:20:00     -245.263      -50.361       -4.540      111.396      121.789       57.537    12409.121    14832.469     3310.494        4.663        1.528      250.380       61.743        0.061      343.503       19.658      853.435
10/14/2014  22:21:00      -95.990      -93.461      -12.744      103.585      122.620       60.328    10729.777    15035.655     3639.511        2.375        1.470      133.974       45.180        0.114      343.484       19.626      853.443
10/14/2014  22:22:00        2.605       -2.279       15.561       41.341       46.857       22.529     1709.094     2195.556      507.539        0.233        0.221        3.461       19.024       30.204      343.335       19.374      853.514
10/14/2014  22:23:00      103.262       77.201       49.593       58.283       50.103       45.456     3396.910     2510.304     2066.231        1.353        0.399      128.930       30.146        0.055      343.235       19.204      853.526
10/14/2014  22:24:00      103.740       78.171       49.233       45.547       43.712       49.764     2074.566     1910.752     2476.497        1.288        0.323      129.894       30.557        0.055      343.164       19.083      853.461
10/14/2014  22:25:00      103.733       58.412       76.432       78.942       57.687       56.450     6231.788     3327.813     3186.602        1.638        0.637      119.048       40.360        0.115      343.133       19.028      853.459
10/14/2014  22:26:00       -6.153       23.462       50.425       66.449       65.150       49.939     4415.457     4244.551     2493.856        0.714        0.558       24.255       38.437        2.511      343.143       19.047      853.469
10/14/2014  22:27:00      -77.278       12.941      -17.388       72.680       55.243       41.991     5282.433     3051.812     1763.211        0.827        0.505       78.354       45.027        0.330      343.146       19.053      853.497
10/14/2014  22:28:00       40.093       50.326        8.661       50.882       51.426       40.201     2588.951     2644.604     1616.082        0.553        0.342       64.344       28.876        0.201      343.118       19.004      853.554
10/14/2014  22:29:00       -4.080       11.576       18.559       38.033       27.985       25.839     1446.476      783.157      667.675        0.170        0.145       12.274       23.885        3.787      343.067       18.918      853.572
10/14/2014  22:30:00      -17.702       -6.745       20.715       29.328       40.556       38.339      860.151     1644.814     1469.909        0.238        0.199       18.944       31.044        2.686      343.118       19.005      853.595
10/14/2014  22:31:00      126.417       79.223       26.202       62.351       41.730       42.385     3887.656     1741.417     1796.483        1.518        0.371      149.189       31.729        0.045      343.036       18.864      853.617
10/14/2014  22:32:00      195.755       62.842       60.518       96.126       71.538       55.704     9240.150     5117.677     3102.934        3.169        0.873      205.595       47.602        0.054      343.133       19.026      853.586
10/14/2014  22:33:00       48.843       40.968       46.311       67.756       50.451       34.552     4590.894     2545.275     1193.823        0.727        0.416       63.750       23.736        0.139      343.067       18.917      853.638
10/14/2014  22:34:00       59.710      -18.040       14.782       30.810       54.505       29.764      949.228     2970.803      885.870        0.446        0.240       62.376       32.271        0.268      343.094       18.964      853.707
10/14/2014  22:35:00       64.502       54.769       13.181       42.267       42.461       31.313     1786.482     1802.901      980.481        0.595        0.228       84.618       15.541        0.034      343.059       18.903      853.662
10/14/2014  22:36:00      127.772       65.537       24.879       54.244       54.532       35.977     2942.407     2973.696     1294.374        1.422        0.361      143.600       33.173        0.053      342.910       18.650      853.674
10/14/2014  22:37:00       92.575       74.946       15.752       46.229       33.368       32.561     2137.098     1113.437     1060.217        0.937        0.216      119.109       13.334        0.013      342.893       18.621      853.665
10/14/2014  22:38:00      182.767       99.943       11.979       39.813       35.410       30.906     1585.098     1253.834      955.159        2.366        0.190      208.308       13.373        0.004      342.877       18.591      853.597
10/14/2014  22:39:00       78.323       92.971       89.254       84.913       67.769       48.715     7210.291     4592.597     2373.144        1.846        0.709      121.565       49.293        0.164      342.864       18.570      853.567
10/14/2014  22:40:00       54.460      -71.401       18.751      100.764      107.315       52.114    10153.394    11516.433     2715.835        1.640        1.219       89.800       59.969        0.446      343.083       18.944      853.512
10/14/2014  22:41:00       52.234      -42.100       11.944       54.131       98.916       42.417     2930.182     9784.301     1799.238        0.958        0.726       67.088       47.763        0.507      343.046       18.881      853.519
10/14/2014  22:42:00      -35.331      -72.100        8.809       37.610       56.897       34.962     1414.519     3237.314     1222.361        0.620        0.294       80.292       27.979        0.121      343.035       18.865      853.570
10/14/2014  22:43:00     -113.972      -39.917       -6.851       69.081       36.094       26.135     4772.190     1302.809      683.033        1.069        0.338      120.760       24.010        0.040      343.112       18.993      853.563
10/14/2014  22:44:00      -70.270      -18.266        2.152       50.485       51.386       29.234     2548.765     2640.483      854.631        0.566        0.302       72.605       31.166        0.184      343.086       18.951      853.552
10/14/2014  22:45:00      -39.891      -37.930        7.039       65.840       33.173       29.092     4334.844     1100.448      846.367        0.468        0.314       55.046       13.548        0.061      343.073       18.929      853.584
10/14/2014  22:46:00     -132.722      -91.780        1.996      101.471       79.307       52.868    10296.297     6289.632     2794.994        2.271        0.969      161.365       49.722        0.095      343.136       19.034      853.627
10/14/2014  22:47:00     -125.265     -263.471        9.544      233.380      232.095      107.601    54466.259    53868.188    11577.957       10.254        5.996      291.733      117.562        0.162      343.128       19.017      853.616
10/14/2014  22:48:00      -52.539     -165.469        5.431      194.227      137.243       68.334    37724.074    18835.646     4669.519        4.569        3.061      173.610       66.557        0.147      343.115       18.996      853.519
10/14/2014  22:49:00      -34.813       12.348       58.408       76.638       60.643       50.186     5873.353     3677.555     2518.643        0.842        0.603       36.938       39.199        1.126      343.126       19.017      853.442
10/14/2014  22:50:00      -25.808      -85.511       -0.952       72.730       82.788       51.491     5289.600     6853.888     2651.361        1.138        0.740       89.321       31.231        0.122      343.163       19.082      853.432
10/14/2014  22:51:00      -39.016      -70.907        9.982       95.843       72.362       52.336     9185.882     5236.281     2739.022        1.190        0.858       80.932       49.947        0.381      343.060       18.905      853.467
10/14/2014  22:52:00       78.779       41.316       27.182       67.463       52.655       34.467     4551.275     2772.542     1187.953        0.858        0.426       88.956       30.577        0.118      343.018       18.833      853.440
10/14/2014  22:53:00       17.974      -18.392       32.527       47.935       65.273       42.494     2297.735     4260.619     1805.765        0.504        0.418       25.716       32.442        1.591      343.012       18.825      853.520
10/14/2014  22:54:00       44.975     -148.097      -16.224       36.805       76.571       34.089     1354.608     5863.182     1162.089        1.630        0.419      154.775       24.043        0.024      343.126       19.017      853.545
10/14/2014  22:55:00       -5.244      -31.514       -0.915       67.891       71.359       41.703     4609.247     5092.166     1739.161        0.623        0.572       31.947       48.511        2.306      343.185       19.119      853.569
10/14/2014  22:56:00     -245.139      -33.491      -19.437      146.624       91.821       48.978    21498.624     8431.017     2398.814        4.696        1.616      247.417       55.592        0.050      343.167       19.084      853.526
10/14/2014  22:57:00     -110.975      -91.561       -6.471       92.839       62.770       53.498     8619.169     3940.114     2861.983        1.808        0.771      143.871       44.883        0.097      343.087       18.951      853.451
10/14/2014  22:58:00      -95.065        9.892       -1.482      159.972       90.058       63.977    25591.174     8110.362     4093.112        2.346        1.890       95.578       67.569        0.500      343.063       18.909      853.435
10/14/2014  22:59:00      122.598       78.643       64.909       94.026       75.866       82.852     8840.831     5755.646     6864.381        2.344        1.073      145.653       68.697        0.222      342.806       18.472      853.410
10/14/2014  23:00:00       95.940       87.122       92.508       69.790       84.932       59.667     4870.685     7213.451     3560.132        2.050        0.782      129.595       48.233        0.139      342.834       18.520      853.387
10/14/2014  23:01:00       95.358       63.715       85.073       72.031      100.865       52.117     5188.465    10173.725     2716.216        1.923        0.904      114.685       51.851        0.204      342.839       18.527      853.311
10/14/2014  23:02:00       59.083       56.465       59.452       71.032       63.345       55.649     5045.527     4012.638     3096.815        1.118        0.608       81.726       52.656        0.415      342.856       18.557      853.276
10/14/2014  23:03:00      136.239      -27.634       75.735      134.684      110.181       75.161    18139.716    12139.843     5649.220        3.049        1.796      139.013       84.571        0.370      342.860       18.563      853.289
10/14/2014  23:04:00       51.184       46.688       44.343       59.953       69.771       51.674     3594.373     4867.997     2670.219        0.895        0.557       69.279       25.339        0.134      342.666       18.234      853.268
10/14/2014  23:05:00      288.955      -70.875      109.537      189.390      271.097      157.155    35868.486    73493.555    24697.767       11.727        6.703      297.520      197.347        0.440      342.874       18.586      853.205
10/14/2014  23:06:00       45.806      -23.629       71.145       97.256      106.418       87.864     9458.659    11324.808     7720.001        1.811        1.425       51.541       73.642        2.041      342.837       18.525      853.164
10/14/2014  23:07:00      109.260      -58.271       45.587      131.840      134.502      103.789    17381.703    18090.791    10772.140        3.182        2.312      123.828      100.927        0.664      342.885       18.607      853.206
10/14/2014  23:08:00      109.115     -170.614       -4.252       88.276       79.115       57.947     7792.669     6259.209     3357.866        2.922        0.870      202.523       42.057        0.043      343.023       18.839      853.257
10/14/2014  23:09:00       39.449       61.483       91.499       63.753       65.605       52.952     4064.446     4304.011     2803.922        1.244        0.559       73.050       51.039        0.488      342.880       18.600      853.212
10/14/2014  23:10:00       16.880      -15.254       51.730       76.632      118.059       62.157     5872.454    13937.892     3863.470        1.343        1.184       22.751       69.466        9.323      342.901       18.634      853.172
10/14/2014  23:11:00       54.571      -39.242       26.099       73.196       80.406       53.535     5357.614     6465.162     2865.997        0.994        0.734       67.216       50.948        0.575      342.869       18.580      853.123
10/14/2014  23:12:00       98.868      -17.790       76.949       96.854       97.725       70.880     9380.630     9550.208     5023.962        1.998        1.198      100.455       65.978        0.431      342.862       18.566      853.153
10/14/2014  23:13:00      -44.772      -71.768       24.865       66.915       83.670       42.791     4477.617     7000.642     1831.055        1.054        0.665       84.589       49.951        0.349      342.904       18.639      853.206
10/14/2014  23:14:00       35.008      -98.178        9.636       96.494       77.740       39.060     9311.106     6043.574     1525.690        1.392        0.844      104.233       36.355        0.122      342.885       18.608      853.195
10/14/2014  23:15:00       19.193      -87.046       -8.279       40.026       50.456       28.402     1602.108     2545.791      806.692        0.648        0.248       89.137       27.231        0.093      342.801       18.464      853.202
10/14/2014  23:16:00      -53.425      -19.271       -1.000       29.627       28.323       18.987      877.731      802.169      360.519        0.263        0.102       56.794       15.591        0.075      342.790       18.447      853.207
10/14/2014  23:17:00      -68.731      103.062      -18.199       63.746       85.210       48.294     4063.552     7260.739     2332.301        1.466        0.683      123.878       41.160        0.110      342.768       18.408      853.180
10/14/2014  23:18:00       36.042      -58.015       29.820       51.311       59.103       37.387     2632.835     3493.221     1397.767        0.654        0.376       68.299       40.398        0.350      342.727       18.339      853.170
10/14/2014  23:19:00       97.969       23.195       65.808       84.276      120.530       84.648     7102.414    14527.460     7165.207        2.163        1.440      100.677       78.998        0.616      342.707       18.302      853.168
10/14/2014  23:20:00       64.271      -87.719      131.005      142.743      219.844      153.284    20375.614    48331.525    23496.085        6.058        4.610      108.745      178.078        2.682      342.741       18.358      853.078
10/14/2014  23:21:00       60.958      -59.769       80.661      109.915      167.561       93.245    12081.348    28076.686     8694.544        3.132        2.443       85.371      117.992        1.910      342.767       18.405      853.223
10/14/2014  23:22:00      -60.672      -78.611       34.448      148.975      101.021       74.717    22193.450    10205.340     5582.694        2.451        1.899       99.301       70.811        0.508      342.771       18.411      853.213
10/14/2014  23:23:00       54.641       32.367       43.730      108.805       61.337       49.024    11838.493     3762.261     2403.370        1.197        0.900       63.508       47.257        0.554      342.754       18.385      853.217
10/14/2014  23:24:00      119.437      -56.748       84.001      156.232      198.208      137.737    24408.377    39286.551    18971.361        5.359        4.133      132.233      154.735        1.369      342.712       18.310      853.217
10/14/2014  23:25:00       81.272       43.313      114.785      132.297      162.324      110.500    17502.438    26349.208    12210.357        3.885        2.803       92.093      129.065        1.964      342.645       18.197      853.169
10/14/2014  23:26:00      140.000      -48.493       51.667       90.870      130.717       77.139     8257.415    17087.051     5950.415        2.795        1.565      148.161       90.055        0.369      342.653       18.212      853.163
10/14/2014  23:27:00       31.670       -4.973       79.741      100.101      117.887       70.170    10020.192    13897.391     4923.859        1.811        1.442       32.058       68.362        4.547      342.621       18.157      853.196
10/14/2014  23:28:00       57.806      148.095      188.837       86.113      152.049       84.503     7415.440    23119.011     7140.770        4.930        1.884      158.977       96.371        0.367      342.698       18.287      853.163
10/14/2014  23:29:00       88.399      -28.497       61.509       73.930       98.417       73.907     5465.646     9685.812     5462.187        1.651        1.031       92.878       67.164        0.523      342.682       18.262      853.158
10/14/2014  23:30:00       27.826      -22.080       34.798       39.493       83.992       38.831     1559.686     7054.679     1507.882        0.630        0.506       35.522       38.521        1.176      342.706       18.304      853.199
10/14/2014  23:31:00      162.964      -82.499       -5.731       75.903      162.334       59.301     5761.336    26352.194     3516.660        3.451        1.782      182.656       22.898        0.016      342.878       18.591      853.239
10/14/2014  23:32:00      128.642      125.439      102.894       64.320       67.014       58.546     4137.018     4490.859     3427.668        2.746        0.603      179.676       47.251        0.069      342.746       18.368      853.219
10/14/2014  23:33:00      107.677       67.267       74.106       99.595      145.029       77.291     9919.118    21033.294     5973.924        2.926        1.846      126.961       83.454        0.432      342.629       18.169      853.237
10/14/2014  23:34:00       24.866     -125.153       -3.425      151.118       93.572       68.687    22836.552     8755.698     4717.938        2.630        1.816      127.599       68.809        0.291      342.682       18.259      853.304
10/14/2014  23:35:00       -1.231       30.097       60.328       32.337       41.712       38.145     1045.690     1739.912     1455.062        0.439        0.212       30.122       25.462        0.715      342.589       18.103      853.269
10/14/2014  23:36:00       61.604       36.428       57.929       60.721       70.286       49.422     3687.095     4940.061     2442.552        0.977        0.553       71.568       50.135        0.491      342.568       18.067      853.294
10/14/2014  23:37:00      178.353       78.637       64.307      140.644      105.474       79.400    19780.629    11124.764     6304.356        3.966        1.860      194.919       60.137        0.095      342.489       17.932      853.195
10/14/2014  23:38:00      134.087       52.972       46.821      118.082       67.576       49.461    13943.455     4566.477     2446.385        2.196        1.048      144.171       25.906        0.032      342.450       17.870      853.185
10/14/2014  23:39:00      126.326      -96.537       43.326      104.132      211.110       86.571    10843.463    44567.233     7494.506        4.502        3.145      158.989       87.213        0.301      342.573       18.074      853.168
10/14/2014  23:40:00      116.157     -132.626       30.301       98.927      187.789       90.314     9786.463    35264.624     8156.666        4.259        2.660      176.301      109.267        0.384      342.562       18.057      853.187
10/14/2014  23:41:00      136.528     -189.424      -11.303       97.179      100.016       52.205     9443.665    10003.212     2725.360        3.841        1.109      233.498       56.349        0.058      342.591       18.104      853.172
10/14/2014  23:42:00      172.243      -61.332       66.304      168.298      204.430      124.209    28324.232    41791.737    15427.894        6.167        4.277      182.836      153.892        0.708      342.488       17.932      853.103
10/14/2014  23:43:00       48.836       69.499      156.715       85.634      155.670       87.762     7333.155    24233.078     7702.188        3.551        1.963       84.941      102.533        1.457      342.481       17.918      853.048
10/14/2014  23:44:00      141.412     -100.894       62.551      136.981      188.750      137.438    18763.680    35626.519    18889.129        5.367        3.664      173.715      155.162        0.798      342.583       18.091      853.076
10/14/2014  23:45:00      -58.659      -27.666       -7.755       74.769       40.874       39.062     5590.398     1670.644     1525.829        0.653        0.439       64.856       36.163        0.311      342.593       18.110      853.159
10/14/2014  23:46:00        7.383        8.682       24.036       49.952       47.691       31.776     2495.214     2274.469     1009.725        0.324        0.289       11.397       29.006        6.477      342.591       18.108      853.201
10/14/2014  23:47:00        6.148       59.531       39.341       42.513       48.163       35.717     1807.349     2319.656     1275.696        0.527        0.270       59.848       31.056        0.269      342.550       18.039      853.194
10/14/2014  23:48:00      171.359      105.952       46.528       34.350       25.269       38.369     1179.931      638.512     1472.200        2.302        0.165      201.469       16.816        0.007      342.589       18.103      853.112
10/14/2014  23:49:00       92.217       81.650        7.085       44.392       42.817       38.142     1970.653     1833.271     1454.776        1.024        0.263      123.169       27.215        0.049      342.439       17.851      853.073
10/14/2014  23:50:00       77.332       87.582        0.717       69.701       64.364       33.266     4858.215     4142.720     1106.625        1.188        0.505      116.837       24.755        0.045      342.345       17.689      853.136
10/14/2014  23:51:00      170.683      125.901        7.807       42.381       35.623       39.470     1796.181     1268.964     1557.875        2.483        0.231      212.094       31.668        0.022      342.335       17.670      853.132
10/14/2014  23:52:00       76.475      116.280        1.466       55.843       65.159       45.832     3118.397     4245.757     2100.542        1.442        0.473      139.174       37.221        0.072      342.176       17.401      853.076
10/14/2014  23:53:00      119.449       64.890       63.696      107.019       83.882       85.763    11452.980     7036.247     7355.263        2.419        1.292      135.936       66.344        0.238      342.397       17.777      853.052
10/14/2014  23:54:00      129.189       56.795       54.587       99.266       91.244       73.922     9853.657     8325.400     5464.415        2.327        1.182      141.122       57.390        0.165      342.531       18.004      853.044
10/14/2014  23:55:00       42.475      -30.674       48.131       59.652      110.843       58.841     3558.329    12286.263     3462.285        1.218        0.965       52.393       71.217        1.848      342.491       17.936      853.005
10/14/2014  23:56:00        4.034      -63.370        6.295       36.153       69.661       30.371     1307.071     4852.720      922.373        0.558        0.354       63.498       27.412        0.186      342.507       17.967      853.021
10/14/2014  23:57:00       27.195      -58.908       58.455       47.167      121.946       55.819     2224.688    14870.736     3115.748        1.392        1.011       64.883       65.358        1.015      342.627       18.169      852.927
10/14/2014  23:58:00       -7.999       44.614      100.080       48.931       86.742       53.435     2394.226     7524.147     2855.275        1.242        0.639       45.326       54.148        1.427      342.466       17.894      852.865
10/14/2014  23:59:00      -32.682        2.481       29.549       30.227       45.598       41.172      913.653     2079.168     1695.129        0.332        0.234       32.776       28.679        0.766      342.420       17.817      853.002
